[[[{"header":{"parameterUnit":"kt","parameterCategory":2,"dx":1,"dy":1,"la1":29.285339999999998,"la2":30.599998999999997,"lo1":-89.70041500000002,"lo2":-87.6738589999976,"nx":112,"ny":82,"refTime":"2022-09-26T06:00:00:Z","depth":0,"parameterNumber":1,"parameterNumberName":"U-component_of_WINDS"},"data":[5.2499,5.0201,4.8187,4.8039,4.6094,4.4135,4.369,4.3077,4.244,4.2198,4.1554,4.1263,4.2081,4.1711,4.1099,4.0809,4.0091,3.9352,0.0,3.9331,4.0374,4.1351,4.4507,4.7262,4.8984,5.2671,5.5687,5.7507,6.0724,6.3626,6.6097,6.8103,7.0237,7.2545,7.3287,7.4682,7.6706,7.7302,7.8835,8.144,8.1969,8.3064,8.4552,8.4552,8.4552,8.4516,8.3843,8.289,8.1802,8.1024,8.0735,8.0735,8.0244,8.0369,8.0661,7.9847,7.9305,7.9202,8.0722,8.0992,8.0479,7.9778,7.9509,7.927,7.8214,7.7891,7.7891,7.7891,7.7891,7.7891,7.7891,7.723,7.666,7.7661,7.6455,7.5133,7.5526,7.4453,7.3037,7.1412,7.0725,7.0084,6.9112,6.9015,6.9015,6.9015,6.9015,6.9015,6.9015,6.7879,6.7146,6.7146,6.545,6.407,6.3356,6.1702,6.02,5.9006,5.8312,5.791,5.791,5.791,5.791,5.791,5.7082,5.6754,5.6754,5.4013,5.3341,5.4591,5.1712,5.2687,5.058,4.8403,4.6451,4.6263,4.468,4.3065,4.261,4.2294,4.2011,4.1654,4.1394,4.1477,4.2306,4.2034,4.1101,3.9274,3.9784,3.9718,0.0,3.9598,4.1944,4.4126,4.7169,4.9829,5.1884,5.5257,5.795,5.951,6.3235,6.5997,6.7265,6.9738,7.1706,7.31,7.4325,7.58,7.7517,7.8575,8.02,8.2218,8.2747,8.3594,8.4552,8.4552,8.4552,8.4481,8.342,8.2336,8.1127,7.998,7.947,7.9464,7.9109,7.9218,7.947,7.947,7.9469,7.9583,8.0397,8.042,7.9989,7.9212,7.8934,7.8874,7.815,7.7891,7.7891,7.7891,7.7891,7.7891,7.7891,7.7198,7.666,7.7661,7.6009,7.4344,7.4779,7.3792,7.2232,7.0754,7.0421,7.0084,6.9112,6.9015,6.9015,6.9015,6.9015,6.9015,6.9015,6.785,6.7146,6.7146,6.4885,6.3659,6.4207,6.1985,6.0055,5.8858,5.8336,5.791,5.791,5.791,5.791,5.791,5.7233,5.6754,5.6754,5.4013,5.3363,5.4591,5.1712,5.2687,4.781,4.6389,4.4566,4.4257,4.3437,4.2451,4.1114,4.0896,4.1112,4.1834,4.201,4.2306,4.317,4.2217,3.985,3.5575,3.7205,0.0,0.0,3.7786,4.2716,4.7826,5.0394,5.2972,5.6154,5.6582,5.8509,6.3111,6.5383,6.7301,6.9038,7.1991,7.3682,7.3779,7.6253,7.7588,7.7696,8.0742,8.2218,8.2289,8.3843,8.4552,8.4552,8.4552,8.4552,8.4481,8.342,8.2333,8.1141,7.9964,7.9437,7.9338,7.8285,7.8581,7.9437,7.9503,7.9575,7.9484,7.9486,7.8877,7.8022,7.7924,7.7891,7.7891,7.7891,7.7891,7.7891,7.7891,7.7891,7.7891,7.7891,7.7891,7.7891,7.7891,7.666,7.5101,7.3824,7.2318,7.0725,6.9334,6.9141,6.9015,6.9015,6.9015,6.9015,6.9015,6.9015,6.9015,6.9015,6.9015,6.9015,6.8888,6.5612,6.4207,6.585,6.2688,6.0609,6.0609,5.9006,5.791,5.791,5.791,5.791,5.791,5.5765,5.4746,5.4746,5.4614,5.4614,5.4746,5.4746,5.4746,4.7355,4.5468,4.4259,4.4002,4.308,4.2132,4.1751,4.2191,4.2543,4.21,4.2511,0.0,0.0,0.0,4.2348,4.1165,0.0,4.1866,4.1193,4.369,4.6477,4.8933,5.121,5.4168,5.8218,6.0674,6.3016,6.5466,6.6876,6.8837,7.1686,7.2598,7.4117,7.6396,7.723,7.8647,8.0891,8.1786,8.2783,8.3914,8.4338,8.4552,8.4552,8.4552,8.4552,8.4414,8.2584,8.1533,8.1107,7.9175,7.8416,7.8285,7.8088,7.812,7.8581,8.0195,8.0241,7.9484,7.9486,7.9338,7.8976,7.8186,7.7891,7.7891,7.7891,7.7891,7.7891,7.7891,7.7891,7.7891,7.7891,7.7097,7.6557,7.7661,7.5069,7.283,7.467,7.2975,7.1055,7.0634,7.0513,7.0207,6.9238,6.9015,6.9015,6.9015,6.9015,6.9015,6.9015,6.9015,6.8449,6.6988,6.6011,6.502,6.4207,6.1985,6.0609,6.0609,5.9006,5.791,5.791,5.791,5.791,5.791,5.7258,5.7082,5.7082,5.5434,5.5434,5.7082,5.7082,5.7082,4.5611,4.4381,4.3766,4.3707,4.3093,4.2568,4.2568,4.2971,4.317,4.2681,0.0,0.0,0.0,0.0,0.0,0.0,4.3039,4.396,4.3023,4.5803,4.9139,5.2459,5.4642,5.6977,5.985,6.295,6.5754,6.8019,6.9339,7.0888,7.2837,7.4099,7.5717,7.7481,7.8826,8.0385,8.2182,8.2854,8.3665,8.4552,8.4552,8.4552,8.4552,8.4552,8.4552,8.4449,8.221,8.1252,8.1107,7.8814,7.7891,7.8022,7.8482,7.8307,7.8213,8.0438,8.0262,7.8965,7.993,7.9667,7.8713,7.8153,7.7891,7.7891,7.7891,7.7891,7.7891,7.7891,7.7891,7.7891,7.7891,7.733,7.6863,7.7793,7.542,7.3507,7.5208,7.3283,7.1174,7.1174,7.0634,6.9991,6.9112,6.9015,6.9015,6.9015,6.9015,6.9015,6.9015,6.9015,6.8576,6.7434,6.6567,6.5317,6.3494,6.2408,6.1158,5.9521,5.9252,5.8734,5.791,5.791,5.791,5.791,5.791,5.791,5.791,5.6601,5.6601,5.791,5.791,5.791,4.3442,4.3236,4.317,4.3335,4.3368,4.3368,4.3368,0.0,4.3368,4.3368,0.0,4.3598,4.3598,0.0,0.0,4.0292,4.317,4.4937,4.264,4.6422,5.1498,5.6921,5.9181,6.0649,6.1557,6.4451,6.7535,7.0603,7.2244,7.3207,7.3444,7.6229,7.7871,7.8065,8.0813,8.2289,8.2534,8.3843,8.4552,8.4552,8.4552,8.4552,8.4552,8.4552,8.4552,8.4485,8.2351,8.1453,8.1273,7.9161,7.8247,7.8181,7.9303,7.9027,7.8387,8.0317,7.9793,7.8398,8.0357,7.9766,7.812,7.815,7.8053,7.7891,7.7891,7.7891,7.7891,7.7891,7.7891,7.7891,7.7891,7.7891,7.7891,7.7891,7.6761,7.5631,7.5631,7.3395,7.1381,7.1174,7.0084,6.9238,6.9238,6.9112,6.9015,6.9015,6.9015,6.9015,6.9015,6.9015,6.8888,6.8732,6.7146,6.5317,6.3494,6.3244,6.1728,5.8461,5.9521,5.9668,5.8061,5.791,5.791,5.791,5.791,5.791,5.791,5.791,5.791,5.791,5.791,5.7735,4.3379,4.2513,4.1888,4.3072,4.3368,4.3368,0.0,0.0,0.0,4.3368,4.4288,4.5077,4.5077,4.5998,4.6648,4.5998,4.6681,4.7616,4.8737,5.2365,5.5919,5.8727,6.1196,6.3489,6.5405,6.8038,7.0389,7.228,7.3885,7.5312,7.6561,7.8407,8.0049,8.1318,8.1929,8.2819,8.4057,8.4409,8.4552,8.4552,8.4552,8.4552,8.4552,8.4552,8.4552,8.4485,8.3188,8.2655,8.2532,8.1197,8.0078,7.9336,8.0471,8.0214,7.9287,7.9793,7.9603,7.9313,7.974,7.9503,7.9171,7.9236,7.8614,7.7891,7.7891,7.7891,7.7891,7.7891,7.7891,7.7891,7.7891,7.7891,7.7891,7.7891,7.6761,7.5631,7.5631,7.4234,7.2694,7.1412,7.0965,7.0725,7.0725,6.9773,6.9015,6.9015,6.9015,6.9015,6.9015,6.9015,6.8449,6.6857,6.6275,6.5317,6.3494,6.1985,6.0897,6.02,5.9129,5.8336,5.791,5.791,5.791,5.791,5.791,5.791,5.791,5.791,5.791,5.791,5.791,5.693,4.2356,4.1724,4.1579,4.3006,4.3368,0.0,0.0,4.3927,4.442,4.442,4.5538,4.6524,4.6524,4.7708,4.8924,4.9615,5.0371,5.1981,5.5253,5.7293,5.9585,6.2557,6.4005,6.5451,6.6912,6.8992,7.1015,7.3139,7.5923,7.7916,7.8701,8.0171,8.1389,8.2182,8.3028,8.3772,8.4552,8.4552,8.4552,8.4552,8.4552,8.4552,8.4552,8.4552,8.4552,8.4485,8.3433,8.3019,8.2934,8.1707,8.1276,8.1323,8.1901,8.1353,8.0492,8.1088,8.0948,8.0351,8.0351,7.995,7.9418,7.886,7.8369,7.7891,7.7891,7.7891,7.7891,7.7891,7.7891,7.7891,7.7891,7.7891,7.7891,7.7891,7.733,7.6761,7.6761,7.5026,7.3488,7.3395,7.2747,7.2086,7.1293,7.0513,6.9897,6.9112,6.9015,6.9015,6.9015,6.9015,6.8605,6.7722,6.7564,6.6726,6.4885,6.3934,6.2548,6.0728,5.9789,5.8858,5.791,5.791,5.791,5.791,5.791,5.791,5.791,5.791,5.7409,5.6248,5.7409,5.6754,4.1557,4.1207,4.1338,4.3089,4.3444,0.0,4.3729,4.465,4.5538,4.5834,4.7247,4.8492,4.8492,4.9878,5.1423,5.2574,5.3757,5.6158,6.0827,6.1484,6.2717,6.6051,6.6618,6.7208,6.8421,6.9875,7.1683,7.409,7.7367,7.9496,7.9948,8.1521,8.2478,8.2676,8.3879,8.4552,8.4552,8.4552,8.4552,8.4552,8.4552,8.4552,8.4552,8.4552,8.4552,8.452,8.365,8.3342,8.3247,8.2304,8.2498,8.3277,8.3099,8.2427,8.1714,8.238,8.2211,8.1536,8.1381,8.0768,7.9985,7.8927,7.8564,7.8597,7.8311,7.8247,7.8247,7.7989,7.7891,7.7891,7.7891,7.7891,7.7891,7.7891,7.7891,7.7891,7.7562,7.559,7.4375,7.5768,7.4453,7.2694,7.1765,7.1055,7.0299,6.9238,6.9015,6.9015,6.9015,6.9015,6.9015,6.9015,6.8704,6.8008,6.6726,6.5717,6.3934,6.1301,6.0465,5.9399,5.8061,5.791,5.791,5.791,5.791,5.791,5.791,5.791,5.7082,5.5256,5.7082,5.6754,4.2232,4.1248,4.0528,4.3293,4.3718,0.0,4.4946,4.5373,4.5834,4.7083,4.9516,5.1423,5.1423,5.3692,5.5664,5.5829,5.596,5.8032,6.3687,6.4476,6.5035,6.678,6.7811,6.9417,7.2047,7.3297,7.459,7.6146,7.6714,7.7968,8.029,8.1993,8.3322,8.4271,8.4445,8.4552,8.4552,8.4552,8.4552,8.4552,8.4552,8.4552,8.4552,8.4552,8.4552,8.4552,8.442,8.4352,8.4352,8.4271,8.4267,8.4302,8.3349,8.2899,8.2658,8.181,8.2022,8.2658,8.1589,8.1882,8.2446,8.1266,8.0939,8.0651,7.9599,7.9361,7.9086,7.8247,7.7891,7.7891,7.7891,7.7891,7.7891,7.7891,7.7891,7.7562,7.6184,7.5631,7.5873,7.733,7.4312,7.1735,7.3037,7.1025,6.9238,6.9015,6.9015,6.9015,6.9015,6.9015,6.9015,6.9015,6.7434,6.6988,6.8576,6.4098,6.1702,6.2967,5.996,5.8186,5.791,5.791,5.791,5.791,5.791,5.791,5.791,5.791,5.7735,5.7584,5.776,5.6754,4.1477,4.1566,4.1984,4.3675,0.0,0.0,4.5454,4.6787,4.8398,4.9812,5.1719,5.3429,5.4316,5.6881,5.8854,5.8854,6.0235,6.247,6.5726,6.6153,6.7041,6.9375,7.0039,7.106,7.3152,7.379,7.4844,7.6907,7.7009,7.845,8.1792,8.3212,8.4144,8.4552,8.4552,8.4552,8.4552,8.4552,8.4552,8.4552,8.4552,8.4552,8.4552,8.4552,8.4552,8.4552,8.4552,8.4552,8.4552,8.4552,8.4552,8.4516,8.4057,8.3914,8.3843,8.3349,8.3455,8.3776,8.2621,8.2557,8.2822,8.1622,8.1273,8.1156,8.0651,8.0565,8.0306,7.9212,7.8874,7.8687,7.8053,7.7891,7.7891,7.7891,7.7891,7.7793,7.7097,7.632,7.584,7.6423,7.4344,7.2464,7.2202,7.1085,6.9991,6.9112,6.9015,6.9015,6.9015,6.9015,6.9015,6.9015,6.8293,6.8136,6.8888,6.5773,6.3659,6.3356,6.0897,5.8981,5.791,5.791,5.791,5.791,5.791,5.791,5.791,5.791,5.791,5.791,5.791,5.6754,4.1793,0.0,0.0,0.0,0.0,0.0,4.6633,4.8563,5.0765,5.2212,5.3988,5.5763,5.7243,5.9544,6.1484,6.2273,6.4871,6.7106,6.8126,6.8619,6.9671,7.1841,7.2104,7.2663,7.411,7.4274,7.5174,7.7388,7.7546,7.8697,8.1438,8.2919,8.393,8.4516,8.4552,8.4552,8.4552,8.4552,8.4552,8.4552,8.4552,8.4552,8.4552,8.4552,8.4552,8.4552,8.4552,8.4552,8.4552,8.4552,8.4552,8.4552,8.4552,8.4552,8.4552,8.4552,8.4552,8.4417,8.3384,8.3168,8.3251,8.2143,8.1922,8.208,8.1842,8.1716,8.1438,7.9956,7.9509,7.927,7.8247,7.7891,7.7891,7.7891,7.7891,7.7891,7.7891,7.6761,7.5631,7.5631,7.4093,7.2433,7.1412,7.0845,7.0177,6.9112,6.9015,6.9015,6.9015,6.9015,6.9015,6.9015,6.8576,6.8449,6.9015,6.6726,6.475,6.3494,6.1702,5.9789,5.8061,5.791,5.791,5.791,5.791,5.791,5.791,5.791,5.791,5.791,5.791,5.6754,0.0,0.0,0.0,4.6555,4.6786,4.701,4.9146,5.0765,5.2245,5.3725,5.6355,5.8821,6.0268,6.1714,6.3621,6.6416,6.9342,7.1315,7.1348,7.2597,7.3518,7.3617,7.3617,7.4175,7.5589,7.5721,7.6313,7.7824,7.7923,7.7956,7.8053,8.0166,8.2315,8.4485,8.4552,8.4552,8.4552,8.4552,8.4552,8.4552,8.4552,8.4552,8.4552,8.4552,8.4552,8.4552,8.4552,8.4552,8.4552,8.4552,8.4552,8.4552,8.4552,8.4552,8.4552,8.4552,8.4552,8.4381,8.3394,8.3647,8.4349,8.3321,8.3612,8.4278,8.3247,8.2914,8.2497,8.0098,7.9509,7.927,7.8247,7.7891,7.7891,7.7891,7.7891,7.7891,7.7891,7.6761,7.5631,7.5631,7.3283,7.1144,7.1144,6.9991,6.9015,6.9015,6.9015,6.9015,6.9015,6.9015,6.9015,6.9015,6.7305,6.6988,6.8888,6.5612,6.3356,6.3356,6.1702,5.9789,5.8061,5.791,5.791,5.791,5.791,5.791,5.791,5.791,5.791,5.791,5.791,5.6754,4.4595,4.5674,4.6777,4.7153,4.8262,4.9597,5.0923,5.2311,5.4316,5.7736,5.9215,6.0662,6.3062,6.464,6.658,6.9507,7.0855,7.1841,7.2795,7.3353,7.4044,7.4965,7.5096,7.5655,7.7069,7.72,7.7398,7.7858,7.7891,7.8247,7.8968,8.0393,8.1922,8.3467,8.4209,8.4552,8.4552,8.4552,8.4552,8.4552,8.4552,8.4552,8.4552,8.4552,8.4552,8.4552,8.4552,8.4552,8.4552,8.4552,8.4552,8.4552,8.4552,8.4552,8.4552,8.4552,8.4552,8.4516,8.414,8.4245,8.4516,8.414,8.4313,8.4485,8.4176,8.354,8.2651,8.1073,8.0132,7.927,7.8247,7.7891,7.7891,7.7891,7.7891,7.7891,7.7891,7.6009,7.3903,7.2861,7.1085,6.9773,6.9773,6.9334,6.9015,6.9015,6.9015,6.9015,6.9015,6.9015,6.9015,6.9015,6.8449,6.8293,6.8888,6.7879,6.6039,6.3494,6.2827,6.1041,5.8036,5.791,5.791,5.791,5.791,5.791,5.791,5.791,5.791,5.791,5.791,5.6754,4.5416,4.7034,4.8553,4.8166,4.9986,5.2063,5.2572,5.4251,5.6618,5.9939,6.1024,6.2273,6.5167,6.7304,6.9276,7.1183,7.2367,7.3353,7.4307,7.4866,7.5524,7.6444,7.6543,7.6904,7.7792,7.7891,7.7891,7.7891,7.7891,7.8214,7.8874,8.0393,8.1601,8.2307,8.3825,8.4552,8.4552,8.4552,8.4552,8.4552,8.4552,8.4552,8.4552,8.4552,8.4552,8.4552,8.4552,8.4552,8.4552,8.4552,8.4552,8.4552,8.4552,8.4552,8.4552,8.4552,8.4552,8.4552,8.4552,8.4552,8.4552,8.4552,8.4552,8.4552,8.4552,8.3861,8.2727,8.1601,8.0393,7.927,7.8247,7.7891,7.7891,7.7891,7.7891,7.7891,7.7891,7.559,7.315,7.2202,7.0754,6.9679,6.9141,6.9459,6.9554,6.9141,6.9015,6.9015,6.9015,6.9015,6.9015,6.9015,6.9015,6.9015,6.9015,6.9015,6.7722,6.4479,6.4343,6.2688,5.8981,5.8858,5.8586,5.791,5.791,5.791,5.791,5.791,5.791,5.791,5.791,5.6754,4.6736,4.8231,4.9438,4.9748,5.1949,5.4057,5.4258,5.6552,5.9051,6.0531,6.1977,6.3851,6.6745,6.9572,7.1635,7.1677,7.4011,7.5819,7.5885,7.7069,7.7891,7.7891,7.7891,7.7891,7.7891,7.7891,7.7891,7.7891,7.7989,7.7989,7.7989,8.02,8.1355,8.1355,8.3469,8.4552,8.4552,8.4552,8.4552,8.4552,8.4552,8.4552,8.4552,8.4552,8.4552,8.4552,8.4552,8.4552,8.4552,8.4552,8.4552,8.4552,8.4552,8.4552,8.4552,8.4552,8.4552,8.4552,8.4552,8.4552,8.4552,8.4552,8.4516,8.4449,8.4449,8.3683,8.2574,8.1438,8.0306,7.9178,7.8247,7.7891,7.7891,7.7891,7.7891,7.7891,7.7891,7.5695,7.3488,7.3376,7.2202,7.0754,6.9238,7.0084,7.0634,6.9238,6.9015,6.9015,6.9015,6.9015,6.9015,6.9015,6.9015,6.9015,6.9015,6.9015,6.8165,6.6275,6.6143,6.4479,6.0728,6.0609,5.9789,5.791,5.791,5.791,5.791,5.791,5.791,5.791,5.791,5.6754,4.8341,4.9141,5.0054,5.2351,5.3463,5.4623,5.6854,5.8788,6.0827,6.3325,6.4969,6.6876,6.9803,7.0986,7.2203,7.434,7.5326,7.6148,7.7233,7.7694,7.7891,7.7891,7.7891,7.7891,7.7891,7.7891,7.7891,7.7891,7.8626,7.912,7.912,8.1273,8.2574,8.2574,8.3825,8.4552,8.4552,8.4552,8.4552,8.4552,8.4552,8.4552,8.4552,8.4552,8.4552,8.4552,8.4552,8.4552,8.4552,8.4552,8.4552,8.4552,8.4552,8.4552,8.4552,8.4552,8.4552,8.4552,8.4552,8.4552,8.4552,8.4552,8.4001,8.3394,8.3394,8.2001,8.0306,8.0044,7.9212,7.8311,7.7989,7.7891,7.7891,7.7891,7.7891,7.7891,7.7891,7.6423,7.4421,7.2202,7.1381,7.0754,6.9238,6.9363,6.9459,6.9015,6.9015,6.9015,6.9015,6.9015,6.9015,6.9015,6.9015,6.9015,6.9015,6.9015,6.8165,6.6275,6.6143,6.4479,6.0728,6.0609,5.9789,5.791,5.791,5.791,5.791,5.791,5.791,5.791,5.791,5.6754,4.8354,4.927,5.0561,5.2937,5.4565,5.618,5.8829,6.0531,6.2372,6.5265,6.7008,6.8718,7.1085,7.2038,7.3189,7.5425,7.6313,7.7003,7.7792,7.7891,7.7891,7.7891,7.7891,7.7891,7.7891,7.7891,7.7891,7.7891,7.8968,7.9509,7.9509,8.1682,8.3024,8.3024,8.4001,8.4552,8.4552,8.4552,8.4552,8.4552,8.4552,8.4552,8.4552,8.4552,8.4552,8.4552,8.4552,8.4552,8.4552,8.4552,8.4552,8.4552,8.4552,8.4552,8.4552,8.4552,8.4552,8.4485,8.4001,8.414,8.4381,8.3397,8.3029,8.2914,8.2385,8.1023,7.9576,7.9509,7.8687,7.7891,7.7891,7.7891,7.7891,7.7891,7.7891,7.7891,7.7891,7.723,7.5977,7.3619,7.2633,7.1442,6.9334,6.9554,6.9773,6.9112,6.9015,6.9015,6.9015,6.9015,6.9015,6.9015,6.9015,6.9015,6.9015,6.9015,6.8576,6.7434,6.6567,6.475,6.1985,6.1015,5.9789,5.791,5.791,5.791,5.791,5.791,5.791,5.791,5.791,5.7499,4.7801,4.9229,5.1173,5.3299,5.5565,5.7992,6.0544,6.2166,6.3786,6.6482,6.8224,6.977,7.1682,7.2886,7.4208,7.5819,7.7102,7.7891,7.7891,7.7891,7.7891,7.7891,7.7891,7.7891,7.7891,7.7891,7.7891,7.7891,7.9027,7.9778,7.9778,8.1957,8.3247,8.3247,8.4071,8.4552,8.4552,8.4552,8.4552,8.4552,8.4552,8.4552,8.4552,8.4552,8.4552,8.4552,8.4552,8.4552,8.4552,8.4552,8.4552,8.4552,8.4552,8.4552,8.4552,8.4552,8.4552,8.4449,8.354,8.3683,8.4036,8.208,8.2036,8.2574,8.1519,8.0633,7.9879,7.9633,7.8874,7.815,7.7989,7.7891,7.7891,7.7891,7.7891,7.7891,7.7891,7.7891,7.7562,7.6217,7.4593,7.2725,7.0359,7.0754,7.0965,6.9554,6.9334,6.9238,6.9015,6.9015,6.9015,6.9015,6.9015,6.9015,6.9015,6.9015,6.9015,6.9015,6.7434,6.5717,6.3796,6.1985,6.0226,5.8312,5.8036,5.791,5.791,5.791,5.791,5.791,5.791,5.8496,4.8819,5.0268,5.267,5.7435,5.8022,5.8429,6.2624,6.4087,6.5035,6.6712,6.8224,7.0263,7.3777,7.4025,7.4537,7.7135,7.7759,7.7891,7.7891,7.7891,7.7891,7.7891,7.7891,7.7891,7.7891,7.7891,7.7891,7.7891,7.9846,8.0905,8.0905,8.3068,8.4313,8.4313,8.4449,8.4552,8.4552,8.4552,8.4552,8.4552,8.4552,8.4552,8.4552,8.4552,8.4552,8.4552,8.4552,8.4552,8.4552,8.4552,8.4552,8.4552,8.4552,8.4552,8.4552,8.4552,8.4552,8.4552,8.4381,8.3825,8.3247,8.2838,8.215,8.1519,8.1355,8.1107,8.077,7.9778,7.9327,7.9027,7.815,7.7891,7.7891,7.7891,7.7891,7.7891,7.7891,7.7891,7.7891,7.7562,7.5378,7.3712,7.4312,7.3681,7.2579,7.0965,7.0725,7.0299,6.9112,6.9015,6.9015,6.9015,6.9015,6.9015,6.9015,6.9015,6.9015,6.9015,6.8732,6.7592,6.5717,6.3934,6.1985,6.02,5.8734,5.791,5.791,5.791,5.791,5.791,5.791,5.8496,4.9914,5.0839,5.2417,5.6756,5.8567,6.0275,6.436,6.5449,6.6429,6.9238,7.0328,7.1662,7.4507,7.4679,7.521,7.7528,7.7891,7.7891,7.7891,7.7891,7.7891,7.7891,7.7891,7.7891,7.7891,7.7891,7.7891,7.7891,8.0023,8.1273,8.1273,8.3397,8.4552,8.4552,8.4552,8.4552,8.4552,8.4552,8.4552,8.4552,8.4552,8.4552,8.4552,8.4552,8.4552,8.4552,8.4552,8.4552,8.4552,8.4552,8.4552,8.4552,8.4552,8.4552,8.4552,8.4552,8.4552,8.4449,8.3931,8.379,8.3612,8.2462,8.215,8.2036,8.1438,8.0821,8.0219,7.9689,7.912,7.8531,7.8086,7.7891,7.7891,7.7891,7.7891,7.7891,7.7891,7.7891,7.7891,7.7891,7.6113,7.4779,7.5526,7.4485,7.2923,7.1381,7.0513,6.9773,6.9141,6.9015,6.9015,6.9015,6.9015,6.9015,6.9015,6.9015,6.9015,6.9015,6.8008,6.7016,6.6143,6.4343,6.2967,6.2126,5.9277,5.791,5.791,5.791,5.791,5.7935,5.8496,5.9301,5.0834,5.1658,5.2562,5.5369,5.8924,6.2595,6.6094,6.6861,6.7901,7.137,7.2473,7.3312,7.4898,7.5553,7.6377,7.7888,7.8208,7.8311,7.8311,7.8053,7.7891,7.7891,7.7891,7.7891,7.7891,7.7891,7.7891,7.7891,7.9756,8.0989,8.1239,8.3142,8.4313,8.4552,8.4552,8.4552,8.4552,8.4552,8.4552,8.4552,8.4552,8.4552,8.4552,8.4552,8.4552,8.4552,8.4552,8.4552,8.4552,8.4552,8.4552,8.4552,8.4552,8.4552,8.4552,8.4552,8.4552,8.4449,8.3612,8.3683,8.3896,8.2159,8.2229,8.2762,8.1601,8.0821,8.0098,7.9689,7.8968,7.8247,7.7989,7.7891,7.7891,7.7891,7.7891,7.7891,7.7891,7.7891,7.7891,7.7891,7.666,7.5631,7.5631,7.4485,7.3037,7.1852,7.0421,6.9334,6.9015,6.9015,6.9015,6.9015,6.9015,6.9015,6.9015,6.9015,6.9015,6.9015,6.7564,6.6698,6.6698,6.4913,6.3796,6.3356,6.008,5.8312,5.791,5.791,5.8032,5.8276,5.9106,6.018,5.1444,5.3299,5.478,5.6036,6.0128,6.471,6.8038,6.8748,6.9301,7.1079,7.3008,7.4726,7.5554,7.7366,7.8784,7.8801,7.9109,7.9361,7.9361,7.8564,7.7891,7.7891,7.7891,7.7891,7.7891,7.7891,7.7891,7.7891,7.9061,8.0132,8.1156,8.2462,8.354,8.4516,8.4552,8.4552,8.4552,8.4552,8.4552,8.4552,8.4552,8.4552,8.4552,8.4552,8.4552,8.4552,8.4552,8.4552,8.4552,8.4552,8.4552,8.4552,8.4552,8.4552,8.4552,8.4552,8.4552,8.4516,8.4449,8.3861,8.3099,8.2914,8.2949,8.2762,8.1601,8.1957,8.2229,8.0132,7.9418,7.9086,7.815,7.7891,7.7891,7.7891,7.7891,7.7891,7.7891,7.7891,7.7891,7.7891,7.666,7.5631,7.5631,7.4485,7.3407,7.3263,7.2,7.0513,6.9112,6.9015,6.9015,6.9015,6.9015,6.9015,6.9015,6.9015,6.9015,6.9015,6.8859,6.8732,6.8732,6.6857,6.502,6.3356,6.1444,5.9521,5.791,5.791,5.8398,5.9375,5.9472,6.057,5.263,5.3554,5.4706,5.9341,6.1593,6.3602,6.6724,6.8266,6.9623,7.1798,7.3953,7.5842,7.7025,7.7965,7.8912,8.015,8.0444,8.0565,8.0565,7.9633,7.8874,7.8874,7.8311,7.7891,7.7891,7.7891,7.7891,7.7891,7.8968,7.9689,8.0185,8.1957,8.3173,8.3612,8.4209,8.4552,8.4552,8.4552,8.4552,8.4552,8.4552,8.4552,8.4552,8.4552,8.4552,8.4552,8.4552,8.4552,8.4552,8.4552,8.4552,8.4552,8.4552,8.4552,8.4552,8.4552,8.4552,8.4552,8.4552,8.4313,8.3931,8.3931,8.354,8.2949,8.2497,8.1601,8.0736,7.9778,7.9027,7.8469,7.8086,7.7891,7.7891,7.7891,7.7891,7.7891,7.7891,7.7891,7.7891,7.7891,7.666,7.5631,7.5631,7.4485,7.315,7.2232,7.1566,7.0611,6.9199,6.9015,6.9015,6.9015,6.9015,6.9015,6.9015,6.9015,6.9015,6.9015,6.9015,6.9015,6.9015,6.7146,6.5717,6.502,6.3218,6.1638,6.0527,6.0527,6.0526,6.0424,6.1083,6.1839,5.3077,5.3904,5.5049,6.0248,6.2267,6.3352,6.4793,6.6506,6.8506,7.0913,7.3769,7.6066,7.7077,7.8074,7.9168,8.0642,8.0951,8.1208,8.1727,8.0736,7.9867,7.9509,7.912,7.8814,7.8469,7.8407,7.8407,7.8407,7.8781,7.9178,7.9509,8.1438,8.2651,8.2989,8.4001,8.4552,8.4552,8.4552,8.4552,8.4552,8.4552,8.4552,8.4552,8.4552,8.4552,8.4552,8.4552,8.4552,8.4552,8.4552,8.4552,8.4552,8.4552,8.4552,8.4552,8.4552,8.4552,8.4552,8.4552,8.4381,8.4071,8.4071,8.3359,8.2385,8.2036,8.0821,7.9418,7.912,7.8469,7.7891,7.7891,7.7891,7.7891,7.7891,7.7891,7.7891,7.7891,7.7891,7.7891,7.7891,7.6736,7.5447,7.5077,7.3749,7.2248,7.0784,7.0552,7.0191,6.9102,6.9015,6.9015,6.9015,6.9015,6.9015,6.9015,6.9015,6.9015,6.9015,6.9015,6.9015,6.9015,6.7722,6.6698,6.6143,6.5243,6.3873,6.2128,6.2635,6.2341,6.1522,6.2254,6.2791,5.2571,5.4698,5.6275,5.7454,6.1733,6.5007,6.2416,6.3453,6.5572,6.7639,7.1923,7.5241,7.5276,7.7809,7.9851,7.9886,8.0221,8.1057,8.2779,8.1957,8.0821,7.9599,8.0479,8.0736,7.9599,7.9509,7.9509,7.9509,7.8531,7.8373,7.9418,8.0651,8.1762,8.2914,8.4001,8.4552,8.4552,8.4552,8.4552,8.4552,8.4552,8.4552,8.4552,8.4552,8.4552,8.4552,8.4552,8.4552,8.4552,8.4552,8.4552,8.4552,8.4552,8.4552,8.4552,8.4552,8.4552,8.4552,8.4552,8.3861,8.3024,8.3024,8.2229,8.1107,7.9867,7.9509,7.927,7.8247,7.7989,7.7891,7.7891,7.7891,7.7891,7.7891,7.7891,7.7891,7.7891,7.7891,7.7891,7.7891,7.6678,7.5185,7.3747,7.2226,7.0737,6.9258,6.9015,6.9015,6.9015,6.9015,6.9015,6.9015,6.9015,6.9015,6.9015,6.9015,6.9015,6.9015,6.9015,6.9015,6.9015,6.9015,6.8008,6.6143,6.7319,6.6088,6.2128,6.3456,6.3526,6.2596,6.262,6.3206,5.1675,5.3228,5.4868,5.7465,6.0291,6.1978,6.0567,6.2406,6.5002,6.7162,6.9412,7.1952,7.5176,7.7147,7.8666,7.9736,8.0902,8.1561,8.1308,8.1228,8.0821,7.9599,7.9867,7.9956,7.9509,8.0185,8.0736,8.0736,8.0427,8.034,8.0651,8.1107,8.1438,8.1797,8.2879,8.3467,8.3467,8.4245,8.4552,8.4552,8.4552,8.4552,8.4552,8.4552,8.4552,8.4552,8.4552,8.4552,8.4552,8.4552,8.4552,8.4552,8.4552,8.4552,8.4552,8.4552,8.4552,8.4449,8.3755,8.3321,8.2838,8.2036,8.0989,7.9956,7.9599,7.9027,7.8407,7.8086,7.7891,7.7891,7.7891,7.7891,7.7891,7.7891,7.7891,7.7891,7.7891,7.7891,7.7891,7.7891,7.6697,7.5451,7.4999,7.3708,7.2216,7.064,7.0523,7.0065,6.9073,6.9015,6.9015,6.9015,6.9015,6.9015,6.9015,6.9015,6.9015,6.9015,6.9015,6.9422,7.0294,7.0324,7.0413,7.0638,6.9632,6.8376,6.6557,6.5586,6.4711,6.3767,6.3767,6.3962,5.126,5.2554,5.4127,5.6757,5.8341,5.912,5.883,6.0906,6.34,6.5203,6.7046,6.9164,7.1883,7.4271,7.6574,7.8926,8.0461,8.1288,8.1139,8.1603,8.1601,8.0905,8.0821,8.0821,8.0821,8.1519,8.1877,8.1877,8.1519,8.1273,8.1273,8.1716,8.1877,8.1877,8.3029,8.3612,8.3612,8.4209,8.4552,8.4552,8.4552,8.4552,8.4552,8.4552,8.4552,8.4552,8.4552,8.4552,8.4552,8.4552,8.4552,8.4552,8.4552,8.4313,8.3931,8.3469,8.3324,8.3215,8.2539,8.2036,8.1519,8.0821,7.9812,7.8968,7.8968,7.8469,7.7891,7.7891,7.7891,7.7891,7.7891,7.7891,7.7891,7.7891,7.7891,7.7891,7.7891,7.7891,7.7891,7.7891,7.6733,7.5663,7.5602,7.3955,7.2287,7.1299,7.0721,7.0006,6.9073,6.9015,6.9015,6.9015,6.9015,6.9015,6.9015,6.9015,6.9015,6.9015,6.9899,7.0743,7.153,7.1676,7.1952,7.2708,7.2034,7.1071,6.9739,6.8852,6.7478,6.5532,6.5532,6.5062,5.1111,5.2428,5.3708,5.5265,5.5979,5.6487,5.7201,5.9056,6.0907,6.2048,6.4798,6.691,6.6606,6.9816,7.3657,7.7342,7.9082,8.0378,8.1776,8.2587,8.2989,8.2914,8.2914,8.3024,8.3024,8.3064,8.3099,8.3099,8.2115,8.1485,8.1485,8.2497,8.3024,8.3024,8.3931,8.4449,8.4449,8.4516,8.4552,8.4552,8.4552,8.4552,8.4552,8.4552,8.4552,8.4552,8.4552,8.4516,8.4449,8.4449,8.4381,8.4313,8.4313,8.3755,8.2762,8.1635,8.1273,8.1239,8.1156,8.0393,7.9509,7.9418,7.872,7.7891,7.7891,7.7891,7.7891,7.7891,7.7891,7.7891,7.7891,7.7891,7.7891,7.7891,7.7891,7.7891,7.7891,7.7891,7.7891,7.7891,7.6743,7.5795,7.5795,7.3515,7.1538,7.1369,7.0277,6.9374,6.9044,6.9073,6.9073,6.9015,6.9015,6.9044,6.9102,6.9102,6.9131,6.9287,7.1439,7.2769,7.2784,7.2812,7.2883,7.2999,7.4027,7.3552,7.1598,7.2799,7.1386,6.7675,6.7675,6.6625,4.9671,5.0901,5.2138,5.2251,5.3012,5.4092,5.5415,5.7062,5.8847,6.0796,6.275,6.4826,6.7229,6.8199,6.9797,7.3534,7.7819,8.0277,7.9269,8.1308,8.2651,8.1797,8.2497,8.3024,8.3024,8.3683,8.4209,8.4209,8.3966,8.379,8.379,8.3286,8.3024,8.3024,8.3247,8.3394,8.3394,8.414,8.4552,8.4552,8.4552,8.4552,8.4552,8.4552,8.4552,8.4552,8.4552,8.4071,8.3394,8.3394,8.2879,8.2001,8.2001,8.1842,8.1601,8.1355,8.1273,8.1073,8.0219,7.9778,7.9327,7.8564,7.815,7.7891,7.7891,7.7891,7.7891,7.7891,7.7891,7.7891,7.7891,7.7891,7.7891,7.7891,7.7891,7.7891,7.7891,7.7891,7.7891,7.7891,7.7694,7.7398,7.7398,7.6874,7.5566,7.3241,7.352,7.2825,6.9403,6.9948,7.025,6.9073,6.9015,6.9374,7.0338,7.0523,7.0884,7.1823,7.2326,7.3101,7.4112,7.4123,7.4706,7.5675,7.4471,7.355,7.3085,7.1799,7.0543,6.9618,6.9618,6.8575,4.9185,5.0242,5.1177,5.0425,5.1287,5.2751,5.4369,5.5961,5.7646,5.9611,6.1338,6.2929,6.4463,6.6546,6.8555,7.0075,7.4976,7.8797,7.9316,8.0361,8.1506,8.2628,8.1922,8.2036,8.354,8.379,8.4071,8.4516,8.4552,8.4552,8.4552,8.4001,8.3719,8.3719,8.3719,8.3719,8.3719,8.4313,8.4552,8.4552,8.4552,8.4552,8.4552,8.4552,8.4313,8.3825,8.3825,8.3212,8.2229,8.2229,8.1797,8.1273,8.1273,8.0905,8.0479,8.0479,8.0479,8.0393,7.9689,7.9867,8.0044,7.8502,7.8311,7.8564,7.8053,7.7891,7.7891,7.7891,7.7891,7.7891,7.7891,7.7891,7.7891,7.7891,7.7891,7.7891,7.7891,7.7891,7.7891,7.7891,7.8482,7.8943,7.8943,7.8943,7.8408,7.674,7.657,7.5503,7.2241,7.256,7.2461,7.0884,7.064,7.0943,7.1638,7.1777,7.1978,7.2621,7.3824,7.4761,7.5522,7.558,7.582,7.6606,7.5529,7.4927,7.4927,7.3798,7.271,7.1785,7.1785,7.0723,4.9185,4.9896,5.0407,4.9425,5.0251,5.1784,5.3466,5.4849,5.6382,5.8327,5.986,6.0848,6.0912,6.4903,6.7964,6.7561,7.1894,7.6566,8.0195,7.9941,8.0642,8.3963,8.1773,8.1204,8.4036,8.354,8.3467,8.4449,8.4552,8.4552,8.4552,8.4552,8.4552,8.4552,8.4552,8.4552,8.4552,8.4552,8.4552,8.4552,8.4552,8.4659,8.4909,8.4909,8.4568,8.3951,8.3951,8.3315,8.221,8.221,8.2127,8.1961,8.1794,8.1161,8.042,8.0037,7.9936,8.0082,7.9666,8.0044,8.0427,7.8597,7.8564,7.912,7.8247,7.7891,7.7989,7.8417,7.8581,7.8581,7.8581,7.8581,7.8548,7.8614,7.8614,7.8581,7.8614,7.8614,7.8614,7.8614,7.9634,8.0427,8.0461,8.0395,8.0329,8.0064,7.8913,7.7432,7.5448,7.5224,7.4499,7.2818,7.2729,7.2759,7.3006,7.2953,7.3075,7.333,7.5349,7.6635,7.6635,7.6635,7.6635,7.6635,7.6635,7.6635,7.6635,7.6635,7.57,7.4,7.4,7.2887,4.9185,4.9315,4.9387,4.9222,4.9372,5.0007,5.1709,5.227,5.3316,5.6345,5.713,5.8214,6.0984,6.2874,6.5092,6.8238,7.0598,7.3915,7.9306,8.1003,8.209,8.3145,8.2838,8.2651,8.3173,8.3099,8.3467,8.4449,8.4552,8.4552,8.4552,8.4552,8.4552,8.4552,8.4552,8.4552,8.4552,8.4552,8.4552,8.4552,8.4552,8.5266,8.655,8.655,8.7158,8.8264,8.8264,8.7682,8.6655,8.6655,8.6102,8.5092,8.415,8.4241,8.4659,8.2336,8.2066,8.2584,8.0273,7.9027,7.8407,7.8086,7.8086,7.815,7.7989,7.7891,7.8417,8.085,8.154,8.154,8.154,8.154,8.161,8.1616,8.155,8.1552,8.1519,8.1518,8.1518,8.1518,8.1782,8.1885,8.1896,8.1878,8.1478,8.0248,7.9726,7.8407,7.561,7.5185,7.4477,7.2893,7.264,7.3175,7.4223,7.432,7.4751,7.5948,7.6349,7.6635,7.6635,7.6635,7.6635,7.6635,7.6635,7.6635,7.6635,7.6635,7.6465,7.6154,7.6154,7.4927,4.9185,5.0512,5.1709,5.0774,5.055,5.0774,5.1522,5.1709,5.2382,5.4775,5.5298,5.6046,5.8439,6.0015,6.2126,6.5704,6.9115,7.2332,7.5257,7.8192,8.0961,8.3578,8.2237,8.1601,8.2838,8.2385,8.2539,8.3612,8.4245,8.4552,8.4552,8.4552,8.4552,8.4552,8.4552,8.4552,8.4552,8.4552,8.498,8.5836,8.5836,8.6657,8.8155,8.8155,8.8228,8.839,8.839,8.7749,8.6716,8.6716,8.6381,8.5833,8.5339,8.5428,8.5677,8.3841,8.381,8.4438,8.2539,8.1625,8.115,8.0527,8.0693,8.1053,8.0427,8.0225,8.0521,8.1836,8.2198,8.2198,8.2198,8.2198,8.2165,8.217,8.2268,8.2193,8.2193,8.2193,8.2193,8.2193,8.2861,8.3382,8.343,8.4049,8.442,8.3712,8.2778,8.133,7.897,7.7832,7.6635,7.4978,7.4751,7.5035,7.5663,7.5692,7.5977,7.6606,7.6635,7.6635,7.6635,7.6635,7.6635,7.6635,7.6635,7.6635,7.6635,7.6635,7.6635,7.6635,7.6635,7.6013,5.0288,0.0,5.3915,5.2606,5.2008,5.1709,0.0,5.141,5.1597,5.3279,5.3616,5.4214,5.6195,5.7953,6.0159,6.3411,6.7669,7.099,7.212,7.5692,7.9721,8.3714,8.1887,8.0989,8.2838,8.1957,8.1716,8.2914,8.3504,8.379,8.379,8.4036,8.414,8.414,8.3896,8.379,8.379,8.4144,8.503,8.6521,8.6517,8.7655,8.9797,8.951,8.9133,8.8681,8.8681,8.8078,8.6901,8.6901,8.6901,8.6901,8.6635,8.6635,8.6778,8.5231,8.5248,8.6052,8.4501,8.3959,8.3767,8.2576,8.2847,8.341,8.2474,8.2691,8.325,8.325,8.325,8.325,8.325,8.325,8.325,8.325,8.3309,8.3253,8.3256,8.3245,8.3245,8.3245,8.4115,8.4888,8.4888,8.5936,8.6538,8.6166,8.4692,8.2988,8.1214,7.9516,7.8042,7.6693,7.6635,7.6635,7.6635,7.6635,7.6635,7.6635,7.6635,7.6635,7.6635,7.6635,7.6635,7.6635,7.6635,7.6635,7.6635,7.6635,7.6635,7.6635,7.6635,7.6635,0.0,5.4064,5.4214,5.4064,5.2868,5.1709,5.1709,5.0475,0.0,5.1522,5.1896,5.2868,5.5971,5.7953,6.0159,6.3411,6.6408,6.9319,7.243,7.5971,7.951,8.2758,8.2914,8.2838,8.3024,8.1957,8.1716,8.2914,8.2036,8.1519,8.1519,8.2539,8.3099,8.3099,8.2036,8.1519,8.1519,8.2782,8.4154,8.5457,8.555,8.7625,9.1365,9.0281,9.0542,9.1793,9.1793,9.1046,8.991,8.991,8.991,8.976,8.8689,8.8946,8.9588,8.6971,8.6716,8.7335,8.4874,8.3959,8.3767,8.2576,8.2301,8.2301,8.2198,8.4138,8.6341,8.6341,8.6341,8.6341,8.6341,8.6341,8.6341,8.6341,8.6374,8.6374,8.6407,8.6407,8.6407,8.6407,8.6472,8.6538,8.6538,8.6604,8.6166,8.4518,8.2843,8.1196,7.9558,7.7756,7.6693,7.6635,7.6635,7.6635,7.6635,7.6635,7.6635,7.6635,7.6635,7.6635,7.6635,7.6635,7.6635,7.6635,7.6635,7.6635,7.6635,7.6635,7.6635,7.6635,7.6635,7.6635,5.5522,5.6457,5.7018,5.5934,5.5186,5.4176,5.2157,5.1223,5.0662,5.0213,5.0138,5.1185,5.4513,5.5635,5.7803,6.3112,6.5711,6.8417,7.2352,7.6396,7.9586,8.1471,8.2446,8.3024,8.3024,8.1957,8.1438,8.1877,8.1519,8.1273,8.1273,8.1716,8.1601,8.0821,8.1073,8.1273,8.1273,8.2634,8.4127,8.555,8.6522,8.8268,9.0694,9.0229,9.0366,9.092,9.092,9.0617,0.0,9.0162,9.0162,9.0162,8.9695,8.9789,9.0,8.8189,8.7888,8.7982,8.6281,8.5633,8.5562,8.5173,8.496,8.496,8.496,8.5749,8.667,8.667,8.667,8.667,8.667,8.667,8.667,8.667,8.667,8.667,8.667,8.667,8.667,8.667,8.667,8.667,8.667,8.667,8.6505,8.5794,8.4322,8.2961,8.2402,8.0817,7.9368,7.8329,7.813,7.7726,7.6693,7.6635,7.6635,7.6635,7.6635,7.6635,7.6635,7.6635,7.6635,7.6635,7.6635,7.6635,7.6635,7.6635,7.6635,7.6635,7.6635,7.6635,5.7354,5.8214,5.8813,5.7654,5.6943,5.5971,5.3728,5.2868,5.2157,5.1036,5.0774,5.1634,5.4438,5.4962,5.6943,6.2963,6.4907,6.739,7.2239,7.6128,7.9121,8.0636,8.2417,8.3467,8.3467,8.2462,8.1762,8.1762,8.1073,8.0736,8.0736,8.0736,8.0219,7.9027,7.9812,8.0166,8.0166,8.1625,8.3299,8.525,8.6293,8.7944,9.0127,8.9789,8.9635,8.9635,8.9635,8.9444,8.9092,8.9092,8.9092,8.9092,8.9092,8.9092,8.8994,8.8197,8.7923,8.775,8.6929,8.667,8.667,8.667,8.667,8.667,8.667,8.667,8.667,8.667,8.667,8.667,8.667,8.667,8.667,8.667,8.667,8.667,8.667,8.667,8.667,8.667,8.667,8.667,8.667,8.667,8.6538,8.6002,8.4868,8.3916,8.3446,8.2346,8.1067,7.9319,7.9052,7.8675,7.744,7.695,7.6635,7.6635,7.6635,7.6635,7.6635,7.6635,7.6635,7.6635,7.6635,7.6635,7.6635,7.6635,7.6635,7.6635,7.6635,7.6635,5.9089,5.9089,5.9089,5.9089,5.7841,5.6569,5.6569,5.5335,5.4251,5.4214,5.4214,5.47,5.627,5.6569,5.8177,6.315,6.3972,6.6057,7.2053,7.5172,7.7795,8.0528,8.3066,8.4552,8.4552,8.3612,8.3024,8.3024,8.0821,7.9509,7.9509,7.9509,7.9027,7.7989,7.7989,7.8022,7.7891,7.937,8.1454,8.4184,8.4237,8.6418,9.0162,8.8994,8.8467,8.8467,8.8467,8.7716,8.667,8.667,8.667,8.667,8.667,8.667,8.667,8.667,8.667,8.667,8.667,8.667,8.667,8.667,8.667,8.667,8.667,8.667,8.667,8.667,8.667,8.667,8.667,8.667,8.667,8.667,8.667,8.667,8.667,8.667,8.667,8.667,8.667,8.667,8.667,8.667,8.6133,8.442,8.4224,8.3582,8.1911,8.164,8.1078,7.9308,7.9136,7.922,7.908,7.7609,7.6606,7.6606,7.6606,7.6635,7.6635,7.6635,7.6635,7.6635,7.6635,7.6635,7.6635,7.6635,7.6635,7.6635,7.6635,7.6635,5.9089,5.9089,5.9089,5.9089,5.8738,5.8027,5.6831,5.6195,5.556,5.4476,5.4214,5.47,5.627,5.7541,5.9467,6.2817,6.5322,6.8094,7.1795,7.5544,7.859,8.0617,8.3066,8.4552,8.4552,8.4313,8.379,8.3099,8.1601,8.0393,7.9509,8.0272,8.0219,7.912,7.9027,7.872,7.7989,7.937,8.0987,8.2779,8.3888,8.555,8.775,8.7397,8.7218,8.7218,8.7218,8.7004,8.667,8.667,8.667,8.667,8.667,8.667,8.667,8.667,8.667,8.667,8.667,8.667,8.667,8.667,8.667,8.667,8.667,8.667,8.667,8.667,8.667,8.667,8.667,8.667,8.667,8.667,8.667,8.667,8.667,8.667,8.667,8.667,8.667,8.667,8.667,8.667,8.6538,8.6035,8.6002,8.5729,8.5259,8.5194,8.4518,8.281,8.2726,8.2123,8.0928,8.0421,7.968,7.8397,7.8339,7.7842,7.6635,7.6635,7.6635,7.6635,7.6635,7.6635,7.6635,7.6635,7.6635,7.6635,7.6635,7.6635,6.0037,6.057,6.1056,6.1056,6.1056,6.0757,5.9747,5.9,5.8327,5.7354,5.6644,5.6681,5.8289,5.9411,6.1196,6.4531,6.6731,6.9145,7.2313,7.5975,7.8895,8.0324,8.2913,8.4552,8.4552,8.4552,8.4313,8.3683,8.2539,8.1273,7.9599,8.0185,8.0044,7.8968,7.8874,7.8564,7.7989,7.8779,7.9929,8.1376,8.2823,8.4302,8.5782,8.6374,8.667,8.667,8.667,8.667,8.667,8.667,8.667,8.667,8.667,8.667,8.667,8.667,8.667,8.667,8.667,8.667,8.667,8.667,8.667,8.667,8.667,8.667,8.667,8.667,8.667,8.667,8.667,8.667,8.667,8.667,8.667,8.667,8.667,8.667,8.667,8.667,8.667,8.667,8.667,8.667,8.667,8.667,8.667,8.667,8.667,8.667,8.6068,8.4354,8.4115,8.3791,8.2764,8.2007,8.0887,7.9244,7.9076,7.8354,7.6635,7.6635,7.6635,7.6635,7.6635,7.6635,7.6635,7.6635,7.6635,7.6635,7.6635,7.6635,6.142,6.2714,6.3935,6.3935,6.3935,6.3935,6.3935,6.2851,6.1841,6.1841,6.0607,5.9986,6.1494,6.1905,6.3281,6.7252,6.8147,6.958,7.3105,7.6403,7.879,7.9799,8.2661,8.4552,8.4552,8.4552,8.4552,8.4552,8.3612,8.2036,7.9778,7.9689,7.9212,7.815,7.8053,7.8086,7.7891,7.7891,7.8647,8.0127,8.1409,8.2856,8.4434,8.5815,8.6538,8.667,8.667,8.667,8.667,8.667,8.667,8.667,8.667,8.667,8.667,8.667,8.667,8.667,8.667,8.667,8.667,8.667,8.667,8.667,8.667,8.667,8.667,8.667,8.667,8.667,8.667,8.667,8.667,8.667,8.667,8.667,8.667,8.667,8.667,8.667,8.667,8.667,8.667,8.667,8.667,8.667,8.667,8.667,8.667,8.667,8.61,8.4518,8.4387,8.4387,8.4387,8.3014,8.1293,7.9421,7.9294,7.8489,7.6606,7.6635,7.6635,7.6635,7.6635,7.6635,7.6635,7.6635,7.6635,7.6635,7.6635,7.6635,6.0977,6.2461,6.3935,6.3935,6.3935,6.3935,6.3935,6.3711,6.3449,6.3449,6.315,6.2901,6.2826,6.3948,6.5259,6.6592,6.8965,7.1198,7.2797,7.6837,7.9612,7.9879,8.2661,8.4552,8.4552,8.4552,8.4552,8.4552,8.3612,8.2385,8.0989,8.0905,8.0393,7.9212,7.9212,7.8814,7.7989,7.7891,7.8647,8.0094,8.0423,8.1902,8.4401,8.473,8.5519,8.667,8.667,8.667,8.667,8.667,8.667,8.667,8.667,8.667,8.667,8.667,8.667,8.667,8.667,8.667,8.667,8.667,8.667,8.667,8.667,8.667,8.667,8.667,8.667,8.667,8.667,8.667,8.667,8.667,8.667,8.667,8.667,8.667,8.667,8.667,8.667,8.667,8.667,8.667,8.667,8.667,8.667,8.667,8.667,8.667,8.6538,8.6166,8.6133,8.6133,8.6133,8.5837,8.4291,8.1292,8.1169,7.9753,7.6746,7.6635,7.6635,7.6635,7.6635,7.6635,7.6635,7.6635,7.6635,7.6635,7.6635,7.6635,6.1913,6.4007,6.6076,6.6314,6.6403,6.6403,6.6403,6.573,6.5081,6.4846,6.4158,6.3643,6.3943,6.5349,6.6967,6.8553,7.0834,7.2797,7.3859,7.7417,7.9687,7.9084,8.1879,8.3576,8.3068,8.2958,8.2958,8.2958,8.1922,8.1073,8.0479,7.9901,7.9395,7.8814,7.8814,7.8469,7.7989,7.7891,7.8285,7.9074,7.9765,8.0883,8.2362,8.3053,8.4171,8.5552,8.5552,8.5979,8.667,8.667,8.667,8.667,8.667,8.667,8.667,8.667,8.667,8.667,8.667,8.667,8.667,8.667,8.667,8.667,8.667,8.667,8.667,8.667,8.667,8.667,8.667,8.667,8.667,8.667,8.667,8.667,8.667,8.667,8.667,8.667,8.667,8.667,8.667,8.667,8.667,8.667,8.667,8.667,8.667,8.667,8.667,8.667,8.667,8.667,8.667,8.5909,8.4413,8.1761,8.0881,7.9228,7.6746,7.6635,7.6635,7.6635,7.6635,7.6635,7.6635,7.6635,7.6635,7.6635,7.6635,7.6635,6.3054,6.5686,6.8335,6.8874,6.8993,6.8993,6.8993,6.7936,6.6746,6.6257,6.5019,6.4302,6.5089,6.6467,6.8378,7.0784,7.2524,7.3952,7.505,7.7952,7.9521,7.8604,8.1313,8.2879,8.1922,8.1682,8.1519,8.1519,8.0306,7.9509,7.9509,7.8564,7.7891,7.7891,7.7891,7.7891,7.7891,7.7891,7.7891,7.7924,7.914,7.9864,8.0127,8.131,8.2625,8.4006,8.4006,8.473,8.5913,8.6143,8.6275,8.6308,8.6571,8.667,8.667,8.667,8.667,8.667,8.667,8.667,8.667,8.667,8.667,8.667,8.667,8.667,8.667,8.667,8.667,8.667,8.667,8.667,8.667,8.667,8.667,8.667,8.667,8.667,8.667,8.667,8.667,8.667,8.667,8.667,8.667,8.667,8.667,8.667,8.667,8.667,8.667,8.667,8.667,8.6527,8.6275,8.4907,8.3288,8.1386,7.9853,7.8354,7.6635,7.6635,7.6635,7.6635,7.6635,7.6635,7.6635,7.6635,7.6635,7.6635,7.6635,7.6635,6.3,6.5413,6.8335,6.8874,6.8993,6.8993,6.8993,6.8833,6.8538,6.8001,6.7719,6.7299,6.6464,6.7621,6.9207,7.0485,7.1985,7.3501,7.4991,7.7952,7.9851,7.9687,8.2427,8.4278,8.414,8.3286,8.2762,8.2762,8.0736,7.9509,7.9509,7.8564,7.7891,7.7891,7.7891,7.7891,7.7891,7.7891,7.7891,7.7891,7.8088,7.8877,8.0094,8.0291,8.1146,8.2494,8.2494,8.2625,8.2888,8.4171,8.4697,8.4828,8.6143,8.667,8.667,8.667,8.667,8.667,8.667,8.667,8.667,8.667,8.667,8.667,8.667,8.667,8.667,8.667,8.667,8.667,8.667,8.667,8.667,8.667,8.667,8.667,8.667,8.667,8.667,8.667,8.667,8.667,8.667,8.667,8.667,8.667,8.667,8.667,8.667,8.667,8.667,8.667,8.667,8.6131,8.4677,8.4297,8.2775,7.9592,7.9198,7.8354,7.6635,7.6635,7.6635,7.6635,7.6635,7.6635,7.6635,7.6635,7.6635,7.6635,7.6635,7.6635,6.2452,6.4432,6.659,6.739,6.8309,6.8929,6.8626,6.8566,6.8335,6.7445,6.7979,6.8385,6.7543,6.9425,7.1346,7.1801,7.3172,7.4456,7.5134,7.7952,7.9651,7.9017,8.1704,8.3432,8.2733,8.2272,8.2036,8.2036,8.1073,8.0219,7.9509,7.912,7.8564,7.7989,7.7891,7.7891,7.7891,7.7891,7.7891,7.7891,7.7891,7.8252,7.8877,7.8877,7.9666,8.1014,8.1014,8.1475,8.2264,8.2888,8.3151,8.3217,8.3908,8.4171,8.4171,8.4171,8.4664,8.5387,8.5387,8.4869,8.4184,8.4184,8.4729,8.5408,8.5408,8.6019,8.667,8.667,8.667,8.667,8.667,8.667,8.667,8.667,8.667,8.667,8.667,8.667,8.667,8.667,8.667,8.667,8.667,8.667,8.667,8.667,8.667,8.667,8.667,8.667,8.667,8.667,8.667,8.6021,8.4297,8.3288,8.1761,7.9228,7.8219,7.7352,7.6635,7.6635,7.6635,7.6635,7.6635,7.6635,7.6635,7.6635,7.6635,7.6635,7.6635,7.6635,6.1719,6.3149,6.4542,6.5461,6.685,6.7896,6.764,6.7804,6.7745,6.6703,6.7493,6.8171,6.7534,7.0103,7.228,7.228,7.3956,7.5241,7.5241,7.7952,7.9586,7.8673,8.1457,8.3064,8.2159,8.1842,8.1797,8.208,8.1566,8.0905,8.0044,7.9452,7.8687,7.7989,7.7891,7.7891,7.7891,7.7891,7.7891,7.7891,7.7891,7.7891,7.7891,7.7891,7.8516,7.9535,7.9535,8.0127,8.1146,8.1508,8.1672,8.1705,8.2066,8.2198,8.2198,8.2198,8.2888,8.3776,8.3415,8.2762,8.2246,8.2248,8.2981,8.3843,8.3813,8.4658,8.5631,8.6035,8.61,8.6166,8.6571,8.667,8.667,8.667,8.667,8.667,8.667,8.667,8.667,8.667,8.667,8.667,8.667,8.667,8.667,8.667,8.667,8.667,8.667,8.667,8.667,8.667,8.667,8.6021,8.4297,8.3016,8.1386,7.9198,7.7978,7.6995,7.6635,7.6635,7.6635,7.6635,7.6635,7.6635,7.6635,7.6635,7.6635,7.6635,7.6635,7.6635,6.0868,6.1535,6.2853,6.3389,6.4342,6.5278,6.5695,6.6712,6.7283,6.6614,6.6551,6.6438,6.589,6.8462,7.0674,7.0674,7.3243,7.5241,7.5241,7.7952,7.9851,7.9851,8.256,8.4449,8.4381,8.354,8.3286,8.4278,8.2392,8.1273,8.119,7.9153,7.7989,7.7891,7.7891,7.7891,7.7891,7.7891,7.7891,7.7891,7.7891,7.7891,7.7891,7.7891,7.7957,7.8022,7.8022,7.8055,7.8252,7.9633,8.0225,8.0357,8.1672,8.2198,8.2198,8.2198,8.2264,8.2132,8.0784,8.1116,8.2212,8.2216,8.2313,8.2382,8.2329,8.242,8.2745,8.4049,8.4452,8.4823,8.6265,8.667,8.667,8.667,8.667,8.667,8.667,8.667,8.667,8.667,8.667,8.667,8.667,8.667,8.667,8.667,8.667,8.667,8.667,8.667,8.667,8.667,8.667,8.6021,8.4297,8.4063,8.2653,7.9329,7.9096,7.8219,7.6606,7.6635,7.6635,7.6635,7.6635,7.6635,7.6635,7.6635,7.6635,7.6635,7.6635,7.6635,6.0538,6.1055,6.1493,6.1714,6.2839,6.3795,6.3332,6.43,6.5127,6.4604,6.6109,6.7405,6.7214,6.9854,7.203,7.203,7.3849,7.5241,7.5241,7.706,7.8773,7.9807,8.1769,8.3446,8.4445,8.3612,8.2803,8.2469,8.1682,8.0905,8.0132,7.9361,7.8626,7.7989,7.7891,7.7891,7.7891,7.7891,7.7891,7.7891,7.7891,7.7891,7.7891,7.7891,7.7891,7.7891,7.7891,7.7891,7.7957,7.845,7.868,7.8746,7.9239,7.9436,7.9436,7.9436,8.0061,8.0653,7.9173,7.9075,7.9504,7.9503,8.0129,8.089,8.0787,8.1445,8.2276,8.2876,8.2941,8.3115,8.3647,8.4485,8.5194,8.5194,8.6002,8.667,8.667,8.667,8.667,8.667,8.667,8.667,8.667,8.667,8.667,8.667,8.667,8.667,8.667,8.667,8.667,8.667,8.667,8.6021,8.4297,8.418,8.2775,7.9329,7.9096,7.8354,7.6635,7.6635,7.6635,7.6635,7.6635,7.6635,7.6635,7.6635,7.6635,7.6635,7.6635,7.6635,5.8091,5.8633,5.901,5.9165,6.0511,6.1683,6.1304,6.2206,6.3176,6.3304,6.4986,6.6625,6.7124,6.9461,7.1423,7.1994,7.3421,7.4634,7.5169,7.6561,7.813,7.9736,8.127,8.2707,8.3929,8.2866,8.1869,8.1287,8.0905,8.0306,7.9509,7.9212,7.8626,7.7989,7.7891,7.7891,7.7891,7.7891,7.7891,7.7891,7.7891,7.7891,7.7891,7.7891,7.7891,7.7891,7.7891,7.7891,7.7891,7.7891,7.7891,7.7891,7.7891,7.7891,7.7891,7.7891,7.8516,7.9206,7.8252,7.7891,7.7891,7.7891,7.8581,7.9371,7.9371,8.0063,8.0922,8.1385,8.1481,8.161,8.2075,8.2876,8.3638,8.3625,8.442,8.5292,8.5762,8.5969,8.6068,8.6571,8.667,8.667,8.667,8.667,8.667,8.667,8.667,8.667,8.667,8.667,8.667,8.667,8.667,8.6275,8.5168,8.5054,8.3796,8.1008,8.0241,7.9228,7.749,7.6856,7.6402,7.5966,7.5937,7.5733,7.5326,7.5326,7.5326,7.5326,7.5326,7.5326,5.3599,5.4292,5.5287,5.5785,5.7261,5.8827,5.9706,6.0457,6.1411,6.2932,6.3325,6.386,6.5358,6.6964,6.855,7.021,7.1816,7.3386,7.4955,7.6489,7.8059,7.9665,8.1163,8.2328,8.2783,8.1372,8.0607,8.1067,8.0098,7.9418,7.9418,7.8469,7.7891,7.7891,7.7891,7.7891,7.7891,7.7891,7.7891,7.7891,7.7891,7.7891,7.7891,7.7891,7.7891,7.7891,7.7891,7.7891,7.7891,7.7891,7.7891,7.7891,7.7891,7.7891,7.7891,7.7891,7.7891,7.7891,7.7891,7.7891,7.7891,7.7891,7.7891,7.7891,7.7891,7.7891,7.8219,7.9667,8.0063,8.0295,8.1749,8.2147,8.215,8.2115,8.2149,8.2583,8.4028,8.4289,8.4725,8.6308,8.6571,8.6571,8.6571,8.6604,8.667,8.667,8.6571,8.6505,8.6505,8.6505,8.6538,8.6571,8.6637,8.6637,8.6604,8.6571,8.5811,8.4169,8.2527,8.0758,7.9107,7.7343,7.5878,7.4599,7.457,7.3959,7.2708,7.2708,7.2708,7.2708,7.2708,7.2708,5.4069,5.4058,5.4083,5.4137,5.5245,5.6278,5.6167,5.8111,5.9902,5.9995,6.1827,6.3539,6.3967,6.6198,6.8158,6.8622,7.1067,7.3087,7.3457,7.4884,7.6454,7.8023,7.8594,7.9059,7.9411,7.9405,7.9093,7.8364,7.8366,7.8407,7.8407,7.8053,7.7891,7.7891,7.7891,7.7891,7.7891,7.7891,7.7891,7.7891,7.7891,7.7891,7.7891,7.7891,7.7891,7.7891,7.7891,7.7891,7.7891,7.7891,7.7891,7.7891,7.7891,7.7891,7.7891,7.7891,7.7891,7.7891,7.7891,7.7891,7.7891,7.7891,7.7891,7.7891,7.7891,7.7891,7.8055,7.8482,7.8548,7.8614,7.9009,7.9866,8.0659,8.0657,8.1451,8.2314,8.2713,8.2767,8.2948,8.3382,8.4342,8.5001,8.5001,8.5988,8.667,8.667,8.4828,8.3415,8.3415,8.3415,8.3842,8.4894,8.6012,8.6209,8.5124,8.5026,8.3854,8.1106,8.0443,7.901,7.6264,7.5681,7.4749,7.3261,7.3261,7.3057,7.2708,7.2708,7.2708,7.2708,7.2708,7.2708,5.2157,5.2317,5.2547,5.2707,5.352,5.4284,5.3983,5.5728,5.7514,5.7672,5.9722,6.1648,6.229,6.4431,6.6269,6.6964,6.9211,7.1316,7.2672,7.3671,7.5062,7.7274,7.6953,7.6722,7.7131,7.7054,7.6859,7.629,7.6744,7.7036,7.7036,7.7595,7.7891,7.7891,7.7891,7.7891,7.7891,7.7891,7.7891,7.7891,7.7891,7.7891,7.7891,7.7891,7.7891,7.7891,7.7891,7.7891,7.7891,7.7891,7.7891,7.7891,7.7891,7.7891,7.7891,7.7891,7.7891,7.7891,7.7891,7.7891,7.7891,7.7891,7.7891,7.7891,7.7891,7.7891,7.7891,7.7891,7.7891,7.7891,7.7891,7.8581,7.9239,7.9239,7.9832,8.0592,8.1154,8.1353,8.1508,8.2071,8.2894,8.3486,8.3486,8.4277,8.4795,8.4795,8.3316,8.2198,8.2198,8.2198,8.2527,8.3382,8.4269,8.4434,8.3546,8.348,8.2664,8.0863,8.0111,7.8582,7.6237,7.5431,7.4082,7.1981,7.1981,7.172,7.1167,7.1167,7.1167,7.1167,7.1167,7.1167,4.9222,4.9949,5.0853,5.1291,5.2052,5.2698,0.0,5.3614,5.4744,5.5722,5.7324,5.8969,6.0304,6.1983,6.3661,6.518,6.6786,6.8855,7.1923,7.2636,7.3849,7.6454,7.5705,7.5115,7.5443,7.4843,7.4615,7.493,7.5343,7.5556,7.5556,7.6904,7.7661,7.7661,7.7825,7.7891,7.7891,7.7891,7.7891,7.7891,7.7891,7.7891,7.7891,7.7891,7.7891,7.7891,7.7891,7.7891,7.7891,7.7891,7.7891,7.7891,7.7891,7.7891,7.7891,7.7891,7.7891,7.7891,7.7891,7.7891,7.7891,7.7891,7.7891,7.7891,7.7891,7.7891,7.7891,7.7891,7.7891,7.7891,7.7891,7.7891,7.7891,7.7891,7.7891,7.8252,7.9634,7.9899,8.019,8.155,8.191,8.1968,8.1968,8.2099,8.2099,8.1771,8.1705,8.1705,8.1705,8.1705,8.1803,8.1968,8.1968,8.2034,8.2198,8.2066,8.1902,8.1738,8.0345,7.8821,7.7182,7.5687,7.362,7.1088,7.0831,7.0277,6.9238,6.9141,6.9015,6.9015,6.9015,6.8869,0.0,0.0,0.0,0.0,0.0,0.0,0.0,5.2606,5.356,5.3154,5.5547,5.7689,5.7324,5.9912,6.2502,6.3625,6.5144,6.6821,6.8748,7.1245,7.2636,7.1994,7.2743,7.3363,7.3434,7.4056,7.4514,7.459,7.4291,7.411,7.411,7.5425,7.6214,7.6214,7.7299,7.7891,7.7891,7.7891,7.7891,7.7891,7.7891,7.7891,7.7891,7.7891,7.7891,7.7891,7.7891,7.7891,7.7891,7.7891,7.7891,7.7891,7.7891,7.7891,7.7891,7.7891,7.7891,7.7891,7.7891,7.7891,7.7891,7.7891,7.7891,7.7891,7.7891,7.7891,7.7891,7.7891,7.7891,7.7891,7.7891,7.7891,7.7891,7.7891,7.7891,7.8055,7.8252,7.8384,7.8417,7.8746,7.9666,8.0488,8.0488,8.1475,8.1409,7.9107,7.8746,7.8746,7.8746,7.8746,7.9206,8.039,8.0488,8.0949,8.2099,8.1179,7.9995,7.8811,7.8514,7.7055,7.441,7.3955,7.2905,7.1113,6.9936,6.9789,7.0725,6.9554,6.9015,6.9015,6.9015,6.7881,0.0,0.0,0.0,0.0,0.0,0.0,0.0,0.0,0.0,0.0,0.0,5.5041,5.541,0.0,5.9562,6.1179,6.3202,6.5109,6.6678,6.8962,6.9889,6.832,7.0246,7.1709,7.1709,7.2461,7.287,7.287,7.3135,7.324,7.324,7.419,7.4734,7.4734,7.5425,7.6148,7.6839,7.6839,7.72,7.7891,7.7891,7.7891,7.7891,7.7891,7.7891,7.7891,7.7891,7.7891,7.7891,7.7891,7.7891,7.7891,7.7891,7.7891,7.7891,7.7891,7.7891,7.7891,7.7891,7.7891,7.7891,7.7891,7.7891,7.7891,7.7891,7.7891,7.7891,7.7891,7.7891,7.7891,7.7891,7.7891,7.7891,7.7891,7.7891,7.7891,7.7891,7.7891,7.7891,7.7891,7.8516,7.9009,7.9009,7.9601,7.9568,7.8121,7.7891,7.7891,7.7891,7.7891,7.8187,7.891,7.9009,7.9272,7.9995,7.9403,7.868,7.7957,7.7891,7.6895,7.467,7.4562,7.3903,7.2318,7.159,7.0903,7.018,6.9439,6.8356,6.7066,6.7709,6.7003,0.0,0.0,0.0,0.0,0.0,0.0,0.0,0.0,0.0,0.0,0.0,0.0,0.0,0.0,0.0,5.8608,6.0702,6.2683,6.4538,6.5894,6.6357,6.5394,6.7856,6.9747,7.0032,7.0552,7.0894,7.0894,7.1366,7.1715,7.2018,7.2566,7.2959,7.3255,7.3551,7.4241,7.5359,7.5392,7.5984,7.7069,7.7069,0.0,7.7496,7.7496,7.7661,7.7891,7.7891,7.7891,7.7891,7.7891,7.7891,7.7858,7.7299,7.7069,7.7069,7.7069,7.7069,7.7069,7.7069,7.7069,7.7069,7.7069,7.7069,7.7135,7.7398,7.7496,0.0,7.7825,7.7891,7.7891,7.7891,7.7891,7.7891,7.7891,7.7891,7.7891,7.7891,7.7891,7.7891,7.7891,7.7891,7.7891,7.7891,7.7891,7.7891,7.7891,7.7891,7.7891,7.7891,7.7891,7.7891,7.7891,7.7891,7.7891,7.7891,7.7891,7.7891,7.7891,7.7891,7.723,7.5631,7.5631,7.4974,7.3559,7.3227,7.1955,6.9562,6.9366,6.7938,6.5504,6.5728,6.528,0.0,0.0,0.0,0.0,0.0,0.0,0.0,0.0,0.0,0.0,0.0,0.0,0.0,0.0,0.0,0.0,5.7177,5.8223,6.1149,6.1684,6.229,6.3503,6.518,6.6786,6.8158,6.8893,6.9282,6.9282,6.7912,6.7568,6.8811,6.9397,0.0,0.0,0.0,7.3748,7.3912,7.3912,7.4011,7.4175,7.4175,7.48,7.6017,7.6017,7.6707,7.7891,7.7891,7.7891,7.7891,7.7891,7.7891,7.7661,7.5129,7.4175,7.4175,7.4175,7.4175,7.4175,7.4175,0.0,0.0,7.4175,7.4175,7.4406,7.5655,7.6017,7.628,7.7562,7.7891,7.7891,7.7891,7.7891,7.7891,7.7891,7.7891,7.7891,7.7891,7.7891,7.7891,7.7891,7.7891,7.7891,7.7891,7.7891,7.7891,7.7891,7.7891,7.7891,7.7891,7.7891,7.7891,7.7891,7.7891,0.0,7.7891,7.7891,7.7891,7.7891,7.7891,7.723,7.5631,7.5631,7.495,7.3528,7.2197,7.14,7.1057,6.9844,6.8381,6.6739,6.3307,6.1106,0.0,0.0,0.0,0.0,0.0,0.0,0.0,0.0,0.0,0.0,0.0,0.0,0.0,0.0,0.0,0.0,5.563,5.6509,5.6011,5.7332,5.858,5.9211,6.1505,6.3254,6.3931,6.5858,6.711,6.711,6.7608,6.8129,6.875,6.8361,6.8473,6.9148,7.0131,7.1031,7.1897,7.221,7.286,7.3682,7.3682,7.4011,7.457,7.457,7.4899,7.5458,7.5458,7.5458,7.5458,7.5458,7.5458,7.5326,0.0,0.0,0.0,0.0,7.3682,7.3682,7.3682,7.3682,7.3682,7.3682,7.3682,7.3814,7.4406,7.457,7.4702,7.5293,7.5458,7.5458,7.5458,7.6082,7.6674,7.6674,7.7299,7.7891,7.7891,7.7891,7.7891,7.7891,7.7891,0.0,7.6806,7.7365,7.7891,7.7891,7.7891,7.7891,7.7891,7.7891,7.7891,7.7891,7.7891,7.7891,7.7891,7.7891,0.0,0.0,0.0,7.73,7.5825,7.576,0.0,0.0,0.0,7.0286,6.7692,6.7119,0.0,0.0,5.8598,5.7064,0.0,0.0,0.0,0.0,0.0,0.0,0.0,0.0,0.0,0.0,0.0,0.0,0.0,0.0,0.0,0.0,5.355,5.4081,5.1775,5.3666,5.5536,5.6297,5.8366,6.0078,6.0935,6.3075,6.4395,6.4395,6.5716,6.6864,6.7705,6.6777,6.6582,6.744,6.7886,6.8661,6.9664,7.0165,7.0965,7.1943,7.2146,7.2399,7.2795,7.2985,7.3321,7.3682,7.3682,7.3682,7.3682,7.3682,7.3682,7.3518,7.1907,7.1282,7.1282,7.1282,7.1282,7.1282,7.1282,7.1282,7.1282,7.1282,7.1282,7.1348,7.1742,7.1874,7.2038,7.286,7.309,7.3189,7.3584,7.4471,7.5228,7.5228,7.6017,7.674,7.674,7.674,7.674,7.674,7.674,7.6444,7.5392,7.6082,7.674,7.674,7.7069,7.7332,7.7332,7.7661,7.7891,7.7891,7.7891,7.7891,7.7891,7.7891,7.7726,7.7332,7.7332,7.6707,7.526,7.4833,7.3617,7.1545,7.0296,6.7954,0.0,0.0,0.0,0.0,0.0,0.0,0.0,0.0,0.0,0.0,0.0,0.0,0.0,0.0,0.0,0.0,0.0,0.0,0.0,0.0,0.0,0.0,0.0,0.0,4.945,5.116,5.3396,5.6091,5.643,5.7724,6.0721,6.1113,6.1149,6.1149,6.0564,6.1411,6.4352,6.3601,6.4455,6.7372,6.7439,6.7508,6.7542,6.7611,6.7575,6.7643,6.8256,6.9302,7.0664,7.1297,7.2334,7.3682,7.3682,7.3682,7.3682,7.3682,7.3682,7.3123,6.7435,6.5199,6.5199,6.5199,6.5199,6.5199,6.5199,6.5199,6.5199,6.5199,6.5199,6.5462,6.6843,6.7271,6.7863,7.0756,7.1545,7.1907,7.3321,7.3715,7.3748,7.3748,7.3781,7.3814,7.3814,7.3814,7.3814,7.3814,7.3814,7.3814,7.3748,7.3781,7.3814,7.3814,7.4997,0.0,7.5852,7.7069,7.7891,7.7891,7.7891,7.7891,7.7891,7.7891,7.7332,7.5951,7.5852,7.5228,7.3814,7.24,7.1578,7.1479,6.7304,6.441,6.2865,0.0,0.0,0.0,0.0,0.0,0.0,0.0,0.0,0.0,0.0,0.0,0.0,0.0,0.0,0.0,0.0,0.0,0.0,0.0,0.0,0.0,0.0,0.0,0.0,4.9612,5.0795,5.1987,5.2787,5.4121,5.619,5.7331,5.8366,5.9401,6.0205,6.1085,6.2098,6.1887,6.2185,6.3206,6.4593,6.5393,6.5393,6.675,6.7475,6.7475,6.767,6.8037,6.8475,6.872,6.9076,6.9472,6.9008,6.8798,6.875,6.8118,6.7304,6.6252,6.4279,6.2898,6.2076,6.2076,6.2076,6.2076,6.2076,6.2076,6.2076,6.2076,6.2734,6.3588,6.4049,6.4871,6.5857,6.6876,6.7139,6.7271,6.7764,6.8586,6.9539,7.0493,7.1512,7.2499,7.3452,7.3682,7.3682,7.3682,7.1315,6.9276,6.9276,7.092,7.2236,7.2236,7.3485,7.4406,7.4406,7.48,7.5096,7.5096,7.5096,7.5096,7.5096,7.5096,7.4899,7.4439,7.4406,7.3288,7.0855,7.0263,6.8652,6.5841,6.3325,6.0892,5.8566,0.0,0.0,0.0,0.0,0.0,0.0,0.0,0.0,0.0,0.0,0.0,0.0,0.0,0.0,0.0,0.0,0.0,0.0,0.0,0.0,0.0,0.0,0.0,0.0,0.0,0.0,4.9685,5.0428,0.0,5.305,5.4121,5.5155,5.6154,5.7153,5.7938,5.8509,5.9079,5.965,6.0185,6.2099,6.3136,6.3136,6.4478,6.5115,6.5212,6.5389,6.5778,6.6331,6.6513,6.6925,6.7405,6.6607,6.6257,6.6089,6.3059,6.1441,6.0817,6.0817,6.0474,5.9857,5.9604,5.9459,5.9459,5.9232,5.9117,5.9117,5.9117,5.99,6.0817,6.0817,6.148,6.2341,6.2871,6.2837,6.2865,6.3884,6.4838,6.589,6.7369,6.8454,6.9408,7.0361,7.0559,7.0427,6.9868,6.7468,6.5693,6.6219,6.7896,6.9145,6.9145,7.0822,7.2104,7.2104,7.3025,7.3682,7.3682,7.3682,7.3682,7.3682,7.3682,7.3255,7.217,7.2104,7.0789,6.783,6.6712,6.4608,6.132,5.9314,5.6881,0.0,0.0,0.0,0.0,0.0,0.0,0.0,0.0,0.0,0.0,0.0,0.0,0.0,0.0,0.0,0.0,0.0,0.0,0.0,0.0,0.0,0.0,0.0,0.0,0.0,0.0,0.0,4.9027,4.9165,0.0,0.0,0.0,0.0,5.173,5.173,5.2337,5.3835,5.5333,5.6832,5.8295,5.9864,6.0649,6.0649,6.0828,6.0899,6.0899,6.1621,6.2741,6.4177,6.4608,6.5656,6.6959,6.6167,6.5862,6.5384,5.8901,5.6516,5.7049,5.7049,5.7431,5.7954,5.7206,5.6948,5.6818,5.6177,5.5965,5.5965,5.5965,5.6418,5.6883,5.6984,5.7051,0.0,0.0,5.8712,5.892,6.1693,6.245,6.2799,6.4279,6.4608,6.464,6.4706,6.4706,6.4246,6.2602,6.245,6.2832,6.4147,0.0,6.464,6.4706,6.7106,6.8948,6.9013,7.1545,7.3353,7.3353,7.3419,7.3452,7.3452,7.3386,7.2137,6.9309,6.9079,6.7731,6.4838,6.201,5.9807,5.8229,5.5266,0.0,0.0,0.0,0.0,0.0,0.0,0.0,0.0,0.0,0.0,0.0,0.0,0.0,0.0,0.0,0.0,0.0,0.0,0.0,0.0,0.0,0.0,0.0,0.0,0.0,0.0,4.3752,4.4402,4.6149,4.6094,4.6985,0.0,0.0,0.0,0.0,0.0,0.0,5.2301,5.2693,5.3086,5.3478,5.5012,5.5797,5.5797,5.8152,5.9294,5.9329,6.0668,6.1233,6.1172,6.1298,6.1241,6.1068,6.0175,5.9741,5.9438,5.5447,5.3517,5.3153,5.3153,5.264,5.1812,5.1649,5.1594,5.1484,5.0835,5.0541,5.0481,4.9999,5.0334,5.1003,5.2112,0.0,0.0,0.0,0.0,5.5438,5.6684,5.7505,5.8328,5.9807,6.0169,6.0465,6.1517,6.1747,6.0662,5.7013,5.721,5.7736,5.698,5.8689,0.0,6.1583,6.326,6.4805,6.589,6.7633,6.875,6.875,6.9704,7.0361,7.0361,6.9375,6.8422,6.7665,6.6613,6.4739,6.1846,6.0005,5.7341,5.3659,0.0,0.0,0.0,0.0,0.0,0.0,0.0,0.0,0.0,0.0,0.0,0.0,0.0,0.0,0.0,0.0,0.0,0.0,0.0,0.0,0.0,0.0,0.0,0.0,0.0,0.0,0.0,4.0935,4.2072,4.3817,4.3802,4.4381,0.0,0.0,0.0,0.0,0.0,0.0,0.0,0.0,0.0,5.066,5.2194,5.3015,5.3015,5.4763,5.5655,5.5655,5.6511,5.7112,5.7415,5.7415,5.7569,5.7717,5.6624,5.534,5.3862,5.2142,5.1342,5.1164,0.0,0.0,0.0,0.0,4.9985,4.9886,4.9256,4.9043,4.8989,4.8606,0.0,0.0,0.0,0.0,0.0,0.0,0.0,5.1834,5.2498,5.3068,5.3823,5.527,5.5599,5.5993,5.744,5.6713,5.5249,5.3376,5.371,5.4182,5.3627,5.5485,0.0,0.0,0.0,6.2109,6.2931,6.4838,6.612,6.612,6.6876,6.7369,6.7369,6.6613,6.5561,6.4312,6.349,6.1484,5.79,5.6388,5.3856,0.0,0.0,0.0,0.0,0.0,0.0,0.0,0.0,0.0,0.0,0.0,0.0,0.0,0.0,0.0,0.0,0.0,0.0,0.0,0.0,0.0,0.0,0.0,0.0,0.0,0.0,0.0,0.0,0.0,4.0015,4.1621,0.0,0.0,0.0,0.0,0.0,0.0,0.0,0.0,0.0,0.0,0.0,0.0,0.0,5.0589,5.016,5.0981,5.1409,5.1409,5.1623,5.2366,5.3563,5.3563,5.4267,5.5374,5.3827,0.0,4.92,4.8929,0.0,0.0,0.0,0.0,0.0,0.0,0.0,0.0,0.0,0.0,0.0,0.0,0.0,0.0,0.0,0.0,0.0,0.0,0.0,0.0,0.0,0.0,4.9812,5.1029,5.1356,5.175,5.2705,5.0886,4.9411,5.0653,5.1062,5.1463,0.0,0.0,0.0,0.0,0.0,0.0,6.03,6.2701,6.4443,6.4608,6.4805,6.4936,6.4936,6.4575,6.3292,6.0794,6.0103,5.7966,5.399,5.2278,0.0,0.0,0.0,0.0,0.0,0.0,0.0,0.0,0.0,0.0,0.0,0.0,0.0,0.0,0.0,0.0,0.0,0.0,0.0,0.0,0.0,0.0,0.0,0.0,0.0,0.0,0.0,0.0,0.0,0.0,0.0,0.0,0.0,0.0,0.0,0.0,0.0,0.0,0.0,0.0,0.0,0.0,0.0,0.0,0.0,0.0,0.0,0.0,0.0,0.0,5.1088,5.1515,5.1127,5.1127,5.1023,5.0627,4.8441,4.7472,4.7313,4.5487,0.0,0.0,0.0,0.0,0.0,0.0,0.0,0.0,0.0,0.0,0.0,0.0,0.0,0.0,0.0,0.0,0.0,0.0,0.0,0.0,0.0,0.0,4.8037,4.8327,4.8779,4.8804,4.7267,0.0,0.0,0.0,0.0,0.0,0.0,0.0,0.0,0.0,0.0,0.0,5.8426,6.0366,6.1846,6.2997,6.4213,6.4936,6.4936,6.2734,6.1155,6.0662,5.721,5.4588,0.0,0.0,0.0,0.0,0.0,0.0,0.0,0.0,0.0,0.0,0.0,0.0,0.0,0.0,0.0,0.0,0.0,0.0,0.0,0.0,0.0,0.0,0.0,0.0,0.0,0.0,0.0,0.0,0.0,0.0,0.0,0.0,0.0,0.0,0.0,0.0,0.0,0.0,0.0,0.0,0.0,0.0,0.0,0.0,0.0,0.0,0.0,0.0,0.0,0.0,0.0,0.0,0.0,0.0,0.0,0.0,0.0,0.0,4.5352,4.4308,0.0,0.0,0.0,0.0,0.0,0.0,0.0,0.0,0.0,0.0,0.0,0.0,0.0,0.0,0.0,0.0,0.0,0.0,0.0,0.0,0.0,0.0,0.0,0.0,0.0,0.0,0.0,0.0,0.0,0.0,0.0,0.0,0.0,0.0,0.0,0.0,0.0,0.0,0.0,0.0,5.481,5.7013,5.8656,5.9422,6.0037,6.0465,6.0465,5.9183,5.7953,5.6682,5.4289,0.0,0.0,0.0,0.0,0.0,0.0,0.0,0.0,0.0,0.0,0.0,0.0,0.0,0.0,0.0,0.0,0.0,0.0,0.0,0.0,0.0,0.0,0.0,0.0,0.0,0.0,0.0,0.0,0.0,0.0,0.0,0.0,0.0,0.0,0.0,0.0,0.0,0.0,0.0,0.0,0.0,0.0,0.0,0.0,0.0,0.0,0.0,0.0,0.0,0.0,0.0,0.0,0.0,0.0,0.0,0.0,0.0,0.0,0.0,4.2417,4.1346,0.0,0.0,0.0,0.0,0.0,0.0,0.0,0.0,0.0,0.0,0.0,0.0,0.0,0.0,0.0,0.0,0.0,0.0,0.0,0.0,0.0,0.0,0.0,0.0,0.0,0.0,0.0,0.0,0.0,0.0,0.0,0.0,0.0,0.0,0.0,0.0,0.0,0.0,0.0,0.0,5.1785,5.3922,5.5702,5.6256,5.6393,5.6393,5.6393,5.6026,5.4952,5.2812,5.1705,0.0,0.0,0.0,0.0,0.0,0.0,0.0,0.0,0.0,0.0,0.0,0.0,0.0,0.0,0.0,0.0,0.0,0.0,0.0,0.0,0.0,0.0,0.0,0.0,0.0,0.0,0.0,0.0,0.0,0.0,0.0,0.0,0.0,0.0,0.0,0.0,0.0,0.0,0.0,0.0,0.0,0.0,0.0,0.0,0.0,0.0,0.0,0.0,0.0,0.0,0.0,0.0,0.0,0.0,0.0,0.0,0.0,0.0,0.0,0.0,0.0,0.0,0.0,0.0,0.0,0.0,0.0,0.0,0.0,0.0,0.0,0.0,0.0,0.0,0.0,0.0,0.0,0.0,0.0,0.0,0.0,0.0,0.0,0.0,0.0,0.0,0.0,0.0,0.0,0.0,0.0,0.0,0.0,0.0,0.0,0.0,0.0,0.0,0.0,0.0,0.0,5.139,5.2114,5.333,5.6059,5.6393,5.6393,5.6393,5.5073,5.3593,5.2112,0.0,0.0,0.0,0.0,0.0,0.0,0.0,0.0,0.0,0.0,0.0,0.0,0.0,0.0,0.0,0.0,0.0,0.0,0.0,0.0,0.0,0.0,0.0,0.0,0.0,0.0,0.0,0.0,0.0,0.0,0.0,0.0,0.0,0.0,0.0,0.0,0.0,0.0,0.0,0.0,0.0,0.0,0.0,0.0,0.0,0.0,0.0,0.0,0.0,0.0,0.0,0.0,0.0,0.0,0.0,0.0,0.0,0.0,0.0,0.0,0.0,0.0,0.0,0.0,0.0,0.0,0.0,0.0,0.0,0.0,0.0,0.0,0.0,0.0,0.0,0.0,0.0,0.0,0.0,0.0,0.0,0.0,0.0,0.0,0.0,0.0,0.0,0.0,0.0,0.0,0.0,0.0,0.0,0.0,0.0,0.0,0.0,0.0,0.0,0.0,0.0,0.0,4.7806,4.9549,5.1061,5.2278,5.3133,5.3659,5.3659,5.2344,5.1211,5.0514,0.0,0.0,0.0,0.0,0.0,0.0,0.0,0.0,0.0,0.0,0.0,0.0,0.0,0.0,0.0,0.0,0.0,0.0,0.0,0.0,0.0,0.0,0.0,0.0,0.0,0.0,0.0,0.0,0.0,0.0,0.0,0.0,0.0,0.0,0.0,0.0,0.0,0.0,0.0,0.0,0.0,0.0,0.0,0.0,0.0,0.0,0.0,0.0,0.0,0.0,0.0,0.0,0.0,0.0,0.0,0.0,0.0,0.0,0.0,0.0,0.0,0.0,0.0,0.0,0.0,0.0,0.0,0.0,0.0,0.0,0.0,0.0,0.0,0.0,0.0,0.0,0.0,0.0,0.0,0.0,0.0,0.0,0.0,0.0,0.0,0.0,0.0,0.0,0.0,0.0,0.0,0.0,0.0,0.0,0.0,0.0,0.0,0.0,0.0,0.0,0.0,0.0,4.5406,4.7247,4.8661,4.9089,5.0009,5.0634,5.0634,4.9713,4.9004,4.8658,0.0,0.0,0.0,0.0,0.0,0.0,0.0,0.0,0.0,0.0,0.0,0.0,0.0,0.0,0.0,0.0,0.0,0.0,0.0,0.0,0.0,0.0,0.0,0.0,0.0,0.0,0.0,0.0,0.0,0.0,0.0,0.0,0.0,0.0,0.0,0.0,0.0,0.0,0.0,0.0,0.0,0.0,0.0,0.0,0.0,0.0,0.0,0.0,0.0,0.0,0.0,0.0,0.0,0.0,0.0,0.0,0.0,0.0,0.0,0.0,0.0,0.0,0.0,0.0,0.0,0.0,0.0,0.0,0.0,0.0,0.0,0.0,0.0,0.0,0.0,0.0,0.0,0.0,0.0,0.0,0.0,0.0,0.0,0.0,0.0,0.0,0.0,0.0,0.0,0.0,0.0,0.0,0.0,0.0,0.0,0.0,0.0,0.0,0.0,0.0,0.0,0.0,4.5308,4.5505,4.6064,4.7445,4.7669,4.7669,4.7669,4.7669,4.7335,0.0,0.0,0.0,0.0,0.0,0.0,0.0,0.0,0.0,0.0,0.0,0.0,0.0,0.0,0.0,0.0,0.0,0.0,0.0,0.0,0.0,0.0,0.0,0.0,0.0,0.0,0.0,0.0,0.0,0.0,0.0,0.0,0.0,0.0,0.0,0.0,0.0,0.0,0.0,0.0,0.0,0.0,0.0,0.0,0.0,0.0,0.0,0.0,0.0,0.0,0.0,0.0,0.0,0.0,0.0,0.0,0.0,0.0,0.0,0.0,0.0,0.0,0.0,0.0,0.0,0.0,0.0,0.0,0.0,0.0,0.0,0.0,0.0,0.0,0.0,0.0,0.0,0.0,0.0,0.0,0.0,0.0,0.0,0.0,0.0,0.0,0.0,0.0,0.0,0.0,0.0,0.0,0.0,0.0,0.0,0.0,0.0,0.0,0.0,0.0,0.0,0.0,0.0,4.3992,4.488,4.5636,4.6097,4.7017,4.7781,4.8246,4.698,4.6599,4.7593,0.0,0.0,0.0,0.0,0.0,0.0,0.0,0.0,0.0,0.0,0.0,0.0,0.0,0.0,0.0,0.0,0.0,0.0,0.0,0.0,0.0,0.0,0.0,0.0,0.0,0.0,0.0,0.0,0.0,0.0,0.0,0.0,0.0,0.0,0.0,0.0,0.0,0.0,0.0,0.0,0.0,0.0,0.0,0.0,0.0,0.0,0.0,0.0,0.0,0.0,0.0,0.0,0.0,0.0,0.0,0.0,0.0,0.0,0.0,0.0,0.0,0.0,0.0,0.0,0.0,0.0,0.0,0.0,0.0,0.0,0.0,0.0,0.0,0.0,0.0,0.0,0.0,0.0,0.0,0.0,0.0,0.0,0.0,0.0,0.0,0.0,0.0,0.0,0.0,0.0,0.0,0.0,0.0,0.0,0.0,0.0,0.0,0.0,0.0,0.0,0.0,0.0,0.0,4.4124,4.4683,4.4683,4.5472,4.6171,4.6589,4.5458,4.5316,4.6927,0.0,0.0,0.0,0.0,0.0,0.0,0.0,0.0,0.0,0.0,0.0,0.0,0.0,0.0,0.0,0.0,0.0,0.0,0.0,0.0,0.0,0.0,0.0,0.0,0.0,0.0,0.0,0.0,0.0,0.0,0.0,0.0,0.0,0.0,0.0,0.0,0.0,0.0,0.0,0.0,0.0,0.0,0.0,0.0,0.0,0.0,0.0,0.0,0.0,0.0,0.0,0.0,0.0,0.0,0.0,0.0,0.0,0.0,0.0,0.0,0.0,0.0,0.0,0.0,0.0,0.0,0.0,0.0,0.0,0.0,0.0,0.0,0.0,0.0,0.0,0.0,0.0,0.0,0.0,0.0,0.0,0.0,0.0,0.0,0.0,0.0,0.0,0.0,0.0,0.0,0.0,0.0,0.0,0.0,0.0,0.0,0.0,0.0,0.0,0.0,0.0,0.0,0.0,4.3368,4.3368,4.3368,4.3368,4.3368,4.3422,4.3389,4.3927,4.511,4.3596,0.0,0.0,0.0,0.0,0.0,0.0,0.0,0.0,0.0,0.0,0.0,0.0,0.0,0.0,0.0,0.0,0.0,0.0,0.0,0.0,0.0,0.0,0.0,0.0,0.0,0.0,0.0,0.0,0.0,0.0,0.0,0.0,0.0,0.0,0.0,0.0,0.0,0.0,0.0,0.0,0.0,0.0,0.0,0.0,0.0,0.0,0.0,0.0,0.0,0.0,0.0,0.0,0.0,0.0,0.0,0.0,0.0,0.0,0.0,0.0,0.0,0.0,0.0,0.0,0.0,0.0,0.0,0.0,0.0,0.0,0.0,0.0,0.0,0.0,0.0,0.0,0.0,0.0,0.0,0.0,0.0,0.0,0.0,0.0,0.0,0.0,0.0,0.0,0.0,0.0,0.0,0.0,0.0,0.0,0.0,0.0,0.0,0.0,0.0,0.0,0.0,0.0,4.3368,4.3368,4.3368,4.3368,4.3518,4.3878,4.3929,4.4495,4.5766,4.3254,0.0,0.0,0.0,0.0,0.0,0.0,0.0,0.0,0.0,0.0,0.0,0.0,0.0,0.0,0.0,0.0,0.0,0.0,0.0,0.0,0.0,0.0,0.0,0.0,0.0,0.0,0.0,0.0,0.0,0.0,0.0,0.0,0.0,0.0,0.0,0.0,0.0,0.0,0.0,0.0,0.0,0.0,0.0,0.0,0.0,0.0,0.0,0.0,0.0,0.0,0.0,0.0,0.0,0.0,0.0,0.0,0.0,0.0,0.0,0.0,0.0,0.0,0.0,0.0,0.0,0.0,0.0,0.0,0.0,0.0,0.0,0.0,0.0,0.0,0.0,0.0,0.0,0.0,0.0,0.0,0.0,0.0,0.0,0.0,0.0,0.0,0.0,0.0,0.0,0.0,0.0,0.0,0.0,0.0,0.0,0.0,0.0,0.0,0.0,0.0,0.0,0.0,4.2513,4.3368,4.3368,4.3539,4.3808,4.4115,4.4412,4.4983,4.6013,4.3406,0.0,0.0,0.0,0.0,0.0,0.0,0.0,0.0,0.0,0.0,0.0,0.0,0.0,0.0,0.0,0.0,0.0,0.0,0.0,0.0,0.0,0.0,0.0,0.0,0.0,0.0,0.0,0.0,0.0,0.0,0.0,0.0,0.0,0.0,0.0,0.0,0.0,0.0,0.0,0.0,0.0,0.0,0.0,0.0,0.0,0.0,0.0,0.0,0.0,0.0,0.0,0.0,0.0,0.0,0.0,0.0,0.0,0.0,0.0,0.0,0.0,0.0,0.0,0.0,0.0,0.0,0.0,0.0,0.0,0.0,0.0,0.0,0.0,0.0,0.0,0.0,0.0,0.0,0.0,0.0,0.0,0.0,0.0,0.0,0.0,0.0,0.0,0.0,0.0,0.0,0.0,0.0,0.0,0.0,0.0,0.0,0.0,0.0,0.0,0.0,0.0,0.0,0.0,4.3138,4.3335,4.3808,4.4165,4.4265,4.489,4.54,4.5697,0.0,0.0,0.0,0.0,0.0,0.0,0.0,0.0,0.0,0.0,0.0,0.0,0.0,0.0,0.0,0.0,0.0,0.0,0.0,0.0,0.0,0.0,0.0,0.0,0.0,0.0,0.0,0.0,0.0,0.0,0.0,0.0,0.0,0.0,0.0,0.0,0.0,0.0,0.0,0.0,0.0,0.0,0.0,0.0,0.0,0.0,0.0,0.0,0.0,0.0,0.0,0.0,0.0,0.0,0.0,0.0,0.0,0.0,0.0,0.0,0.0,0.0,0.0,0.0,0.0,0.0,0.0,0.0,0.0,0.0,0.0,0.0,0.0,0.0,0.0,0.0,0.0,0.0,0.0,0.0,0.0,0.0,0.0,0.0,0.0,0.0,0.0,0.0,0.0,0.0,0.0,0.0,0.0,0.0,0.0,0.0,0.0,0.0,0.0,0.0,0.0,0.0,0.0,0.0,4.1987,4.3236,4.3808,4.4363,4.489,4.5514,4.541,4.419,0.0,0.0,0.0,0.0,0.0,0.0,0.0,0.0,0.0,0.0,0.0,0.0,0.0,0.0]}],[{"header":{"parameterUnit":"kt","parameterCategory":2,"dx":1,"dy":1,"la1":29.285339999999998,"la2":30.599998999999997,"lo1":-89.70041500000002,"lo2":-87.6738589999976,"nx":112,"ny":82,"refTime":"2022-09-26T06:00:00:Z","depth":0,"parameterNumber":2,"parameterNumberName":"V-component_of_WINDS"},"data":[-4.0284,-3.9222,-3.8159,-3.7364,-3.6338,-3.5264,-3.4909,-3.3354,-3.2126,-3.238,-3.103,-2.9432,-2.825,-2.7088,-2.5932,-2.452,-2.3498,-2.2038,0.0,-1.7511,-1.5802,-1.5153,-1.5108,-1.5242,-1.521,-1.5477,-1.5705,-1.5678,-1.5846,-1.69,-1.8797,-1.8089,-1.9644,-2.3922,-2.6313,-2.7367,-2.7351,-2.7374,-2.8499,-3.0652,-3.0647,-3.0644,-3.0774,-3.0774,-3.0774,-3.0761,-3.0724,-3.0785,-3.1196,-3.7352,-4.0915,-4.1581,-3.3855,-3.4529,-4.0216,-4.3579,-4.4868,-4.4355,-4.0687,-3.9284,-3.947,-4.0868,-4.139,-4.1927,-4.4251,-4.497,-4.497,-4.497,-4.497,-4.497,-4.497,-4.5947,-4.6747,-4.5291,-4.7081,-4.9025,-4.8347,-4.9983,-5.2096,-5.4303,-5.5256,-5.6248,-5.7735,-5.791,-5.791,-5.791,-5.791,-5.791,-5.791,-5.9006,-5.9668,-5.9668,-6.1301,-6.2688,-6.3356,-6.502,-6.6567,-6.7879,-6.8576,-6.9015,-6.9015,-6.9015,-6.9015,-6.9015,-6.9554,-6.9773,-6.9773,-7.1678,-7.2086,-7.1144,-7.317,-7.2518,-3.7086,-3.5816,-3.4687,-3.3921,-3.3061,-3.2305,-3.1963,-3.0729,-2.969,-3.0125,-2.8984,-2.7583,-2.6436,-2.6011,-2.5064,-2.2789,-2.2969,-2.2472,0.0,-1.857,-1.7589,-1.7049,-1.6357,-1.6311,-1.7109,-1.7158,-1.7441,-1.8052,-1.8581,-1.9549,-2.137,-2.0823,-2.2437,-2.6606,-2.7236,-2.7402,-2.745,-2.8211,-2.919,-3.074,-3.0732,-3.0632,-3.0774,-3.0774,-3.0774,-3.0749,-3.0775,-3.1606,-3.3811,-4.1635,-4.4962,-4.4274,-3.7945,-3.9281,-4.4962,-4.4962,-4.2924,-4.0331,-4.1407,-4.1197,-4.0537,-4.2118,-4.2635,-4.2825,-4.4441,-4.497,-4.497,-4.497,-4.497,-4.497,-4.497,-4.5928,-4.6747,-4.5291,-4.7727,-5.0146,-4.9495,-5.0953,-5.3206,-5.5279,-5.5765,-5.6248,-5.7735,-5.791,-5.791,-5.791,-5.791,-5.791,-5.791,-5.8981,-5.9668,-5.9668,-6.1844,-6.3106,-6.2548,-6.475,-6.6698,-6.8008,-6.8605,-6.9015,-6.9015,-6.9015,-6.9015,-6.9015,-6.943,-6.9773,-6.9773,-7.1678,-7.2116,-7.1144,-7.317,-7.2518,-3.2249,-3.1437,-3.1205,-2.8604,-2.9023,-2.9724,-2.8788,-2.8503,-2.8124,-2.7038,-2.6763,-2.6436,-2.5302,-2.4374,-2.3007,-2.0539,-2.1589,0.0,0.0,-1.8226,-1.9242,-2.0055,-1.9471,-1.9411,-2.0438,-2.0594,-2.1295,-2.297,-2.1877,-2.1382,-2.1933,-2.3045,-2.4832,-2.7401,-2.7378,-2.7475,-2.7513,-2.9587,-3.074,-3.0767,-3.0724,-3.0774,-3.0774,-3.0774,-3.0774,-3.0749,-3.0775,-3.3474,-3.8269,-4.2966,-4.4943,-4.4887,-4.497,-4.4913,-4.4943,-4.4981,-3.8812,-3.2114,-4.1598,-4.4854,-4.4819,-4.4989,-4.497,-4.497,-4.497,-4.497,-4.497,-4.497,-4.497,-4.497,-4.497,-4.497,-4.497,-4.497,-4.6747,-4.9004,-5.0975,-5.3026,-5.5256,-5.7409,-5.776,-5.791,-5.791,-5.791,-5.791,-5.791,-5.791,-5.791,-5.791,-5.791,-5.791,-5.8061,-6.1184,-6.2548,-6.0871,-6.407,-6.6143,-6.6143,-6.7879,-6.9015,-6.9015,-6.9015,-6.9015,-6.9015,-7.0421,-7.1025,-7.1025,-7.1174,-7.1174,-7.1025,-7.1025,-7.1025,-3.0314,-2.9528,-2.888,-2.8439,-2.7977,-2.7623,-2.7373,-2.662,-2.6198,-2.6692,-2.6178,0.0,0.0,0.0,-2.445,-2.3766,0.0,-2.3687,-2.1672,-2.1191,-2.1426,-2.2171,-2.1606,-2.0658,-1.9479,-2.0154,-2.0932,-2.1746,-2.3027,-2.4208,-2.5034,-2.553,-2.6246,-2.7429,-2.7349,-2.8237,-2.9842,-3.0375,-3.0746,-3.075,-3.0697,-3.0774,-3.0774,-3.0774,-3.0774,-3.0933,-3.3157,-3.5663,-3.8252,-4.2988,-4.4818,-4.497,-4.4857,-4.4876,-4.4913,-4.4912,-3.892,-3.2114,-4.1598,-4.4887,-4.491,-4.4914,-4.497,-4.497,-4.497,-4.497,-4.497,-4.497,-4.497,-4.497,-4.497,-4.6096,-4.6914,-4.5291,-4.8984,-5.2189,-4.9658,-5.2052,-5.4769,-5.5434,-5.5588,-5.6095,-5.7584,-5.791,-5.791,-5.791,-5.791,-5.791,-5.791,-5.791,-5.8461,-5.9789,-6.0753,-6.1702,-6.2548,-6.475,-6.6143,-6.6143,-6.7879,-6.9015,-6.9015,-6.9015,-6.9015,-6.9015,-6.9459,-6.9554,-6.9554,-7.0634,-7.0634,-6.9554,-6.9554,-6.9554,-2.795,-2.7197,-2.682,-2.6915,-2.6537,-2.6086,-2.6086,-2.5565,-2.5302,-2.59,0.0,0.0,0.0,0.0,0.0,0.0,-2.4849,-2.4998,-2.3481,-2.3338,-2.3438,-2.3494,-2.3335,-2.2444,-2.0462,-2.1369,-2.232,-2.3089,-2.4725,-2.5801,-2.6331,-2.697,-2.7185,-2.7437,-2.8301,-2.9457,-3.0727,-3.0772,-3.0658,-3.0774,-3.0774,-3.0774,-3.0774,-3.0774,-3.0774,-3.0946,-3.5533,-3.7673,-3.8252,-4.3016,-4.497,-4.4819,-4.4856,-4.2517,-3.9423,-4.3447,-4.1338,-3.7453,-4.2948,-4.4844,-4.4988,-4.4895,-4.497,-4.497,-4.497,-4.497,-4.497,-4.497,-4.497,-4.497,-4.497,-4.5779,-4.6412,-4.514,-4.8512,-5.1232,-4.884,-5.1552,-5.4614,-5.4614,-5.5434,-5.6425,-5.7735,-5.791,-5.791,-5.791,-5.791,-5.791,-5.791,-5.791,-5.8312,-5.9399,-6.02,-6.1444,-6.3218,-6.4343,-6.5584,-6.7276,-6.7564,-6.8165,-6.9015,-6.9015,-6.9015,-6.9015,-6.9015,-6.9015,-6.9015,-6.9897,-6.9897,-6.9015,-6.9015,-6.9015,-2.5589,-2.4962,-2.4924,-2.5019,-2.5038,-2.5038,-2.5038,0.0,-2.5038,-2.5038,0.0,-2.5171,-2.5171,0.0,0.0,-2.338,-2.4924,-2.5814,-2.4247,-2.5336,-2.5957,-2.5046,-2.5273,-2.4812,-2.3015,-2.3618,-2.4581,-2.5697,-2.6295,-2.6645,-2.655,-2.7557,-2.815,-2.7836,-2.9613,-3.0767,-3.0653,-3.0724,-3.0774,-3.0774,-3.0774,-3.0774,-3.0774,-3.0774,-3.0774,-3.0959,-3.7096,-3.8851,-3.7898,-4.2535,-4.427,-4.4233,-4.4639,-3.9833,-3.3273,-4.181,-4.423,-4.3457,-4.4543,-4.49,-4.4876,-4.4441,-4.4611,-4.497,-4.497,-4.497,-4.497,-4.497,-4.497,-4.497,-4.497,-4.497,-4.497,-4.497,-4.658,-4.8182,-4.8182,-5.1392,-5.428,-5.4614,-5.6248,-5.7584,-5.7584,-5.7735,-5.791,-5.791,-5.791,-5.791,-5.791,-5.791,-5.8061,-5.8186,-5.9668,-6.1444,-6.3218,-6.3521,-6.5048,-6.8449,-6.7276,-6.7146,-6.8888,-6.9015,-6.9015,-6.9015,-6.9015,-6.9015,-6.9015,-6.9015,-6.9015,-6.9015,-6.9015,-6.9112,-2.5171,-2.4545,-2.4184,-2.4867,-2.5038,-2.5038,0.0,0.0,0.0,-2.5038,-2.557,-2.6025,-2.6025,-2.6557,-2.6797,-2.6557,-2.6816,-2.694,-2.6324,-2.9026,-3.0837,-3.0084,-2.9025,-2.7936,-2.6925,-2.5947,-2.5619,-2.6308,-2.6892,-2.7411,-2.7866,-2.8344,-2.8938,-3.0,-3.0428,-3.0759,-3.0802,-3.0723,-3.0774,-3.0774,-3.0774,-3.0774,-3.0774,-3.0774,-3.0774,-3.0959,-3.4884,-3.5939,-3.5459,-3.9383,-4.0362,-3.9555,-4.3465,-4.3779,-4.238,-4.423,-4.0123,-3.4486,-4.2175,-4.4981,-4.4565,-4.1909,-4.2906,-4.497,-4.497,-4.497,-4.497,-4.497,-4.497,-4.497,-4.497,-4.497,-4.497,-4.497,-4.658,-4.8182,-4.8182,-5.0308,-5.2573,-5.4303,-5.4947,-5.5256,-5.5256,-5.6754,-5.791,-5.791,-5.791,-5.791,-5.791,-5.791,-5.8461,-5.9935,-6.0465,-6.1444,-6.3218,-6.475,-6.5878,-6.6567,-6.7722,-6.8605,-6.9015,-6.9015,-6.9015,-6.9015,-6.9015,-6.9015,-6.9015,-6.9015,-6.9015,-6.9015,-6.9015,-6.9679,-2.4208,-2.4089,-2.3885,-2.483,-2.5038,0.0,0.0,-2.5361,-2.5646,-2.5646,-2.6291,-2.6861,-2.6861,-2.7544,-2.8246,-2.8645,-2.9082,-2.9709,-3.0785,-3.258,-3.354,-3.3087,-3.2437,-3.1394,-3.0142,-2.9463,-2.9053,-2.8442,-2.8387,-2.8359,-2.8645,-2.9378,-3.0026,-3.0727,-3.0631,-3.0698,-3.0774,-3.0774,-3.0774,-3.0774,-3.0774,-3.0774,-3.0774,-3.0774,-3.0774,-3.0959,-3.4987,-3.6529,-3.6061,-3.5739,-3.4919,-3.452,-3.6894,-4.0783,-4.4847,-4.4948,-4.1914,-3.7896,-3.7896,-3.9427,-4.1563,-4.2373,-4.3665,-4.497,-4.497,-4.497,-4.497,-4.497,-4.497,-4.497,-4.497,-4.497,-4.497,-4.497,-4.5779,-4.658,-4.658,-4.9189,-5.1457,-5.1392,-5.237,-5.3341,-5.4458,-5.5588,-5.6601,-5.7735,-5.791,-5.791,-5.791,-5.791,-5.8336,-5.9129,-5.9252,-6.008,-6.1844,-6.2827,-6.4207,-6.5983,-6.6988,-6.8008,-6.9015,-6.9015,-6.9015,-6.9015,-6.9015,-6.9015,-6.9015,-6.9015,-6.9334,-7.0084,-6.9334,-6.9773,-2.2681,-2.3077,-2.3388,-2.4378,-2.483,0.0,-2.5247,-2.5779,-2.6291,-2.6462,-2.7278,-2.7856,-2.7856,-2.8797,-2.9689,-3.0354,-3.1037,-3.2423,-3.5118,-3.5498,-3.5483,-3.5491,-3.5235,-3.4429,-3.3187,-3.3142,-3.2857,-3.164,-3.0866,-3.0317,-3.009,-3.1293,-3.166,-3.0706,-3.0737,-3.0774,-3.0774,-3.0774,-3.0774,-3.0774,-3.0774,-3.0774,-3.0774,-3.0774,-3.0774,-3.0972,-3.4863,-3.6454,-3.6197,-3.2213,-3.064,-3.0723,-3.0657,-3.5414,-4.2085,-4.2201,-4.2115,-4.1097,-3.3294,-3.4076,-3.9011,-4.2409,-4.3549,-4.3567,-4.4081,-4.427,-4.427,-4.48,-4.497,-4.497,-4.497,-4.497,-4.497,-4.497,-4.497,-4.497,-4.546,-4.8388,-5.0167,-4.8037,-4.9983,-5.2573,-5.3834,-5.4769,-5.5918,-5.7584,-5.791,-5.791,-5.791,-5.791,-5.791,-5.791,-5.8162,-5.8858,-6.008,-6.1015,-6.2827,-6.545,-6.6275,-6.7434,-6.8888,-6.9015,-6.9015,-6.9015,-6.9015,-6.9015,-6.9015,-6.9015,-6.9554,-7.0725,-6.9554,-6.9773,-2.037,-2.0904,-2.1549,-2.2898,-2.4109,0.0,-2.595,-2.6196,-2.6462,-2.7183,-2.8588,-2.9689,-2.9689,-3.0999,-3.2138,-3.2233,-3.2309,-3.3505,-3.677,-3.7225,-3.7548,-3.8168,-3.6627,-3.5944,-3.7306,-3.5749,-3.498,-3.5508,-3.5366,-3.4714,-3.3052,-3.5652,-3.5154,-3.088,-3.0736,-3.0774,-3.0774,-3.0774,-3.0774,-3.0774,-3.0774,-3.0774,-3.0774,-3.0774,-3.0774,-3.0774,-3.1354,-3.1538,-3.1538,-3.088,-3.0671,-3.0684,-3.0749,-3.1408,-3.2352,-3.2226,-3.2309,-3.2144,-3.1115,-3.4757,-3.9767,-3.898,-3.8606,-3.9118,-4.1216,-4.1754,-4.2272,-4.427,-4.497,-4.497,-4.497,-4.497,-4.497,-4.497,-4.497,-4.546,-4.7374,-4.8182,-4.7872,-4.5779,-5.0124,-5.3811,-5.2096,-5.4993,-5.7584,-5.791,-5.791,-5.791,-5.791,-5.791,-5.791,-5.791,-5.9399,-5.9789,-5.8312,-6.2714,-6.502,-6.3796,-6.6885,-6.8732,-6.9015,-6.9015,-6.9015,-6.9015,-6.9015,-6.9015,-6.9015,-6.9015,-6.9112,-6.9238,-6.9141,-6.9773,-1.9121,-1.9826,-2.0704,-2.2494,0.0,0.0,-2.5979,-2.7013,-2.7943,-2.8759,-2.986,-3.0847,-3.136,-3.284,-3.3979,-3.3979,-3.4777,-3.6067,-3.7947,-3.8193,-3.8706,-4.0054,-3.9425,-3.9389,-4.0549,-3.9857,-3.9169,-3.8554,-3.8605,-3.7209,-3.4089,-3.3831,-3.2722,-3.0774,-3.0774,-3.0774,-3.0774,-3.0774,-3.0774,-3.0774,-3.0774,-3.0774,-3.0774,-3.0774,-3.0774,-3.0774,-3.0774,-3.0774,-3.0774,-3.0774,-3.0774,-3.0761,-3.0802,-3.075,-3.0724,-3.0749,-3.0788,-3.0907,-3.2962,-3.6541,-3.9948,-3.8495,-3.7898,-3.8059,-3.9118,-3.9294,-3.9821,-4.2118,-4.2825,-4.3169,-4.4611,-4.497,-4.497,-4.497,-4.497,-4.514,-4.6096,-4.7228,-4.7852,-4.7061,-5.0146,-5.289,-5.3183,-5.4792,-5.6425,-5.7735,-5.791,-5.791,-5.791,-5.791,-5.791,-5.791,-5.8586,-5.871,-5.8061,-6.1067,-6.3106,-6.3356,-6.5878,-6.785,-6.9015,-6.9015,-6.9015,-6.9015,-6.9015,-6.9015,-6.9015,-6.9015,-6.9015,-6.9015,-6.9015,-6.9773,-1.7848,0.0,0.0,0.0,0.0,0.0,-2.6518,-2.8038,-2.9309,-3.0145,-3.117,-3.2195,-3.3049,-3.4378,-3.5498,-3.5953,-3.7453,-3.8744,-3.9332,-3.9617,-4.0225,-4.1477,-4.1629,-4.1952,-4.2787,-4.2882,-4.2532,-4.1582,-4.1449,-4.0315,-3.7543,-3.4346,-3.2008,-3.0761,-3.0774,-3.0774,-3.0774,-3.0774,-3.0774,-3.0774,-3.0774,-3.0774,-3.0774,-3.0774,-3.0774,-3.0774,-3.0774,-3.0774,-3.0774,-3.0774,-3.0774,-3.0774,-3.0774,-3.0774,-3.0774,-3.0774,-3.0774,-3.1143,-3.4113,-3.6378,-3.7502,-3.7003,-3.6474,-3.6116,-3.6653,-3.7025,-3.7543,-4.052,-4.139,-4.1927,-4.427,-4.497,-4.497,-4.497,-4.497,-4.497,-4.497,-4.658,-4.8182,-4.8182,-5.0448,-5.2868,-5.4303,-5.5102,-5.6072,-5.7735,-5.791,-5.791,-5.791,-5.791,-5.791,-5.791,-5.8312,-5.8461,-5.791,-6.008,-6.1985,-6.3218,-6.502,-6.6988,-6.8888,-6.9015,-6.9015,-6.9015,-6.9015,-6.9015,-6.9015,-6.9015,-6.9015,-6.9015,-6.9015,-6.9773,0.0,0.0,0.0,-2.1709,-2.3327,-2.5127,-2.8089,-2.9309,-3.0164,-3.1018,-3.2537,-3.396,-3.4795,-3.5631,-3.6732,-3.8345,-4.0035,-4.1174,-4.1193,-4.1914,-4.2446,-4.2503,-4.2503,-4.2825,-4.3641,-4.3717,-4.4059,-4.4706,-4.4762,-4.4781,-4.4611,-4.0188,-3.5578,-3.0959,-3.0774,-3.0774,-3.0774,-3.0774,-3.0774,-3.0774,-3.0774,-3.0774,-3.0774,-3.0774,-3.0774,-3.0774,-3.0774,-3.0774,-3.0774,-3.0774,-3.0774,-3.0774,-3.0774,-3.0774,-3.0774,-3.0774,-3.0774,-3.113,-3.3482,-3.2949,-3.1327,-3.3664,-3.2935,-3.1301,-3.3846,-3.4556,-3.5444,-4.0154,-4.139,-4.1927,-4.427,-4.497,-4.497,-4.497,-4.497,-4.497,-4.497,-4.658,-4.8182,-4.8182,-5.1552,-5.4591,-5.4591,-5.6425,-5.791,-5.791,-5.791,-5.791,-5.791,-5.791,-5.791,-5.791,-5.9546,-5.9789,-5.8061,-6.1184,-6.3356,-6.3356,-6.502,-6.6988,-6.8888,-6.9015,-6.9015,-6.9015,-6.9015,-6.9015,-6.9015,-6.9015,-6.9015,-6.9015,-6.9015,-6.9773,-1.6231,-1.7991,-2.0097,-2.1863,-2.4194,-2.6649,-2.8958,-3.0202,-3.136,-3.3334,-3.4188,-3.5023,-3.6409,-3.732,-3.844,-4.013,-4.0908,-4.1477,-4.2028,-4.2351,-4.2749,-4.3281,-4.3357,-4.3679,-4.4496,-4.4572,-4.4686,-4.4951,-4.497,-4.427,-4.2653,-3.9645,-3.6474,-3.33,-3.1485,-3.0774,-3.0774,-3.0774,-3.0774,-3.0774,-3.0774,-3.0774,-3.0774,-3.0774,-3.0774,-3.0774,-3.0774,-3.0774,-3.0774,-3.0774,-3.0774,-3.0774,-3.0774,-3.0774,-3.0774,-3.0774,-3.0774,-3.0761,-3.1668,-3.1498,-3.0761,-3.1668,-3.1314,-3.0959,-3.1682,-3.3118,-3.5083,-3.8236,-4.0171,-4.1927,-4.427,-4.497,-4.497,-4.497,-4.497,-4.497,-4.497,-4.7727,-5.0792,-5.2211,-5.4792,-5.6754,-5.6754,-5.7409,-5.791,-5.791,-5.791,-5.791,-5.791,-5.791,-5.791,-5.791,-5.8461,-5.8586,-5.8061,-5.9006,-6.0779,-6.3218,-6.3934,-6.5745,-6.8859,-6.9015,-6.9015,-6.9015,-6.9015,-6.9015,-6.9015,-6.9015,-6.9015,-6.9015,-6.9015,-6.9773,-1.653,-1.8055,-1.9987,-2.2205,-2.465,-2.7102,-2.9744,-3.1322,-3.2688,-3.4606,-3.5232,-3.5953,-3.7624,-3.8858,-3.9997,-4.1098,-4.1781,-4.2351,-4.2901,-4.3224,-4.3604,-4.4135,-4.4192,-4.4401,-4.4913,-4.497,-4.497,-4.497,-4.497,-4.4251,-4.2825,-3.9645,-3.7188,-3.5788,-3.2388,-3.0774,-3.0774,-3.0774,-3.0774,-3.0774,-3.0774,-3.0774,-3.0774,-3.0774,-3.0774,-3.0774,-3.0774,-3.0774,-3.0774,-3.0774,-3.0774,-3.0774,-3.0774,-3.0774,-3.0774,-3.0774,-3.0774,-3.0774,-3.0774,-3.0774,-3.0774,-3.0774,-3.0774,-3.0774,-3.0774,-3.2401,-3.4903,-3.7188,-3.9645,-4.1927,-4.427,-4.497,-4.497,-4.497,-4.497,-4.497,-4.497,-4.8388,-5.1937,-5.3183,-5.5279,-5.693,-5.776,-5.7258,-5.7082,-5.776,-5.791,-5.791,-5.791,-5.791,-5.791,-5.791,-5.791,-5.791,-5.791,-5.791,-5.9129,-6.2267,-6.2408,-6.407,-6.785,-6.8008,-6.8293,-6.9015,-6.9015,-6.9015,-6.9015,-6.9015,-6.9015,-6.9015,-6.9015,-6.9773,-1.701,-1.7674,-1.9101,-2.2671,-2.4778,-2.6952,-3.0542,-3.265,-3.4093,-3.4947,-3.5783,-3.6865,-3.8535,-4.0168,-4.115,-4.1383,-4.273,-4.3774,-4.3812,-4.4496,-4.497,-4.497,-4.497,-4.497,-4.497,-4.497,-4.497,-4.497,-4.48,-4.48,-4.48,-4.0205,-3.7721,-3.7721,-3.309,-3.0774,-3.0774,-3.0774,-3.0774,-3.0774,-3.0774,-3.0774,-3.0774,-3.0774,-3.0774,-3.0774,-3.0774,-3.0774,-3.0774,-3.0774,-3.0774,-3.0774,-3.0774,-3.0774,-3.0774,-3.0774,-3.0774,-3.0774,-3.0774,-3.0774,-3.0774,-3.0774,-3.0761,-3.0946,-3.0946,-3.2753,-3.5263,-3.7543,-3.9821,-4.21,-4.427,-4.497,-4.497,-4.497,-4.497,-4.497,-4.497,-4.8223,-5.1457,-5.1617,-5.3183,-5.5279,-5.7584,-5.6248,-5.5434,-5.7584,-5.791,-5.791,-5.791,-5.791,-5.791,-5.791,-5.791,-5.791,-5.791,-5.791,-5.8734,-6.0465,-6.0609,-6.2267,-6.5983,-6.6143,-6.6988,-6.9015,-6.9015,-6.9015,-6.9015,-6.9015,-6.9015,-6.9015,-6.9015,-6.9773,-1.7595,-1.9854,-2.2548,-2.4551,-2.7535,-3.0434,-3.2659,-3.3941,-3.5118,-3.6561,-3.751,-3.8611,-4.0301,-4.0984,-4.1686,-4.292,-4.349,-4.3964,-4.4591,-4.4856,-4.497,-4.497,-4.497,-4.497,-4.497,-4.497,-4.497,-4.497,-4.3359,-4.229,-4.229,-3.7898,-3.5263,-3.5263,-3.2388,-3.0774,-3.0774,-3.0774,-3.0774,-3.0774,-3.0774,-3.0774,-3.0774,-3.0774,-3.0774,-3.0774,-3.0774,-3.0774,-3.0774,-3.0774,-3.0774,-3.0774,-3.0774,-3.0774,-3.0774,-3.0774,-3.0774,-3.0774,-3.0774,-3.0774,-3.0774,-3.0774,-3.2035,-3.3482,-3.3482,-3.6295,-3.9821,-4.0345,-4.2118,-4.4081,-4.48,-4.497,-4.497,-4.497,-4.497,-4.497,-4.497,-4.7061,-4.9962,-5.3183,-5.428,-5.5279,-5.7584,-5.7433,-5.7258,-5.791,-5.791,-5.791,-5.791,-5.791,-5.791,-5.791,-5.791,-5.791,-5.791,-5.791,-5.8734,-6.0465,-6.0609,-6.2267,-6.5983,-6.6143,-6.6988,-6.9015,-6.9015,-6.9015,-6.9015,-6.9015,-6.9015,-6.9015,-6.9015,-6.9773,-1.6532,-1.9532,-2.3175,-2.5962,-2.8708,-3.1462,-3.3794,-3.4947,-3.601,-3.7681,-3.8687,-3.9674,-4.1041,-4.1591,-4.2256,-4.3547,-4.4059,-4.4458,-4.4913,-4.497,-4.497,-4.497,-4.497,-4.497,-4.497,-4.497,-4.497,-4.497,-4.2653,-4.139,-4.139,-3.7009,-3.439,-3.439,-3.2035,-3.0774,-3.0774,-3.0774,-3.0774,-3.0774,-3.0774,-3.0774,-3.0774,-3.0774,-3.0774,-3.0774,-3.0774,-3.0774,-3.0774,-3.0774,-3.0774,-3.0774,-3.0774,-3.0774,-3.0774,-3.0774,-3.0774,-3.0959,-3.2035,-3.1668,-3.113,-3.3272,-3.418,-3.4556,-3.5608,-3.8429,-4.1425,-4.139,-4.3169,-4.497,-4.497,-4.497,-4.497,-4.497,-4.497,-4.497,-4.497,-4.5947,-4.7706,-5.1071,-5.2529,-5.4326,-5.7409,-5.7082,-5.6754,-5.7735,-5.791,-5.791,-5.791,-5.791,-5.791,-5.791,-5.791,-5.791,-5.791,-5.791,-5.8312,-5.9399,-6.02,-6.1985,-6.475,-6.5717,-6.6988,-6.9015,-6.9015,-6.9015,-6.9015,-6.9015,-6.9015,-6.9015,-6.9015,-6.9752,-1.5301,-1.804,-2.1985,-2.6429,-2.8925,-3.0997,-3.408,-3.5531,-3.6827,-3.8383,-3.9389,-4.0282,-4.0762,-4.1869,-4.2844,-4.3774,-4.4515,-4.497,-4.497,-4.497,-4.497,-4.497,-4.497,-4.497,-4.497,-4.497,-4.497,-4.497,-4.2463,-4.0868,-4.0868,-3.6489,-3.3846,-3.3846,-3.1852,-3.0774,-3.0774,-3.0774,-3.0774,-3.0774,-3.0774,-3.0774,-3.0774,-3.0774,-3.0774,-3.0774,-3.0774,-3.0774,-3.0774,-3.0774,-3.0774,-3.0774,-3.0774,-3.0774,-3.0774,-3.0774,-3.0774,-3.0946,-3.3118,-3.2753,-3.1838,-3.6116,-3.6311,-3.5263,-3.7365,-3.9327,-4.092,-4.1234,-4.2825,-4.4441,-4.48,-4.497,-4.497,-4.497,-4.497,-4.497,-4.497,-4.497,-4.546,-4.7394,-4.9842,-5.2596,-5.5966,-5.5279,-5.4947,-5.7082,-5.7409,-5.7584,-5.791,-5.791,-5.791,-5.791,-5.791,-5.791,-5.791,-5.791,-5.791,-5.791,-5.9399,-6.1015,-6.2967,-6.475,-6.6595,-6.8576,-6.8859,-6.9015,-6.9015,-6.9015,-6.9015,-6.9015,-6.9015,-6.9713,-1.6929,-1.8296,-2.0218,-2.4528,-2.7831,-3.0741,-3.3123,-3.5524,-3.7548,-3.8516,-3.9389,-3.9955,-3.9642,-4.1244,-4.3034,-4.4534,-4.4894,-4.497,-4.497,-4.497,-4.497,-4.497,-4.497,-4.497,-4.497,-4.497,-4.497,-4.497,-4.0903,-3.859,-3.859,-3.3984,-3.1314,-3.1314,-3.0946,-3.0774,-3.0774,-3.0774,-3.0774,-3.0774,-3.0774,-3.0774,-3.0774,-3.0774,-3.0774,-3.0774,-3.0774,-3.0774,-3.0774,-3.0774,-3.0774,-3.0774,-3.0774,-3.0774,-3.0774,-3.0774,-3.0774,-3.0774,-3.113,-3.2388,-3.3846,-3.4737,-3.6147,-3.7365,-3.7721,-3.8252,-3.8959,-4.0868,-4.1736,-4.2463,-4.4441,-4.497,-4.497,-4.497,-4.497,-4.497,-4.497,-4.497,-4.497,-4.546,-4.8717,-5.1136,-5.0124,-5.1114,-5.2732,-5.4947,-5.5256,-5.5918,-5.7735,-5.791,-5.791,-5.791,-5.791,-5.791,-5.791,-5.791,-5.791,-5.791,-5.8186,-5.9277,-6.1015,-6.2827,-6.475,-6.6567,-6.8165,-6.9015,-6.9015,-6.9015,-6.9015,-6.9015,-6.9015,-6.9713,-1.4077,-1.6641,-1.9598,-2.2071,-2.5923,-3.0052,-3.3326,-3.5167,-3.6068,-3.6043,-3.6415,-3.7305,-3.8993,-4.0127,-4.169,-4.4535,-4.497,-4.497,-4.497,-4.497,-4.497,-4.497,-4.497,-4.497,-4.497,-4.497,-4.497,-4.497,-4.0554,-3.7898,-3.7898,-3.3272,-3.0774,-3.0774,-3.0774,-3.0774,-3.0774,-3.0774,-3.0774,-3.0774,-3.0774,-3.0774,-3.0774,-3.0774,-3.0774,-3.0774,-3.0774,-3.0774,-3.0774,-3.0774,-3.0774,-3.0774,-3.0774,-3.0774,-3.0774,-3.0774,-3.0774,-3.0946,-3.2218,-3.2584,-3.2935,-3.5429,-3.6147,-3.6311,-3.7543,-3.8766,-3.9996,-4.1042,-4.229,-4.353,-4.463,-4.497,-4.497,-4.497,-4.497,-4.497,-4.497,-4.497,-4.497,-4.497,-4.7561,-4.9495,-4.8347,-5.0004,-5.2256,-5.428,-5.5588,-5.6754,-5.776,-5.791,-5.791,-5.791,-5.791,-5.791,-5.791,-5.791,-5.791,-5.791,-5.8858,-5.9814,-6.0609,-6.2408,-6.3796,-6.4615,-6.7592,-6.9015,-6.9015,-6.9015,-6.9015,-6.9044,-6.9713,-7.0673,-1.2204,-1.5424,-1.8872,-2.0153,-2.3508,-2.7705,-3.2415,-3.3518,-3.3301,-3.2902,-3.3411,-3.4576,-3.7139,-3.8289,-3.9759,-4.2731,-4.3798,-4.4081,-4.4081,-4.4611,-4.497,-4.497,-4.497,-4.497,-4.497,-4.497,-4.497,-4.497,-4.1077,-3.8413,-3.7882,-3.3803,-3.1314,-3.0774,-3.0774,-3.0774,-3.0774,-3.0774,-3.0774,-3.0774,-3.0774,-3.0774,-3.0774,-3.0774,-3.0774,-3.0774,-3.0774,-3.0774,-3.0774,-3.0774,-3.0774,-3.0774,-3.0774,-3.0774,-3.0774,-3.0774,-3.0774,-3.0946,-3.2935,-3.2753,-3.2205,-3.5937,-3.5968,-3.4918,-3.7188,-3.8766,-4.0154,-4.1042,-4.2653,-4.427,-4.48,-4.497,-4.497,-4.497,-4.497,-4.497,-4.497,-4.497,-4.497,-4.497,-4.6747,-4.8182,-4.8182,-5.0004,-5.2096,-5.3655,-5.5765,-5.7409,-5.791,-5.791,-5.791,-5.791,-5.791,-5.791,-5.791,-5.791,-5.791,-5.791,-5.9252,-6.0055,-6.0055,-6.187,-6.2967,-6.3356,-6.6726,-6.8576,-6.9015,-6.9015,-6.916,-6.9451,-7.044,-7.172,-1.5606,-1.655,-1.7535,-1.9981,-2.0704,-2.2439,-2.8008,-2.9359,-2.9417,-2.9988,-3.2505,-3.4054,-3.2656,-3.4851,-3.6947,-3.7797,-4.0091,-4.1754,-4.1754,-4.3549,-4.497,-4.497,-4.497,-4.497,-4.497,-4.497,-4.497,-4.497,-4.2481,-4.0171,-3.8059,-3.5429,-3.3118,-3.0761,-3.0774,-3.0774,-3.0774,-3.0774,-3.0774,-3.0774,-3.0774,-3.0774,-3.0774,-3.0774,-3.0774,-3.0774,-3.0774,-3.0774,-3.0774,-3.0774,-3.0774,-3.0774,-3.0774,-3.0774,-3.0774,-3.0774,-3.0774,-3.0761,-3.0946,-3.2401,-3.4208,-3.4556,-3.4571,-3.4918,-3.7188,-3.6489,-3.5968,-4.0171,-4.1563,-4.2272,-4.4441,-4.497,-4.497,-4.497,-4.497,-4.497,-4.497,-4.497,-4.497,-4.497,-4.6747,-4.8182,-4.8182,-5.0004,-5.1639,-5.1777,-5.352,-5.5588,-5.7735,-5.791,-5.791,-5.791,-5.791,-5.791,-5.791,-5.791,-5.791,-5.791,-5.8036,-5.8186,-5.8186,-5.9935,-6.1702,-6.3356,-6.5317,-6.7276,-6.9015,-6.9015,-6.9596,-7.076,-7.0876,-7.2185,-1.203,-1.385,-1.5687,-1.6457,-1.8245,-2.0359,-2.3465,-2.4342,-2.5169,-2.7381,-2.8018,-2.8924,-3.1708,-3.3295,-3.4928,-3.7162,-3.8585,-3.9294,-3.9294,-4.1234,-4.2825,-4.2825,-4.4081,-4.497,-4.497,-4.497,-4.497,-4.497,-4.2653,-4.1042,-3.9979,-3.6489,-3.4027,-3.2935,-3.1485,-3.0774,-3.0774,-3.0774,-3.0774,-3.0774,-3.0774,-3.0774,-3.0774,-3.0774,-3.0774,-3.0774,-3.0774,-3.0774,-3.0774,-3.0774,-3.0774,-3.0774,-3.0774,-3.0774,-3.0774,-3.0774,-3.0774,-3.0774,-3.0774,-3.1314,-3.2218,-3.2218,-3.3118,-3.4571,-3.5444,-3.7188,-3.8942,-4.0868,-4.2463,-4.372,-4.463,-4.497,-4.497,-4.497,-4.497,-4.497,-4.497,-4.497,-4.497,-4.497,-4.6747,-4.8182,-4.8182,-5.0004,-5.1937,-5.3206,-5.5163,-5.6925,-5.7808,-5.791,-5.791,-5.791,-5.791,-5.791,-5.791,-5.791,-5.791,-5.791,-5.791,-5.791,-5.791,-5.9668,-6.1015,-6.1702,-6.3494,-6.5811,-6.8414,-6.8414,-6.9627,-7.201,-7.2796,-7.3697,-1.0077,-1.2074,-1.3981,-1.4464,-1.6248,-1.8316,-2.0119,-2.0492,-2.16,-2.5286,-2.5401,-2.6192,-3.0361,-3.1346,-3.2388,-3.4855,-3.6042,-3.6582,-3.6816,-3.8942,-4.0694,-4.139,-4.229,-4.3016,-4.372,-4.391,-4.391,-4.391,-4.2997,-4.21,-4.139,-3.7543,-3.5083,-3.4375,-3.2035,-3.0774,-3.0774,-3.0774,-3.0774,-3.0774,-3.0774,-3.0774,-3.0774,-3.0774,-3.0774,-3.0774,-3.0774,-3.0774,-3.0774,-3.0774,-3.0774,-3.0774,-3.0774,-3.0774,-3.0774,-3.0774,-3.0774,-3.0774,-3.0774,-3.113,-3.1852,-3.1852,-3.3468,-3.5608,-3.6311,-3.8766,-4.1563,-4.229,-4.372,-4.497,-4.497,-4.497,-4.497,-4.497,-4.497,-4.497,-4.497,-4.497,-4.497,-4.497,-4.6108,-4.7834,-4.9457,-5.1879,-5.395,-5.5303,-5.6878,-5.7861,-5.7984,-5.791,-5.791,-5.791,-5.791,-5.791,-5.791,-5.791,-5.791,-5.791,-5.791,-5.791,-5.791,-5.9129,-6.0055,-6.0609,-6.2184,-6.4715,-6.8098,-6.8354,-7.0154,-7.3319,-7.4192,-7.4831,-1.1775,-1.2001,-1.2605,-1.4993,-1.5106,-1.5457,-1.8934,-1.8645,-1.9112,-2.3952,-2.6178,-2.7385,-2.7398,-2.832,-2.9261,-2.9274,-3.16,-3.3782,-3.4288,-3.6489,-3.8766,-4.1216,-3.947,-3.8942,-4.1216,-4.139,-4.139,-4.139,-4.353,-4.3891,-4.1563,-3.9118,-3.6831,-3.4556,-3.2035,-3.0774,-3.0774,-3.0774,-3.0774,-3.0774,-3.0774,-3.0774,-3.0774,-3.0774,-3.0774,-3.0774,-3.0774,-3.0774,-3.0774,-3.0774,-3.0774,-3.0774,-3.0774,-3.0774,-3.0774,-3.0774,-3.0774,-3.0774,-3.0774,-3.2401,-3.439,-3.439,-3.5968,-3.8252,-4.0694,-4.139,-4.1927,-4.427,-4.48,-4.497,-4.497,-4.497,-4.497,-4.497,-4.497,-4.497,-4.497,-4.497,-4.497,-4.497,-4.4942,-4.6753,-5.2604,-5.5923,-5.7795,-5.7857,-5.791,-5.791,-5.791,-5.791,-5.791,-5.791,-5.791,-5.791,-5.791,-5.791,-5.791,-5.791,-5.791,-5.791,-5.791,-5.791,-5.8858,-6.0609,-6.1686,-6.4099,-6.8098,-6.925,-7.1488,-7.4599,-7.4628,-7.5326,-0.9928,-1.1071,-1.229,-1.3531,-1.3781,-1.4737,-1.8229,-1.9228,-1.9563,-1.9894,-2.1885,-2.39,-2.5153,-2.713,-2.8632,-2.9021,-3.0248,-3.1717,-3.3471,-3.6165,-3.8766,-4.1216,-4.0694,-4.052,-4.139,-3.9979,-3.8942,-3.8942,-3.9662,-3.9838,-3.9118,-3.8252,-3.7543,-3.6847,-3.4542,-3.33,-3.33,-3.1498,-3.0774,-3.0774,-3.0774,-3.0774,-3.0774,-3.0774,-3.0774,-3.0774,-3.0774,-3.0774,-3.0774,-3.0774,-3.0774,-3.0774,-3.0774,-3.0774,-3.0774,-3.0774,-3.0774,-3.0946,-3.257,-3.3664,-3.4737,-3.6311,-3.8413,-4.052,-4.1216,-4.2463,-4.391,-4.463,-4.497,-4.497,-4.497,-4.497,-4.497,-4.497,-4.497,-4.497,-4.497,-4.497,-4.497,-4.497,-4.6541,-4.9233,-5.3004,-5.6049,-5.7959,-5.7973,-5.7877,-5.8014,-5.7959,-5.791,-5.791,-5.791,-5.791,-5.791,-5.791,-5.791,-5.791,-5.791,-5.791,-5.8252,-5.8984,-5.9008,-5.9609,-6.0866,-6.2697,-6.517,-6.8622,-7.0332,-7.2822,-7.5995,-7.5995,-7.6227,-0.9039,-1.0573,-1.2124,-1.2713,-1.2401,-1.3107,-1.6869,-1.7753,-1.7731,-1.7471,-1.9067,-2.1146,-2.301,-2.5574,-2.7493,-2.7562,-2.869,-3.019,-3.1961,-3.4638,-3.7188,-3.859,-3.8766,-3.8766,-3.8766,-3.7365,-3.6668,-3.6668,-3.7365,-3.7898,-3.7898,-3.7025,-3.6668,-3.6668,-3.418,-3.2935,-3.2935,-3.1485,-3.0774,-3.0774,-3.0774,-3.0774,-3.0774,-3.0774,-3.0774,-3.0774,-3.0774,-3.0774,-3.0774,-3.0774,-3.0774,-3.0774,-3.0774,-3.1314,-3.2218,-3.309,-3.3454,-3.3621,-3.5249,-3.6311,-3.7365,-3.8766,-4.0886,-4.2653,-4.2653,-4.372,-4.497,-4.497,-4.497,-4.497,-4.497,-4.497,-4.497,-4.497,-4.497,-4.497,-4.497,-4.497,-4.497,-4.497,-4.6334,-4.8203,-5.004,-5.1784,-5.3003,-5.2999,-5.5752,-5.7966,-5.7959,-5.791,-5.791,-5.791,-5.791,-5.791,-5.791,-5.791,-5.791,-5.791,-5.8392,-5.9098,-5.9756,-5.9877,-6.0375,-6.101,-6.2618,-6.484,-6.7641,-6.9456,-7.2045,-7.5386,-7.5386,-7.5842,-0.9012,-1.0429,-1.1907,-1.2252,-1.1262,-1.1236,-1.506,-1.4861,-1.4482,-1.6481,-1.7514,-1.8713,-2.0682,-2.3699,-2.5722,-2.513,-2.723,-2.9255,-2.9966,-3.2532,-3.4375,-3.4556,-3.4556,-3.439,-3.439,-3.4194,-3.4208,-3.4208,-3.6132,-3.735,-3.735,-3.5444,-3.439,-3.439,-3.2218,-3.0946,-3.0946,-3.0761,-3.0774,-3.0774,-3.0774,-3.0774,-3.0774,-3.0774,-3.0774,-3.0774,-3.0774,-3.0761,-3.0946,-3.0946,-3.113,-3.1314,-3.1314,-3.257,-3.4918,-3.7203,-3.7898,-3.7882,-3.8059,-3.9645,-4.139,-4.1563,-4.3187,-4.497,-4.497,-4.497,-4.497,-4.497,-4.497,-4.497,-4.497,-4.497,-4.497,-4.497,-4.497,-4.497,-4.497,-4.497,-4.497,-4.497,-4.498,-4.487,-4.487,-4.483,-4.5137,-4.5686,-5.2718,-5.7954,-5.7935,-5.7959,-5.7959,-5.791,-5.791,-5.7935,-5.7984,-5.7984,-5.8008,-5.7881,-5.9152,-5.9986,-6.0266,-6.0826,-6.1156,-6.1254,-6.2391,-6.3938,-6.5895,-6.7001,-6.9542,-7.321,-7.321,-7.432,-0.887,-0.9319,-1.0135,-1.1464,-1.2727,-1.3738,-1.4978,-1.529,-1.5219,-1.4456,-1.4776,-1.5563,-1.6762,-1.8753,-2.1672,-2.5499,-2.6227,-2.7838,-3.1425,-3.3471,-3.5083,-3.6847,-3.5444,-3.439,-3.439,-3.2753,-3.1485,-3.1485,-3.2021,-3.2374,-3.2374,-3.365,-3.439,-3.439,-3.3846,-3.3482,-3.3482,-3.1668,-3.0774,-3.0774,-3.0774,-3.0774,-3.0774,-3.0774,-3.0774,-3.0774,-3.0774,-3.1852,-3.3482,-3.3482,-3.4542,-3.6295,-3.6295,-3.6653,-3.7188,-3.7721,-3.7898,-3.8236,-3.9996,-4.0868,-4.1736,-4.3549,-4.4441,-4.497,-4.497,-4.497,-4.497,-4.497,-4.497,-4.497,-4.497,-4.497,-4.497,-4.497,-4.497,-4.497,-4.497,-4.497,-4.497,-4.497,-4.4856,-4.4911,-4.4911,-4.4832,-4.7219,-5.3949,-5.6669,-5.7927,-5.7979,-5.7917,-5.791,-5.7959,-5.791,-5.7954,-5.7982,-5.7877,-5.7915,-5.7902,-5.8307,-5.9461,-6.1639,-6.1922,-6.2409,-6.3499,-6.531,-6.6516,-6.697,-6.8732,-7.0236,-7.1153,-7.1153,-7.2263,-0.8783,-0.9539,-1.0296,-1.0374,-1.1253,-1.2179,-1.2427,-1.2791,-1.2912,-1.2263,-1.234,-1.3089,-1.4439,-1.5211,-1.7252,-2.1927,-2.418,-2.6174,-2.9065,-3.3081,-3.544,-3.4649,-3.6474,-3.6311,-3.3118,-3.2584,-3.1852,-3.0761,-3.0774,-3.0774,-3.0774,-3.2035,-3.2767,-3.2767,-3.2767,-3.2767,-3.2767,-3.1314,-3.0774,-3.0774,-3.0774,-3.0774,-3.0774,-3.0774,-3.1314,-3.2388,-3.2388,-3.3831,-3.5968,-3.5968,-3.6847,-3.7898,-3.7898,-3.859,-3.947,-3.947,-3.947,-3.9645,-4.1042,-4.0694,-4.0345,-4.3739,-4.4081,-4.3549,-4.4611,-4.497,-4.497,-4.497,-4.497,-4.497,-4.497,-4.497,-4.497,-4.497,-4.497,-4.497,-4.497,-4.497,-4.497,-4.497,-4.4856,-4.4891,-4.4891,-4.4891,-4.6417,-5.1276,-5.5377,-5.6381,-5.2486,-5.5426,-5.7896,-5.7915,-5.7973,-5.7963,-5.8011,-5.9696,-6.0934,-6.0936,-6.0856,-6.1629,-6.309,-6.3139,-6.3621,-6.428,-6.5368,-6.5999,-6.5999,-6.7033,-6.8101,-6.902,-6.902,-7.0108,-0.8783,-0.9925,-1.0829,-0.916,-0.8861,-0.9131,-0.9428,-0.9671,-0.9942,-1.0285,-1.0555,-1.1277,-1.3086,-1.291,-1.3673,-1.7001,-2.1296,-2.4693,-2.6057,-3.1893,-3.4855,-3.1601,-3.6622,-3.7866,-3.1838,-3.3118,-3.33,-3.0946,-3.0774,-3.0774,-3.0774,-3.0774,-3.0774,-3.0774,-3.0774,-3.0774,-3.0774,-3.0774,-3.0774,-3.0774,-3.0774,-3.0813,-3.0904,-3.0904,-3.204,-3.4132,-3.4132,-3.5365,-3.7682,-3.7682,-3.7861,-3.8219,-3.8576,-3.9804,-4.1197,-4.1443,-4.1391,-4.1024,-4.1251,-4.0345,-3.9662,-4.3567,-4.3549,-4.229,-4.427,-4.497,-4.5027,-4.5274,-4.5369,-4.5369,-4.5369,-4.5369,-4.535,-4.516,-4.516,-4.5141,-4.4931,-4.4931,-4.4931,-4.4931,-4.4826,-4.5041,-4.5523,-4.5717,-4.5679,-4.576,-5.1984,-5.3967,-4.6689,-5.341,-5.8994,-5.8967,-5.8895,-5.8919,-5.8855,-6.2307,-6.4368,-6.4308,-6.4354,-6.4304,-6.4304,-6.4304,-6.4304,-6.4304,-6.4304,-6.4304,-6.4304,-6.4304,-6.5227,-6.6923,-6.6923,-6.7968,-0.8783,-0.8918,-0.9153,-0.879,-0.8817,-0.893,-0.9118,-0.9217,-0.9401,-0.9935,-1.0074,-1.0265,-1.1165,-1.2792,-1.3687,-1.3264,-1.8752,-2.4373,-2.8084,-3.0085,-3.1717,-3.3593,-3.4737,-3.5083,-3.4027,-3.4208,-3.33,-3.0946,-3.0774,-3.0774,-3.0774,-3.0774,-3.0774,-3.0774,-3.0774,-3.0774,-3.0774,-3.0774,-3.0774,-3.0774,-3.0774,-3.1034,-3.1502,-3.1502,-3.1939,-3.2781,-3.2781,-3.4098,-3.6337,-3.6337,-3.7438,-3.9679,-4.1727,-4.1543,-4.0154,-4.1953,-4.114,-3.9391,-4.0901,-4.2463,-4.391,-4.463,-4.463,-4.4441,-4.48,-4.497,-4.5274,-4.6679,-4.7077,-4.7077,-4.7077,-4.7077,-4.688,-4.6411,-4.6374,-4.614,-4.5187,-4.4954,-4.4954,-4.4954,-4.4867,-4.5858,-4.8723,-4.9197,-4.9199,-4.9176,-5.0303,-5.0675,-4.9336,-5.7431,-6.3329,-6.3365,-6.3424,-6.333,-6.3392,-6.4038,-6.441,-6.4294,-6.4349,-6.4304,-6.4304,-6.4304,-6.4304,-6.4304,-6.4304,-6.4304,-6.4304,-6.4304,-6.4447,-6.4755,-6.4755,-6.5999,-0.8783,-0.8907,-0.9118,-0.8953,-0.8913,-0.8953,-0.9085,-0.9118,-0.9236,-0.9658,-0.9751,-0.9882,-1.0304,-1.1394,-1.2076,-1.1733,-1.4849,-1.8875,-2.3548,-2.8267,-3.1688,-3.2292,-3.5758,-3.7188,-3.4737,-3.5608,-3.5249,-3.2935,-3.1498,-3.0774,-3.0774,-3.0774,-3.0774,-3.0774,-3.0774,-3.0774,-3.0774,-3.0774,-3.093,-3.1242,-3.1242,-3.1541,-3.2086,-3.2086,-3.2987,-3.4373,-3.4373,-3.5676,-3.793,-3.793,-3.8685,-3.9797,-4.0933,-4.0747,-3.9952,-4.2259,-4.1558,-3.9823,-4.2056,-4.3401,-4.452,-4.5792,-4.5422,-4.4697,-4.5968,-4.6318,-4.6489,-4.7248,-4.7457,-4.7457,-4.7457,-4.7457,-4.7438,-4.7202,-4.7259,-4.7693,-4.7693,-4.7693,-4.7693,-4.7693,-4.7599,-4.814,-4.9635,-5.0004,-4.9975,-5.0051,-4.9984,-5.1813,-5.7112,-6.1634,-6.4304,-6.432,-6.441,-6.437,-6.4337,-6.4362,-6.4319,-6.428,-6.4304,-6.4304,-6.4304,-6.4304,-6.4304,-6.4304,-6.4304,-6.4304,-6.4304,-6.4304,-6.4304,-6.4304,-6.4304,-6.4921,-0.8867,0.0,-0.9507,-0.9276,-0.917,-0.9118,0.0,-0.9065,-0.9098,-0.9395,-0.9454,-0.9559,-0.9909,-1.0219,-1.0608,-1.1181,-1.2389,-1.4604,-1.8484,-2.5878,-3.1002,-3.1508,-3.6459,-3.8413,-3.4737,-3.6489,-3.7025,-3.4556,-3.3104,-3.2374,-3.2374,-3.1838,-3.1668,-3.1668,-3.2205,-3.2374,-3.2374,-3.2511,-3.264,-3.2564,-3.3427,-3.3428,-3.2683,-3.3244,-3.4662,-3.6506,-3.6506,-3.7841,-4.0292,-4.0292,-4.0292,-4.0292,-4.086,-4.086,-4.0465,-4.296,-4.2503,-4.0585,-4.3056,-4.394,-4.4306,-4.6719,-4.6159,-4.5053,-4.6899,-4.7742,-4.8064,-4.8064,-4.8064,-4.8064,-4.8064,-4.8064,-4.8064,-4.8064,-4.8341,-4.904,-4.9778,-5.0018,-5.0018,-5.0018,-5.0043,-5.0003,-5.0003,-4.9866,-4.9963,-4.9999,-4.9887,-5.3379,-6.3166,-6.439,-6.4333,-6.4353,-6.4304,-6.4304,-6.4304,-6.4304,-6.4304,-6.4304,-6.4304,-6.4304,-6.4304,-6.4304,-6.4304,-6.4304,-6.4304,-6.4304,-6.4304,-6.4304,-6.4304,-6.4304,-6.4304,-6.4304,0.0,-0.9533,-0.9559,-0.9533,-0.9322,-0.9118,-0.9118,-0.89,0.0,-0.9085,-0.9151,-0.9322,-0.9869,-1.0219,-1.0608,-1.1181,-1.3511,-1.5685,-1.6389,-2.1964,-2.7961,-3.3436,-3.4556,-3.4737,-3.439,-3.6489,-3.7025,-3.4556,-3.6311,-3.7365,-3.7365,-3.5249,-3.4208,-3.4208,-3.6311,-3.7365,-3.7365,-3.8163,-3.7248,-3.4962,-3.8313,-3.7647,-3.348,-3.579,-3.7272,-3.8022,-3.8022,-3.9588,-4.1925,-4.1925,-4.1925,-4.2334,-4.4703,-4.4105,-4.2253,-4.4314,-4.3471,-4.1423,-4.3245,-4.394,-4.4306,-4.6719,-4.7278,-4.7278,-4.7457,-4.8577,-4.9849,-4.9849,-4.9849,-4.9849,-4.9849,-4.9849,-4.9849,-4.9849,-4.9868,-4.9868,-4.9887,-4.9887,-4.9887,-4.9887,-4.9925,-4.9963,-4.9963,-5.0001,-4.9999,-5.0033,-5.0023,-5.3488,-6.3001,-6.4382,-6.4353,-6.4304,-6.4304,-6.4304,-6.4304,-6.4304,-6.4304,-6.4304,-6.4304,-6.4304,-6.4304,-6.4304,-6.4304,-6.4304,-6.4304,-6.4304,-6.4304,-6.4304,-6.4304,-6.4304,-6.4304,-6.4304,-0.979,-0.9955,-1.0054,-0.9863,-0.9731,-0.9553,-0.9197,-0.9032,-0.8933,-0.8854,-0.8841,-0.9025,-0.9612,-0.981,-1.0192,-1.1128,-1.2327,-1.392,-1.604,-2.0292,-2.4712,-2.8451,-3.2269,-3.439,-3.439,-3.6489,-3.7543,-3.6668,-3.7365,-3.7898,-3.7898,-3.7025,-3.7188,-3.8766,-3.8236,-3.7898,-3.7898,-3.8752,-3.8783,-3.8313,-4.0116,-4.0226,-3.8965,-3.9937,-4.047,-4.0718,-4.0718,-4.1297,0.0,-4.2283,-4.2283,-4.2283,-4.3264,-4.3068,-4.2447,-4.4934,-4.5023,-4.4587,-4.6847,-4.7711,-4.7917,-4.868,-4.9052,-4.9052,-4.9052,-4.9507,-5.0039,-5.0039,-5.0039,-5.0039,-5.0039,-5.0039,-5.0039,-5.0039,-5.0039,-5.0039,-5.0039,-5.0039,-5.0039,-5.0039,-5.0039,-5.0039,-5.0039,-5.0039,-4.9944,-5.0034,-5.5021,-6.0275,-6.3803,-6.4285,-6.4271,-6.4283,-6.4406,-6.4358,-6.4353,-6.4304,-6.4304,-6.4304,-6.4304,-6.4304,-6.4304,-6.4304,-6.4304,-6.4304,-6.4304,-6.4304,-6.4304,-6.4304,-6.4304,-6.4304,-6.4304,-6.4304,-1.0113,-1.0265,-1.037,-1.0166,-1.0041,-0.9869,-0.9474,-0.9322,-0.9197,-0.8999,-0.8953,-0.9104,-0.9599,-0.9691,-1.0041,-1.1102,-1.1445,-1.2642,-1.585,-1.9511,-2.2688,-2.5425,-3.0201,-3.33,-3.33,-3.5429,-3.6831,-3.6831,-3.8236,-3.8942,-3.8942,-3.8942,-3.9996,-4.2463,-4.0886,-4.0188,-4.0188,-4.0919,-4.1305,-4.112,-4.2789,-4.3131,-4.2267,-4.3068,-4.3476,-4.3476,-4.3476,-4.3867,-4.4662,-4.4662,-4.4662,-4.4662,-4.4662,-4.4662,-4.4857,-4.6649,-4.7243,-4.7644,-4.9433,-5.0039,-5.0039,-5.0039,-5.0039,-5.0039,-5.0039,-5.0039,-5.0039,-5.0039,-5.0039,-5.0039,-5.0039,-5.0039,-5.0039,-5.0039,-5.0039,-5.0039,-5.0039,-5.0039,-5.0039,-5.0039,-5.0039,-5.0039,-5.0039,-5.0039,-4.9963,-4.9904,-5.5642,-5.9857,-5.9797,-5.9828,-5.9713,-5.9771,-6.26,-6.428,-6.4406,-6.4283,-6.4304,-6.4304,-6.4304,-6.4304,-6.4304,-6.4304,-6.4304,-6.4304,-6.4304,-6.4304,-6.4304,-6.4304,-6.4304,-6.4304,-6.4304,-6.4304,-1.0552,-1.0552,-1.0552,-1.0552,-1.0199,-0.9975,-0.9975,-0.9757,-0.9566,-0.9559,-0.9559,-0.9645,-0.9922,-0.9975,-1.0258,-1.1135,-1.128,-1.2541,-1.5809,-1.9266,-2.2491,-2.539,-2.8602,-3.0774,-3.0774,-3.2935,-3.439,-3.439,-3.8766,-4.139,-4.139,-4.139,-4.2463,-4.48,-4.48,-4.4819,-4.497,-4.5825,-4.5383,-4.359,-4.7175,-4.6434,-4.2283,-4.4857,-4.6053,-4.6053,-4.6053,-4.7626,-5.0039,-5.0039,-5.0039,-5.0039,-5.0039,-5.0039,-5.0039,-5.0039,-5.0039,-5.0039,-5.0039,-5.0039,-5.0039,-5.0039,-5.0039,-5.0039,-5.0039,-5.0039,-5.0039,-5.0039,-5.0039,-5.0039,-5.0039,-5.0039,-5.0039,-5.0039,-5.0039,-5.0039,-5.0039,-5.0039,-5.0039,-5.0039,-5.0039,-5.0039,-5.0039,-5.0039,-4.998,-4.9975,-4.9859,-4.9973,-4.9949,-5.0029,-4.9928,-5.004,-5.8557,-6.4151,-6.4324,-6.4261,-6.428,-6.428,-6.428,-6.4304,-6.4304,-6.4304,-6.4304,-6.4304,-6.4304,-6.4304,-6.4304,-6.4304,-6.4304,-6.4304,-6.4304,-6.4304,-1.0552,-1.0552,-1.0552,-1.0552,-1.0357,-1.0232,-1.0021,-0.9909,-0.9797,-0.9606,-0.9559,-0.9645,-0.9922,-1.0146,-1.1021,-1.3066,-1.3885,-1.5252,-1.8067,-2.1662,-2.4591,-2.5612,-2.8602,-3.0774,-3.0774,-3.1314,-3.2584,-3.4208,-3.7188,-3.9645,-4.139,-3.9804,-3.9996,-4.229,-4.2463,-4.3187,-4.48,-4.5825,-4.6288,-4.6358,-4.7946,-4.8402,-4.7644,-4.8445,-4.8844,-4.8844,-4.8844,-4.9224,-5.0039,-5.0039,-5.0039,-5.0039,-5.0039,-5.0039,-5.0039,-5.0039,-5.0039,-5.0039,-5.0039,-5.0039,-5.0039,-5.0039,-5.0039,-5.0039,-5.0039,-5.0039,-5.0039,-5.0039,-5.0039,-5.0039,-5.0039,-5.0039,-5.0039,-5.0039,-5.0039,-5.0039,-5.0039,-5.0039,-5.0039,-5.0039,-5.0039,-5.0039,-5.0039,-5.0039,-4.9963,-4.9923,-4.9904,-4.9996,-4.9971,-4.9933,-5.0033,-5.0004,-5.2449,-5.5654,-5.9068,-6.0327,-6.0865,-6.0975,-6.1481,-6.2474,-6.4304,-6.4304,-6.4304,-6.4304,-6.4304,-6.4304,-6.4304,-6.4304,-6.4304,-6.4304,-6.4304,-6.4304,-1.0856,-1.068,-1.0766,-1.0766,-1.0766,-1.0713,-1.0535,-1.0403,-1.0285,-1.0113,-0.9988,-0.9994,-1.0278,-1.0476,-1.148,-1.4306,-1.5253,-1.676,-2.0394,-2.3409,-2.5634,-2.6876,-2.9158,-3.0774,-3.0774,-3.0774,-3.1314,-3.2753,-3.5249,-3.7898,-4.1216,-3.9979,-4.0345,-4.2653,-4.2825,-4.3549,-4.48,-4.5483,-4.6147,-4.6982,-4.7818,-4.8672,-4.9526,-4.9868,-5.0039,-5.0039,-5.0039,-5.0039,-5.0039,-5.0039,-5.0039,-5.0039,-5.0039,-5.0039,-5.0039,-5.0039,-5.0039,-5.0039,-5.0039,-5.0039,-5.0039,-5.0039,-5.0039,-5.0039,-5.0039,-5.0039,-5.0039,-5.0039,-5.0039,-5.0039,-5.0039,-5.0039,-5.0039,-5.0039,-5.0039,-5.0039,-5.0039,-5.0039,-5.0039,-5.0039,-5.0039,-5.0039,-5.0039,-5.0039,-5.0039,-5.0039,-5.0039,-5.0039,-5.0039,-5.0039,-4.9942,-4.9937,-5.0043,-5.1096,-5.4004,-5.6362,-5.7696,-5.7574,-5.9588,-6.1769,-6.4304,-6.4304,-6.4304,-6.4304,-6.4304,-6.4304,-6.4304,-6.4304,-6.4304,-6.4304,-6.4304,-6.4304,-1.1522,-1.1199,-1.1273,-1.1273,-1.1273,-1.1273,-1.1273,-1.1082,-1.0904,-1.0904,-1.0687,-1.0712,-1.112,-1.1194,-1.2301,-1.5526,-1.6203,-1.7995,-2.305,-2.4825,-2.6554,-2.8847,-3.0086,-3.0774,-3.0774,-3.0774,-3.0774,-3.0774,-3.2935,-3.6311,-4.0868,-4.1042,-4.2118,-4.4441,-4.4611,-4.463,-4.497,-4.497,-4.5407,-4.6261,-4.7001,-4.7837,-4.8748,-4.9545,-4.9963,-5.0039,-5.0039,-5.0039,-5.0039,-5.0039,-5.0039,-5.0039,-5.0039,-5.0039,-5.0039,-5.0039,-5.0039,-5.0039,-5.0039,-5.0039,-5.0039,-5.0039,-5.0039,-5.0039,-5.0039,-5.0039,-5.0039,-5.0039,-5.0039,-5.0039,-5.0039,-5.0039,-5.0039,-5.0039,-5.0039,-5.0039,-5.0039,-5.0039,-5.0039,-5.0039,-5.0039,-5.0039,-5.0039,-5.0039,-5.0039,-5.0039,-5.0039,-5.0039,-5.0039,-5.0039,-4.9961,-5.0033,-4.9956,-4.9956,-4.9956,-5.2632,-5.4575,-5.5096,-5.8407,-6.1598,-6.428,-6.4304,-6.4304,-6.4304,-6.4304,-6.4304,-6.4304,-6.4304,-6.4304,-6.4304,-6.4304,-6.4304,-1.2961,-1.2141,-1.1273,-1.1273,-1.1273,-1.1273,-1.1273,-1.1234,-1.1188,-1.1188,-1.1135,-1.1658,-1.3211,-1.3593,-1.5216,-1.941,-2.0756,-2.2278,-2.5422,-2.7209,-2.8584,-2.9073,-3.0086,-3.0774,-3.0774,-3.0774,-3.0774,-3.0774,-3.2935,-3.5608,-3.8413,-3.859,-3.9645,-4.2118,-4.2118,-4.3016,-4.48,-4.497,-4.5407,-4.6242,-4.6432,-4.7286,-4.8729,-4.8919,-4.9374,-5.0039,-5.0039,-5.0039,-5.0039,-5.0039,-5.0039,-5.0039,-5.0039,-5.0039,-5.0039,-5.0039,-5.0039,-5.0039,-5.0039,-5.0039,-5.0039,-5.0039,-5.0039,-5.0039,-5.0039,-5.0039,-5.0039,-5.0039,-5.0039,-5.0039,-5.0039,-5.0039,-5.0039,-5.0039,-5.0039,-5.0039,-5.0039,-5.0039,-5.0039,-5.0039,-5.0039,-5.0039,-5.0039,-5.0039,-5.0039,-5.0039,-5.0039,-5.0039,-5.0039,-5.0039,-4.9963,-4.9999,-4.998,-4.998,-4.998,-5.0562,-5.2671,-5.6395,-5.7365,-5.9826,-6.4112,-6.4304,-6.4304,-6.4304,-6.4304,-6.4304,-6.4304,-6.4304,-6.4304,-6.4304,-6.4304,-6.4304,-1.401,-1.3313,-1.2844,-1.1991,-1.1709,-1.1709,-1.1709,-1.159,-1.1768,-1.2605,-1.2762,-1.3383,-1.5499,-1.6142,-1.7631,-2.145,-2.2674,-2.4005,-2.6518,-2.8177,-2.9596,-3.0754,-3.1841,-3.2922,-3.3984,-3.4151,-3.4151,-3.4151,-3.6474,-3.8236,-3.947,-4.0712,-4.1772,-4.3016,-4.3016,-4.372,-4.48,-4.497,-4.5198,-4.5654,-4.6052,-4.6698,-4.7552,-4.7951,-4.8596,-4.9393,-4.9393,-4.964,-5.0039,-5.0039,-5.0039,-5.0039,-5.0039,-5.0039,-5.0039,-5.0039,-5.0039,-5.0039,-5.0039,-5.0039,-5.0039,-5.0039,-5.0039,-5.0039,-5.0039,-5.0039,-5.0039,-5.0039,-5.0039,-5.0039,-5.0039,-5.0039,-5.0039,-5.0039,-5.0039,-5.0039,-5.0039,-5.0039,-5.0039,-5.0039,-5.0039,-5.0039,-5.0039,-5.0039,-5.0039,-5.0039,-5.0039,-5.0039,-5.0039,-5.0039,-5.0039,-5.0039,-5.0039,-5.0039,-5.0039,-5.1111,-5.3261,-5.6984,-5.8226,-6.0519,-6.4112,-6.4304,-6.4304,-6.4304,-6.4304,-6.4304,-6.4304,-6.4304,-6.4304,-6.4304,-6.4304,-6.4304,-1.5138,-1.4713,-1.4681,-1.2765,-1.2321,-1.2321,-1.2321,-1.1979,-1.2371,-1.4234,-1.4563,-1.5141,-1.7745,-1.8746,-1.993,-2.2829,-2.374,-2.4744,-2.7131,-2.8372,-2.993,-3.1758,-3.3059,-3.4542,-3.6474,-3.7009,-3.7365,-3.7365,-3.9821,-4.139,-4.139,-4.3549,-4.497,-4.497,-4.497,-4.497,-4.497,-4.497,-4.497,-4.4989,-4.5692,-4.6109,-4.6261,-4.6944,-4.7704,-4.8501,-4.8501,-4.8919,-4.9602,-4.9735,-4.9811,-4.983,-4.9982,-5.0039,-5.0039,-5.0039,-5.0039,-5.0039,-5.0039,-5.0039,-5.0039,-5.0039,-5.0039,-5.0039,-5.0039,-5.0039,-5.0039,-5.0039,-5.0039,-5.0039,-5.0039,-5.0039,-5.0039,-5.0039,-5.0039,-5.0039,-5.0039,-5.0039,-5.0039,-5.0039,-5.0039,-5.0039,-5.0039,-5.0039,-5.0039,-5.0039,-5.0039,-5.0039,-5.0039,-5.0039,-5.0039,-5.0039,-5.0039,-5.0209,-5.0566,-5.2542,-5.4866,-5.7518,-5.9629,-6.1769,-6.4304,-6.4304,-6.4304,-6.4304,-6.4304,-6.4304,-6.4304,-6.4304,-6.4304,-6.4304,-6.4304,-6.4304,-1.6293,-1.5554,-1.4681,-1.2765,-1.2321,-1.2321,-1.2321,-1.2137,-1.2703,-1.4609,-1.5013,-1.6157,-1.9845,-2.0997,-2.2153,-2.4787,-2.5668,-2.639,-2.7294,-2.8372,-2.9261,-2.9596,-3.0613,-3.1301,-3.1668,-3.365,-3.4918,-3.4918,-3.8942,-4.139,-4.139,-4.3549,-4.497,-4.497,-4.497,-4.497,-4.497,-4.497,-4.497,-4.497,-4.5084,-4.554,-4.6242,-4.6356,-4.685,-4.7628,-4.7628,-4.7704,-4.7856,-4.8596,-4.89,-4.8976,-4.9735,-5.0039,-5.0039,-5.0039,-5.0039,-5.0039,-5.0039,-5.0039,-5.0039,-5.0039,-5.0039,-5.0039,-5.0039,-5.0039,-5.0039,-5.0039,-5.0039,-5.0039,-5.0039,-5.0039,-5.0039,-5.0039,-5.0039,-5.0039,-5.0039,-5.0039,-5.0039,-5.0039,-5.0039,-5.0039,-5.0039,-5.0039,-5.0039,-5.0039,-5.0039,-5.0039,-5.0039,-5.0039,-5.0039,-5.0039,-5.0039,-5.0735,-5.2912,-5.3445,-5.557,-5.9977,-6.0496,-6.1769,-6.4304,-6.4304,-6.4304,-6.4304,-6.4304,-6.4304,-6.4304,-6.4304,-6.4304,-6.4304,-6.4304,-6.4304,-1.688,-1.6364,-1.5527,-1.2642,-1.2045,-1.2464,-1.3651,-1.395,-1.4681,-1.7757,-1.8693,-1.9771,-2.26,-2.3905,-2.4741,-2.5956,-2.6632,-2.71,-2.7346,-2.8372,-2.9582,-3.0926,-3.2184,-3.3286,-3.4693,-3.5773,-3.6311,-3.6311,-3.8236,-3.9996,-4.139,-4.229,-4.3549,-4.48,-4.497,-4.497,-4.497,-4.497,-4.497,-4.497,-4.497,-4.5179,-4.554,-4.554,-4.5995,-4.6774,-4.6774,-4.7039,-4.7495,-4.7856,-4.8008,-4.8045,-4.8444,-4.8596,-4.8596,-4.8596,-4.8881,-4.9298,-4.9298,-4.8753,-4.8115,-4.8115,-4.7694,-4.7099,-4.7099,-4.842,-5.0039,-5.0039,-5.0039,-5.0039,-5.0039,-5.0039,-5.0039,-5.0039,-5.0039,-5.0039,-5.0039,-5.0039,-5.0039,-5.0039,-5.0039,-5.0039,-5.0039,-5.0039,-5.0039,-5.0039,-5.0039,-5.0039,-5.0039,-5.0039,-5.0039,-5.0039,-5.0039,-5.0923,-5.3445,-5.4866,-5.6984,-6.0519,-6.194,-6.3199,-6.4304,-6.4304,-6.4304,-6.4304,-6.4304,-6.4304,-6.4304,-6.4304,-6.4304,-6.4304,-6.4304,-6.4304,-1.6682,-1.6773,-1.6242,-1.3021,-1.2843,-1.3814,-1.4841,-1.5498,-1.6891,-2.0234,-2.128,-2.215,-2.4247,-2.5516,-2.6308,-2.6308,-2.6918,-2.7385,-2.7385,-2.8372,-2.9756,-3.1587,-3.2704,-3.4194,-3.5937,-3.6653,-3.6847,-3.6116,-3.7172,-3.859,-4.0345,-4.1581,-4.3169,-4.48,-4.497,-4.497,-4.497,-4.497,-4.497,-4.497,-4.497,-4.497,-4.497,-4.497,-4.5331,-4.5919,-4.5919,-4.6261,-4.685,-4.7058,-4.7153,-4.7172,-4.7381,-4.7457,-4.7457,-4.7457,-4.7856,-4.8368,-4.8159,-4.7542,-4.6532,-4.6297,-4.5525,-4.505,-4.5981,-4.7897,-4.9938,-4.9923,-4.9961,-4.9999,-4.9982,-5.0039,-5.0039,-5.0039,-5.0039,-5.0039,-5.0039,-5.0039,-5.0039,-5.0039,-5.0039,-5.0039,-5.0039,-5.0039,-5.0039,-5.0039,-5.0039,-5.0039,-5.0039,-5.0039,-5.0039,-5.0039,-5.0039,-5.0923,-5.3445,-5.5208,-5.7518,-6.0496,-6.2304,-6.3753,-6.4304,-6.4304,-6.4304,-6.4304,-6.4304,-6.4304,-6.4304,-6.4304,-6.4304,-6.4304,-6.4304,-6.4304,-1.5742,-1.6344,-1.6255,-1.4198,-1.5299,-1.6427,-1.5016,-1.6324,-1.8501,-2.0525,-2.0983,-2.1587,-2.3657,-2.4918,-2.5723,-2.5723,-2.6658,-2.7385,-2.7385,-2.8372,-2.9261,-2.9261,-3.0253,-3.0946,-3.113,-3.3118,-3.365,-3.1301,-3.5399,-3.7898,-3.8075,-4.2308,-4.48,-4.497,-4.497,-4.497,-4.497,-4.497,-4.497,-4.497,-4.497,-4.497,-4.497,-4.497,-4.5008,-4.5046,-4.5046,-4.5065,-4.5179,-4.5976,-4.6318,-4.6394,-4.7153,-4.7457,-4.7457,-4.7457,-4.7495,-4.7419,-4.6641,-4.6597,-4.6514,-4.5339,-4.4925,-4.5431,-4.8738,-4.9768,-4.9964,-5.0004,-4.9995,-4.9965,-5.0056,-5.0039,-5.0039,-5.0039,-5.0039,-5.0039,-5.0039,-5.0039,-5.0039,-5.0039,-5.0039,-5.0039,-5.0039,-5.0039,-5.0039,-5.0039,-5.0039,-5.0039,-5.0039,-5.0039,-5.0039,-5.0039,-5.0039,-5.0923,-5.3445,-5.3812,-5.575,-6.0323,-6.0692,-6.194,-6.428,-6.4304,-6.4304,-6.4304,-6.4304,-6.4304,-6.4304,-6.4304,-6.4304,-6.4304,-6.4304,-6.4304,-1.4394,-1.4517,-1.448,-1.3682,-1.4219,-1.5463,-1.7118,-1.859,-2.0067,-2.193,-2.2924,-2.3704,-2.4464,-2.5425,-2.6217,-2.6217,-2.6879,-2.7385,-2.7385,-2.8048,-2.8671,-2.9047,-2.9762,-3.0372,-3.0736,-3.2935,-3.4722,-3.5219,-3.7009,-3.859,-4.0171,-4.1754,-4.3359,-4.48,-4.497,-4.497,-4.497,-4.497,-4.497,-4.497,-4.497,-4.497,-4.497,-4.497,-4.497,-4.497,-4.497,-4.497,-4.5008,-4.5293,-4.5426,-4.5464,-4.5749,-4.5862,-4.5862,-4.5862,-4.6223,-4.6565,-4.5711,-4.5424,-4.544,-4.4981,-4.4874,-4.5069,-4.6408,-4.6786,-4.6787,-4.6651,-4.837,-4.994,-5.0012,-5.0014,-4.9933,-4.9933,-4.9904,-5.0039,-5.0039,-5.0039,-5.0039,-5.0039,-5.0039,-5.0039,-5.0039,-5.0039,-5.0039,-5.0039,-5.0039,-5.0039,-5.0039,-5.0039,-5.0039,-5.0039,-5.0039,-5.0923,-5.3445,-5.3629,-5.557,-6.0323,-6.0692,-6.1769,-6.4304,-6.4304,-6.4304,-6.4304,-6.4304,-6.4304,-6.4304,-6.4304,-6.4304,-6.4304,-6.4304,-6.4304,-1.3011,-1.3537,-1.3759,-1.3252,-1.4667,-1.6672,-1.8014,-1.9614,-2.1292,-2.2884,-2.3814,-2.4414,-2.4597,-2.5282,-2.5996,-2.6204,-2.6723,-2.7165,-2.7359,-2.7866,-2.8437,-2.9021,-2.958,-3.0512,-3.1798,-3.327,-3.5174,-3.7689,-3.859,-3.9821,-4.139,-4.2118,-4.3359,-4.48,-4.497,-4.497,-4.497,-4.497,-4.497,-4.497,-4.497,-4.497,-4.497,-4.497,-4.497,-4.497,-4.497,-4.497,-4.497,-4.497,-4.497,-4.497,-4.497,-4.497,-4.497,-4.497,-4.5331,-4.573,-4.5179,-4.497,-4.497,-4.497,-4.4913,-4.4906,-4.4906,-4.4837,-4.4856,-4.4881,-4.657,-4.8312,-4.8346,-4.8332,-4.8532,-4.9752,-4.9975,-4.9991,-5.0015,-4.9885,-4.9942,-4.9982,-5.0039,-5.0039,-5.0039,-5.0039,-5.0039,-5.0039,-5.0039,-5.0039,-5.0039,-5.0039,-5.0039,-5.0039,-5.0039,-5.0566,-5.2191,-5.2377,-5.4158,-5.805,-5.9105,-6.0519,-6.303,-6.3921,-6.4109,-6.3743,-6.3718,-6.3548,-6.3206,-6.3206,-6.3206,-6.3206,-6.3206,-6.3206,-1.1515,-1.3411,-1.4427,-1.2879,-1.6826,-2.0399,-1.712,-1.9352,-2.22,-2.2906,-2.3048,-2.3243,-2.3789,-2.4373,-2.512,-2.5554,-2.6139,-2.671,-2.7282,-2.784,-2.8411,-2.8996,-2.9541,-3.0986,-3.4078,-3.3914,-3.484,-3.7802,-4.0154,-4.1563,-4.1563,-4.372,-4.497,-4.497,-4.497,-4.497,-4.497,-4.497,-4.497,-4.497,-4.497,-4.497,-4.497,-4.497,-4.497,-4.497,-4.497,-4.497,-4.497,-4.497,-4.497,-4.497,-4.497,-4.497,-4.497,-4.497,-4.497,-4.497,-4.497,-4.497,-4.497,-4.497,-4.497,-4.497,-4.497,-4.497,-4.4933,-4.4844,-4.4837,-4.4967,-4.4849,-4.4834,-4.5771,-4.9096,-4.9849,-4.9866,-4.9743,-4.9898,-4.9907,-4.983,-4.9982,-4.9982,-4.9982,-5.0001,-5.0039,-5.0039,-4.9982,-4.9944,-4.9944,-4.9944,-4.9963,-4.9982,-5.002,-5.002,-5.0001,-4.9982,-5.1052,-5.3364,-5.5665,-5.8137,-6.0427,-6.2911,-6.367,-6.2596,-6.2571,-6.2059,-6.101,-6.101,-6.101,-6.101,-6.101,-6.101,-1.0143,-1.1367,-1.2486,-1.225,-1.4287,-1.6537,-1.7038,-1.8462,-2.0188,-2.154,-2.2503,-2.3126,-2.3282,-2.4258,-2.4976,-2.5146,-2.5866,-2.6421,-2.6736,-2.7256,-2.7827,-2.8398,-2.8606,-2.9756,-3.2893,-3.4939,-3.7092,-3.9713,-4.2328,-4.391,-4.391,-4.4611,-4.497,-4.497,-4.497,-4.497,-4.497,-4.497,-4.497,-4.497,-4.497,-4.497,-4.497,-4.497,-4.497,-4.497,-4.497,-4.497,-4.497,-4.497,-4.497,-4.497,-4.497,-4.497,-4.497,-4.497,-4.497,-4.497,-4.497,-4.497,-4.497,-4.497,-4.497,-4.497,-4.497,-4.497,-4.4838,-4.4856,-4.4894,-4.4931,-4.4929,-4.4956,-4.5171,-4.6099,-4.6317,-4.6334,-4.6321,-4.7305,-4.8132,-4.814,-4.845,-4.8828,-4.8828,-4.9396,-5.0039,-5.0039,-4.8976,-4.8159,-4.8159,-4.8159,-4.8406,-4.9014,-4.9659,-4.9773,-4.9146,-4.909,-4.9888,-5.167,-5.249,-5.4556,-5.852,-5.9395,-6.0261,-6.1473,-6.1473,-6.1302,-6.101,-6.101,-6.101,-6.101,-6.101,-6.101,-0.9197,-1.0406,-1.1529,-1.0963,-1.2726,-1.4799,-1.5862,-1.7304,-1.8826,-2.0706,-2.1737,-2.2438,-2.2672,-2.3451,-2.4284,-2.4373,-2.5191,-2.5957,-2.645,-2.6814,-2.732,-2.8126,-2.8009,-2.9067,-3.1949,-3.471,-3.7279,-3.9926,-4.2759,-4.4477,-4.4477,-4.4799,-4.497,-4.497,-4.497,-4.497,-4.497,-4.497,-4.497,-4.497,-4.497,-4.497,-4.497,-4.497,-4.497,-4.497,-4.497,-4.497,-4.497,-4.497,-4.497,-4.497,-4.497,-4.497,-4.497,-4.497,-4.497,-4.497,-4.497,-4.497,-4.497,-4.497,-4.497,-4.497,-4.497,-4.497,-4.497,-4.497,-4.497,-4.497,-4.497,-4.4913,-4.4831,-4.4831,-4.4937,-4.4903,-4.4985,-4.6028,-4.7058,-4.7145,-4.7618,-4.7958,-4.7958,-4.8412,-4.8957,-4.8957,-4.8102,-4.7457,-4.7457,-4.7457,-4.7647,-4.814,-4.8653,-4.8748,-4.8235,-4.8197,-4.8693,-4.9553,-5.0546,-5.2755,-5.6155,-5.7359,-5.8664,-6.0399,-6.0399,-6.018,-5.9716,-5.9716,-5.9716,-5.9716,-5.9716,-5.9716,-0.879,-1.0049,-1.0925,-0.9506,-1.1659,-1.412,0.0,-1.55,-1.7524,-1.9732,-2.044,-2.1027,-2.18,-2.2407,-2.3013,-2.3724,-2.4308,-2.5061,-2.6178,-2.6437,-2.6879,-2.7827,-2.7554,-2.8271,-3.0864,-3.3518,-3.599,-3.8591,-4.1763,-4.3623,-4.3623,-4.4401,-4.4837,-4.4837,-4.4932,-4.497,-4.497,-4.497,-4.497,-4.497,-4.497,-4.497,-4.497,-4.497,-4.497,-4.497,-4.497,-4.497,-4.497,-4.497,-4.497,-4.497,-4.497,-4.497,-4.497,-4.497,-4.497,-4.497,-4.497,-4.497,-4.497,-4.497,-4.497,-4.497,-4.497,-4.497,-4.497,-4.497,-4.497,-4.497,-4.497,-4.497,-4.497,-4.497,-4.497,-4.4952,-4.4826,-4.5666,-4.6531,-4.6374,-4.6815,-4.7324,-4.7324,-4.74,-4.74,-4.721,-4.7172,-4.7172,-4.7172,-4.7172,-4.7229,-4.7324,-4.7324,-4.7362,-4.7457,-4.7381,-4.7286,-4.7191,-4.9235,-5.1432,-5.3793,-5.6005,-5.7778,-5.8862,-5.9171,-5.8709,-5.7584,-5.776,-5.791,-5.791,-5.791,-5.7788,0.0,0.0,0.0,0.0,0.0,0.0,0.0,-1.263,-1.3976,-1.6887,-1.7248,-1.7775,-2.044,-2.063,-2.0913,-2.3001,-2.3711,-2.4321,-2.5022,-2.5931,-2.6437,-2.6204,-2.6476,-2.6883,-2.7456,-3.2008,-3.5143,-3.5778,-4.0127,-4.2787,-4.2787,-4.3547,-4.4002,-4.4002,-4.4629,-4.497,-4.497,-4.497,-4.497,-4.497,-4.497,-4.497,-4.497,-4.497,-4.497,-4.497,-4.497,-4.497,-4.497,-4.497,-4.497,-4.497,-4.497,-4.497,-4.497,-4.497,-4.497,-4.497,-4.497,-4.497,-4.497,-4.497,-4.497,-4.497,-4.497,-4.497,-4.497,-4.497,-4.497,-4.497,-4.497,-4.497,-4.497,-4.497,-4.497,-4.4838,-4.4952,-4.5027,-4.5274,-4.5235,-4.5995,-4.647,-4.647,-4.7039,-4.7001,-4.5673,-4.5464,-4.5464,-4.5464,-4.5464,-4.573,-4.6413,-4.647,-4.6736,-4.74,-4.6869,-4.6185,-4.5502,-4.5788,-4.7916,-5.1861,-5.2508,-5.3701,-5.556,-5.7395,-5.7274,-5.5256,-5.7082,-5.791,-5.791,-5.791,-5.6959,0.0,0.0,0.0,0.0,0.0,0.0,0.0,0.0,0.0,0.0,0.0,-1.6828,-1.854,0.0,-2.0364,-2.0916,-2.2381,-2.3698,-2.4269,-2.51,-2.5438,-2.4866,-2.5567,-2.61,-2.61,-2.9829,-3.2444,-3.2444,-3.7264,-4.0389,-4.0389,-4.2189,-4.3148,-4.3148,-4.3547,-4.3964,-4.4363,-4.4363,-4.4572,-4.497,-4.497,-4.497,-4.497,-4.497,-4.497,-4.497,-4.497,-4.497,-4.497,-4.497,-4.497,-4.497,-4.497,-4.497,-4.497,-4.497,-4.497,-4.497,-4.497,-4.497,-4.497,-4.497,-4.497,-4.497,-4.497,-4.497,-4.497,-4.497,-4.497,-4.497,-4.497,-4.497,-4.497,-4.497,-4.497,-4.497,-4.497,-4.497,-4.497,-4.497,-4.5331,-4.5616,-4.5616,-4.5957,-4.5938,-4.5103,-4.497,-4.497,-4.497,-4.497,-4.5141,-4.5559,-4.5616,-4.5768,-4.6185,-4.5843,-4.5426,-4.5008,-4.497,-4.6432,-4.9658,-4.9821,-5.0792,-5.3026,-5.4193,-5.4406,-5.3851,-5.4987,-5.5849,-5.6275,-5.532,-5.4744,0.0,0.0,0.0,0.0,0.0,0.0,0.0,0.0,0.0,0.0,0.0,0.0,0.0,0.0,0.0,-1.8902,-2.0901,-2.2815,-2.349,-2.3983,-2.4152,-2.3802,-2.4697,-2.5386,-2.549,-2.7969,-2.9547,-2.9547,-3.4423,-3.7532,-3.769,-4.0431,-4.2123,-4.2294,-4.2465,-4.2863,-4.3509,-4.3528,-4.3869,-4.4496,-4.4496,0.0,-4.4742,-4.4742,-4.4837,-4.497,-4.497,-4.497,-4.497,-4.497,-4.497,-4.4951,-4.4629,-4.4496,-4.4496,-4.4496,-4.4496,-4.4496,-4.4496,-4.4496,-4.4496,-4.4496,-4.4496,-4.4534,-4.4686,-4.4742,0.0,-4.4932,-4.497,-4.497,-4.497,-4.497,-4.497,-4.497,-4.497,-4.497,-4.497,-4.497,-4.497,-4.497,-4.497,-4.497,-4.497,-4.497,-4.497,-4.497,-4.497,-4.497,-4.497,-4.497,-4.497,-4.497,-4.497,-4.497,-4.497,-4.497,-4.497,-4.497,-4.497,-4.5947,-4.8182,-4.8182,-4.8921,-5.0556,-5.1036,-5.1325,-5.1708,-5.2034,-5.2841,-5.3997,-5.1353,-5.1002,0.0,0.0,0.0,0.0,0.0,0.0,0.0,0.0,0.0,0.0,0.0,0.0,0.0,0.0,0.0,0.0,-1.9827,-2.1192,-2.2256,-2.2451,-2.2672,-2.3113,-2.3724,-2.4308,-2.4976,-2.7311,-2.8875,-2.8875,-3.2757,-3.5549,-3.6203,-3.8864,0.0,0.0,0.0,-4.2578,-4.2673,-4.2673,-4.273,-4.2825,-4.2825,-4.3186,-4.3888,-4.3888,-4.4287,-4.497,-4.497,-4.497,-4.497,-4.497,-4.497,-4.4837,-4.3376,-4.2825,-4.2825,-4.2825,-4.2825,-4.2825,-4.2825,0.0,0.0,-4.2825,-4.2825,-4.2958,-4.3679,-4.3888,-4.404,-4.478,-4.497,-4.497,-4.497,-4.497,-4.497,-4.497,-4.497,-4.497,-4.497,-4.497,-4.497,-4.497,-4.497,-4.497,-4.497,-4.497,-4.497,-4.497,-4.497,-4.497,-4.497,-4.497,-4.497,-4.497,-4.497,0.0,-4.497,-4.497,-4.497,-4.497,-4.497,-4.5947,-4.8182,-4.8182,-4.7979,-4.7522,-4.9388,-4.9072,-4.6587,-4.8453,-5.0369,-5.1908,-4.6631,-4.501,0.0,0.0,0.0,0.0,0.0,0.0,0.0,0.0,0.0,0.0,0.0,0.0,0.0,0.0,0.0,0.0,-1.8479,-1.932,-1.9013,-2.0302,-2.1321,-2.1697,-2.2386,-2.3022,-2.3269,-2.4951,-2.5929,-2.5929,-2.9222,-3.1408,-3.1694,-3.4084,-3.5455,-3.5804,-3.7683,-3.8969,-3.9444,-4.1063,-4.2066,-4.254,-4.254,-4.273,-4.3053,-4.3053,-4.3243,-4.3566,-4.3566,-4.3566,-4.3566,-4.3566,-4.3566,-4.349,0.0,0.0,0.0,0.0,-4.254,-4.254,-4.254,-4.254,-4.254,-4.254,-4.254,-4.2616,-4.2958,-4.3053,-4.3129,-4.3471,-4.3566,-4.3566,-4.3566,-4.3926,-4.4268,-4.4268,-4.4629,-4.497,-4.497,-4.497,-4.497,-4.497,-4.497,0.0,-4.4344,-4.4667,-4.497,-4.497,-4.497,-4.497,-4.497,-4.497,-4.497,-4.497,-4.497,-4.497,-4.497,-4.497,0.0,0.0,0.0,-4.508,-4.556,-4.5521,0.0,0.0,0.0,-4.4347,-4.3332,-4.4215,0.0,0.0,-4.1413,-4.108,0.0,0.0,0.0,0.0,0.0,0.0,0.0,0.0,0.0,0.0,0.0,0.0,0.0,0.0,0.0,0.0,-1.7142,-1.7964,-1.7198,-1.8479,-1.9803,-2.049,-2.1243,-2.1867,-2.2178,-2.2957,-2.3438,-2.3438,-2.6052,-2.7867,-2.8217,-3.0256,-3.158,-3.1807,-3.3846,-3.5173,-3.5879,-3.7701,-3.8933,-3.9674,-4.0404,-4.0961,-4.1185,-4.1926,-4.2332,-4.254,-4.254,-4.254,-4.254,-4.254,-4.254,-4.2446,-4.1515,-4.1155,-4.1155,-4.1155,-4.1155,-4.1155,-4.1155,-4.1155,-4.1155,-4.1155,-4.1155,-4.1193,-4.142,-4.1496,-4.1591,-4.2066,-4.2199,-4.2256,-4.2484,-4.2996,-4.3433,-4.3433,-4.3888,-4.4306,-4.4306,-4.4306,-4.4306,-4.4306,-4.4306,-4.4135,-4.3528,-4.3926,-4.4306,-4.4306,-4.4496,-4.4648,-4.4648,-4.4837,-4.497,-4.497,-4.497,-4.497,-4.497,-4.497,-4.4875,-4.4648,-4.4648,-4.4287,-4.3452,-4.3205,-4.2503,-4.1307,-4.0585,-4.0228,0.0,0.0,0.0,0.0,0.0,0.0,0.0,0.0,0.0,0.0,0.0,0.0,0.0,0.0,0.0,0.0,0.0,0.0,0.0,0.0,0.0,0.0,0.0,0.0,-1.7876,-1.7242,-1.7737,-2.0277,-2.0678,-2.101,-2.21,-2.2243,-2.2256,-2.2256,-2.4009,-2.5752,-2.6985,-2.8985,-3.0571,-3.1774,-3.1986,-3.2019,-3.2035,-3.2068,-3.2232,-3.2264,-3.4966,-3.6655,-3.7573,-4.0133,-4.1762,-4.254,-4.254,-4.254,-4.254,-4.254,-4.254,-4.2218,-3.8934,-3.7643,-3.7643,-3.7643,-3.7643,-3.7643,-3.7643,-3.7643,-3.7643,-3.7643,-3.7643,-3.7795,-3.8592,-3.8839,-3.9181,-4.0851,-4.1307,-4.1515,-4.2332,-4.2559,-4.2578,-4.2578,-4.2597,-4.2616,-4.2616,-4.2616,-4.2616,-4.2616,-4.2616,-4.2616,-4.2578,-4.2597,-4.2616,-4.2616,-4.33,0.0,-4.3793,-4.4496,-4.497,-4.497,-4.497,-4.497,-4.497,-4.497,-4.4648,-4.385,-4.3793,-4.3433,-4.2616,-4.18,-4.1326,-4.1269,-3.8858,-3.7187,-3.6295,0.0,0.0,0.0,0.0,0.0,0.0,0.0,0.0,0.0,0.0,0.0,0.0,0.0,0.0,0.0,0.0,0.0,0.0,0.0,0.0,0.0,0.0,0.0,0.0,-1.624,-1.749,-1.7521,-1.8693,-1.9698,-2.0451,-2.0867,-2.1243,-2.162,-2.251,-2.3296,-2.3837,-2.4378,-2.4967,-2.5377,-2.7585,-2.8604,-2.8604,-3.0772,-3.1823,-3.1823,-3.2822,-3.3368,-3.3768,-3.4638,-3.5196,-3.5589,-3.6885,-3.7354,-3.7523,-3.8736,-3.8858,-3.825,-3.7111,-3.6314,-3.584,-3.584,-3.584,-3.584,-3.584,-3.584,-3.584,-3.584,-3.6219,-3.6713,-3.6979,-3.7453,-3.8023,-3.8611,-3.8763,-3.8839,-3.9124,-3.9598,-4.0149,-4.0699,-4.1288,-4.1857,-4.2408,-4.254,-4.254,-4.254,-4.1174,-3.9997,-3.9997,-4.0946,-4.1705,-4.1705,-4.2427,-4.2958,-4.2958,-4.3186,-4.3357,-4.3357,-4.3357,-4.3357,-4.3357,-4.3357,-4.3243,-4.2977,-4.2958,-4.2313,-4.0908,-4.0566,-3.9636,-3.7822,-3.6561,-3.5156,-3.3643,0.0,0.0,0.0,0.0,0.0,0.0,0.0,0.0,0.0,0.0,0.0,0.0,0.0,0.0,0.0,0.0,0.0,0.0,0.0,0.0,0.0,0.0,0.0,0.0,0.0,0.0,-1.6624,-1.7734,0.0,-1.9309,-1.9698,-2.0075,-2.0438,-2.0802,-2.1088,-2.1295,-2.1503,-2.1711,-2.1906,-2.4149,-2.5348,-2.5348,-2.7369,-2.8482,-2.8355,-2.9456,-2.9977,-3.0229,-3.1192,-3.1742,-3.197,-3.3938,-3.486,-3.4771,-3.5496,-3.5116,-3.4059,-3.4059,-3.3349,-3.2499,-3.3039,-3.3299,-3.3299,-3.3854,-3.4131,-3.4131,-3.4131,-3.4062,-3.4059,-3.4059,-3.443,-3.4913,-3.5209,-3.5733,-3.6295,-3.6884,-3.7434,-3.8042,-3.8896,-3.9522,-4.0073,-4.0623,-4.0737,-4.0661,-4.0338,-3.8953,-3.7928,-3.8231,-3.92,-3.9921,-3.9921,-4.0889,-4.1629,-4.1629,-4.2161,-4.254,-4.254,-4.254,-4.254,-4.254,-4.254,-4.2294,-4.1667,-4.1629,-4.087,-3.9162,-3.8516,-3.7301,-3.5403,-3.4245,-3.284,0.0,0.0,0.0,0.0,0.0,0.0,0.0,0.0,0.0,0.0,0.0,0.0,0.0,0.0,0.0,0.0,0.0,0.0,0.0,0.0,0.0,0.0,0.0,0.0,0.0,0.0,0.0,-1.7482,-1.7773,0.0,0.0,0.0,0.0,-1.8828,-1.8828,-1.9049,-1.9594,-2.014,-2.0685,-2.1218,-2.1789,-2.2075,-2.2075,-2.2139,-2.2165,-2.2165,-2.474,-2.631,-2.6912,-2.9614,-3.114,-3.1759,-3.3714,-3.4469,-3.44,-3.2818,-3.1327,-2.9856,-2.9856,-2.8948,-2.7798,-2.9305,-2.9804,-3.0052,-3.1622,-3.2149,-3.2149,-3.2149,-3.1112,-2.9928,-2.9981,-3.0016,0.0,0.0,-3.2377,-3.4017,-3.5439,-3.5874,-3.6257,-3.7111,-3.7301,-3.732,-3.7358,-3.7358,-3.7092,-3.6143,-3.5874,-3.6276,-3.7035,0.0,-3.732,-3.7358,-3.8744,-3.9807,-3.9845,-4.1307,-4.2351,-4.2351,-4.2389,-4.2408,-4.2408,-4.237,-4.1648,-4.0016,-3.9883,-3.9105,-3.7434,-3.5802,-3.453,-3.3619,-3.2069,0.0,0.0,0.0,0.0,0.0,0.0,0.0,0.0,0.0,0.0,0.0,0.0,0.0,0.0,0.0,0.0,0.0,0.0,0.0,0.0,0.0,0.0,0.0,0.0,0.0,0.0,-1.4005,-1.5181,-1.5106,-1.6097,-1.7101,0.0,0.0,0.0,0.0,0.0,0.0,-1.9036,-1.9179,-1.9322,-1.9465,-2.0023,-2.0309,-2.0309,-2.1166,-2.1581,-2.1594,-2.2683,-2.3966,-2.5338,-2.6019,-2.7106,-2.8315,-3.0166,-3.1099,-3.0941,-2.9637,-2.8008,-2.6212,-2.6212,-2.5532,-2.4713,-2.5052,-2.5164,-2.5389,-2.6746,-2.7299,-2.7409,-2.8432,-2.7757,-2.6834,-2.7418,0.0,0.0,0.0,0.0,-3.1846,-3.1259,-3.2204,-3.3676,-3.453,-3.4739,-3.4909,-3.5517,-3.565,-3.5023,-3.2916,-3.303,-3.3334,-3.2897,-3.3884,0.0,-3.5555,-3.6523,-3.7415,-3.8042,-3.9048,-3.9693,-3.9693,-4.0244,-4.0623,-4.0623,-4.0054,-3.9503,-3.9067,-3.8459,-3.7377,-3.5707,-3.4644,-3.3106,-3.098,0.0,0.0,0.0,0.0,0.0,0.0,0.0,0.0,0.0,0.0,0.0,0.0,0.0,0.0,0.0,0.0,0.0,0.0,0.0,0.0,0.0,0.0,0.0,0.0,0.0,0.0,0.0,-1.2711,-1.4486,-1.4661,-1.5404,-1.6153,0.0,0.0,0.0,0.0,0.0,0.0,0.0,0.0,0.0,-1.8439,-1.8997,-1.9296,-1.9296,-1.9932,-2.0257,-2.0257,-2.0568,-2.1353,-2.2472,-2.2472,-2.3113,-2.4351,-2.6705,-2.7441,-2.7002,-2.6282,-2.4903,-2.3317,0.0,0.0,0.0,0.0,-2.2517,-2.2734,-2.4157,-2.4586,-2.4693,-2.5438,0.0,0.0,0.0,0.0,0.0,0.0,0.0,-2.8732,-2.91,-3.0024,-3.1075,-3.191,-3.21,-3.2328,-3.3163,-3.1598,-2.9686,-2.868,-2.886,-2.9265,-2.9726,-3.0915,0.0,0.0,0.0,-3.5859,-3.6333,-3.7434,-3.8174,-3.8174,-3.8611,-3.8896,-3.8896,-3.8459,-3.7852,-3.713,-3.6656,-3.5498,-3.3429,-3.2556,-3.1094,0.0,0.0,0.0,0.0,0.0,0.0,0.0,0.0,0.0,0.0,0.0,0.0,0.0,0.0,0.0,0.0,0.0,0.0,0.0,0.0,0.0,0.0,0.0,0.0,0.0,0.0,0.0,0.0,0.0,-1.3098,-1.4739,0.0,0.0,0.0,0.0,0.0,0.0,0.0,0.0,0.0,0.0,0.0,0.0,0.0,-1.8413,-1.8257,-1.8556,-1.8711,-1.8711,-1.8789,-1.9189,-1.9893,-1.9893,-2.0289,-2.1118,-2.3405,0.0,-2.2682,-2.2816,0.0,0.0,0.0,0.0,0.0,0.0,0.0,0.0,0.0,0.0,0.0,0.0,0.0,0.0,0.0,0.0,0.0,0.0,0.0,0.0,0.0,0.0,-2.8759,-2.9461,-2.9501,-2.9577,-3.0429,-2.7057,-2.4099,-2.4842,-2.5043,-2.5518,0.0,0.0,0.0,0.0,0.0,0.0,-3.4814,-3.62,-3.7206,-3.7301,-3.7415,-3.7491,-3.7491,-3.7282,-3.6542,-3.5099,-3.4701,-3.3467,-3.1014,-3.0031,0.0,0.0,0.0,0.0,0.0,0.0,0.0,0.0,0.0,0.0,0.0,0.0,0.0,0.0,0.0,0.0,0.0,0.0,0.0,0.0,0.0,0.0,0.0,0.0,0.0,0.0,0.0,0.0,0.0,0.0,0.0,0.0,0.0,0.0,0.0,0.0,0.0,0.0,0.0,0.0,0.0,0.0,0.0,0.0,0.0,0.0,0.0,0.0,0.0,0.0,-1.8595,-1.9517,-2.0917,-2.0917,-2.1658,-2.2939,-2.0937,-1.9421,-1.828,-1.8958,0.0,0.0,0.0,0.0,0.0,0.0,0.0,0.0,0.0,0.0,0.0,0.0,0.0,0.0,0.0,0.0,0.0,0.0,0.0,0.0,0.0,0.0,-2.7734,-2.7761,-2.7039,-2.6361,-2.7015,0.0,0.0,0.0,0.0,0.0,0.0,0.0,0.0,0.0,0.0,0.0,-3.3732,-3.4852,-3.5707,-3.6371,-3.7073,-3.7491,-3.7491,-3.6219,-3.5308,-3.5023,-3.303,-3.0884,0.0,0.0,0.0,0.0,0.0,0.0,0.0,0.0,0.0,0.0,0.0,0.0,0.0,0.0,0.0,0.0,0.0,0.0,0.0,0.0,0.0,0.0,0.0,0.0,0.0,0.0,0.0,0.0,0.0,0.0,0.0,0.0,0.0,0.0,0.0,0.0,0.0,0.0,0.0,0.0,0.0,0.0,0.0,0.0,0.0,0.0,0.0,0.0,0.0,0.0,0.0,0.0,0.0,0.0,0.0,0.0,0.0,0.0,-1.7979,-1.6787,0.0,0.0,0.0,0.0,0.0,0.0,0.0,0.0,0.0,0.0,0.0,0.0,0.0,0.0,0.0,0.0,0.0,0.0,0.0,0.0,0.0,0.0,0.0,0.0,0.0,0.0,0.0,0.0,0.0,0.0,0.0,0.0,0.0,0.0,0.0,0.0,0.0,0.0,0.0,0.0,-3.1644,-3.2916,-3.3865,-3.4134,-3.4663,-3.4909,-3.4909,-3.4169,-3.2955,-3.1419,-3.0872,0.0,0.0,0.0,0.0,0.0,0.0,0.0,0.0,0.0,0.0,0.0,0.0,0.0,0.0,0.0,0.0,0.0,0.0,0.0,0.0,0.0,0.0,0.0,0.0,0.0,0.0,0.0,0.0,0.0,0.0,0.0,0.0,0.0,0.0,0.0,0.0,0.0,0.0,0.0,0.0,0.0,0.0,0.0,0.0,0.0,0.0,0.0,0.0,0.0,0.0,0.0,0.0,0.0,0.0,0.0,0.0,0.0,0.0,0.0,-1.5334,-1.4946,0.0,0.0,0.0,0.0,0.0,0.0,0.0,0.0,0.0,0.0,0.0,0.0,0.0,0.0,0.0,0.0,0.0,0.0,0.0,0.0,0.0,0.0,0.0,0.0,0.0,0.0,0.0,0.0,0.0,0.0,0.0,0.0,0.0,0.0,0.0,0.0,0.0,0.0,0.0,0.0,-2.9898,-3.1132,-3.1997,-3.248,-3.2395,-3.2395,-3.2395,-3.2347,-3.109,-2.8526,-2.8808,0.0,0.0,0.0,0.0,0.0,0.0,0.0,0.0,0.0,0.0,0.0,0.0,0.0,0.0,0.0,0.0,0.0,0.0,0.0,0.0,0.0,0.0,0.0,0.0,0.0,0.0,0.0,0.0,0.0,0.0,0.0,0.0,0.0,0.0,0.0,0.0,0.0,0.0,0.0,0.0,0.0,0.0,0.0,0.0,0.0,0.0,0.0,0.0,0.0,0.0,0.0,0.0,0.0,0.0,0.0,0.0,0.0,0.0,0.0,0.0,0.0,0.0,0.0,0.0,0.0,0.0,0.0,0.0,0.0,0.0,0.0,0.0,0.0,0.0,0.0,0.0,0.0,0.0,0.0,0.0,0.0,0.0,0.0,0.0,0.0,0.0,0.0,0.0,0.0,0.0,0.0,0.0,0.0,0.0,0.0,0.0,0.0,0.0,0.0,0.0,0.0,-2.967,-3.0088,-3.079,-3.2366,-3.2395,-3.2395,-3.2395,-3.1796,-3.0942,-2.9785,0.0,0.0,0.0,0.0,0.0,0.0,0.0,0.0,0.0,0.0,0.0,0.0,0.0,0.0,0.0,0.0,0.0,0.0,0.0,0.0,0.0,0.0,0.0,0.0,0.0,0.0,0.0,0.0,0.0,0.0,0.0,0.0,0.0,0.0,0.0,0.0,0.0,0.0,0.0,0.0,0.0,0.0,0.0,0.0,0.0,0.0,0.0,0.0,0.0,0.0,0.0,0.0,0.0,0.0,0.0,0.0,0.0,0.0,0.0,0.0,0.0,0.0,0.0,0.0,0.0,0.0,0.0,0.0,0.0,0.0,0.0,0.0,0.0,0.0,0.0,0.0,0.0,0.0,0.0,0.0,0.0,0.0,0.0,0.0,0.0,0.0,0.0,0.0,0.0,0.0,0.0,0.0,0.0,0.0,0.0,0.0,0.0,0.0,0.0,0.0,0.0,0.0,-2.7601,-2.8607,-2.948,-3.0183,-3.0676,-3.098,-3.098,-3.0221,-2.868,-2.6296,0.0,0.0,0.0,0.0,0.0,0.0,0.0,0.0,0.0,0.0,0.0,0.0,0.0,0.0,0.0,0.0,0.0,0.0,0.0,0.0,0.0,0.0,0.0,0.0,0.0,0.0,0.0,0.0,0.0,0.0,0.0,0.0,0.0,0.0,0.0,0.0,0.0,0.0,0.0,0.0,0.0,0.0,0.0,0.0,0.0,0.0,0.0,0.0,0.0,0.0,0.0,0.0,0.0,0.0,0.0,0.0,0.0,0.0,0.0,0.0,0.0,0.0,0.0,0.0,0.0,0.0,0.0,0.0,0.0,0.0,0.0,0.0,0.0,0.0,0.0,0.0,0.0,0.0,0.0,0.0,0.0,0.0,0.0,0.0,0.0,0.0,0.0,0.0,0.0,0.0,0.0,0.0,0.0,0.0,0.0,0.0,0.0,0.0,0.0,0.0,0.0,0.0,-2.6215,-2.7278,-2.8095,-2.8341,-2.8873,-2.9234,-2.9234,-2.8702,-2.7024,-2.3995,0.0,0.0,0.0,0.0,0.0,0.0,0.0,0.0,0.0,0.0,0.0,0.0,0.0,0.0,0.0,0.0,0.0,0.0,0.0,0.0,0.0,0.0,0.0,0.0,0.0,0.0,0.0,0.0,0.0,0.0,0.0,0.0,0.0,0.0,0.0,0.0,0.0,0.0,0.0,0.0,0.0,0.0,0.0,0.0,0.0,0.0,0.0,0.0,0.0,0.0,0.0,0.0,0.0,0.0,0.0,0.0,0.0,0.0,0.0,0.0,0.0,0.0,0.0,0.0,0.0,0.0,0.0,0.0,0.0,0.0,0.0,0.0,0.0,0.0,0.0,0.0,0.0,0.0,0.0,0.0,0.0,0.0,0.0,0.0,0.0,0.0,0.0,0.0,0.0,0.0,0.0,0.0,0.0,0.0,0.0,0.0,0.0,0.0,0.0,0.0,0.0,0.0,-2.6158,-2.6272,-2.6595,-2.7392,-2.7383,-2.7383,-2.7383,-2.7383,-2.6509,0.0,0.0,0.0,0.0,0.0,0.0,0.0,0.0,0.0,0.0,0.0,0.0,0.0,0.0,0.0,0.0,0.0,0.0,0.0,0.0,0.0,0.0,0.0,0.0,0.0,0.0,0.0,0.0,0.0,0.0,0.0,0.0,0.0,0.0,0.0,0.0,0.0,0.0,0.0,0.0,0.0,0.0,0.0,0.0,0.0,0.0,0.0,0.0,0.0,0.0,0.0,0.0,0.0,0.0,0.0,0.0,0.0,0.0,0.0,0.0,0.0,0.0,0.0,0.0,0.0,0.0,0.0,0.0,0.0,0.0,0.0,0.0,0.0,0.0,0.0,0.0,0.0,0.0,0.0,0.0,0.0,0.0,0.0,0.0,0.0,0.0,0.0,0.0,0.0,0.0,0.0,0.0,0.0,0.0,0.0,0.0,0.0,0.0,0.0,0.0,0.0,0.0,0.0,-2.5399,-2.5912,-2.6348,-2.6614,-2.7145,-2.7033,-2.6195,-2.6445,-2.517,-2.1815,0.0,0.0,0.0,0.0,0.0,0.0,0.0,0.0,0.0,0.0,0.0,0.0,0.0,0.0,0.0,0.0,0.0,0.0,0.0,0.0,0.0,0.0,0.0,0.0,0.0,0.0,0.0,0.0,0.0,0.0,0.0,0.0,0.0,0.0,0.0,0.0,0.0,0.0,0.0,0.0,0.0,0.0,0.0,0.0,0.0,0.0,0.0,0.0,0.0,0.0,0.0,0.0,0.0,0.0,0.0,0.0,0.0,0.0,0.0,0.0,0.0,0.0,0.0,0.0,0.0,0.0,0.0,0.0,0.0,0.0,0.0,0.0,0.0,0.0,0.0,0.0,0.0,0.0,0.0,0.0,0.0,0.0,0.0,0.0,0.0,0.0,0.0,0.0,0.0,0.0,0.0,0.0,0.0,0.0,0.0,0.0,0.0,0.0,0.0,0.0,0.0,0.0,0.0,-2.5475,-2.5798,-2.5798,-2.6253,-2.6255,-2.5427,-2.5588,-2.4349,-2.0893,0.0,0.0,0.0,0.0,0.0,0.0,0.0,0.0,0.0,0.0,0.0,0.0,0.0,0.0,0.0,0.0,0.0,0.0,0.0,0.0,0.0,0.0,0.0,0.0,0.0,0.0,0.0,0.0,0.0,0.0,0.0,0.0,0.0,0.0,0.0,0.0,0.0,0.0,0.0,0.0,0.0,0.0,0.0,0.0,0.0,0.0,0.0,0.0,0.0,0.0,0.0,0.0,0.0,0.0,0.0,0.0,0.0,0.0,0.0,0.0,0.0,0.0,0.0,0.0,0.0,0.0,0.0,0.0,0.0,0.0,0.0,0.0,0.0,0.0,0.0,0.0,0.0,0.0,0.0,0.0,0.0,0.0,0.0,0.0,0.0,0.0,0.0,0.0,0.0,0.0,0.0,0.0,0.0,0.0,0.0,0.0,0.0,0.0,0.0,0.0,0.0,0.0,0.0,-2.5038,-2.5038,-2.5038,-2.5038,-2.5038,-2.4944,-2.4925,-2.3726,-2.1035,-2.0329,0.0,0.0,0.0,0.0,0.0,0.0,0.0,0.0,0.0,0.0,0.0,0.0,0.0,0.0,0.0,0.0,0.0,0.0,0.0,0.0,0.0,0.0,0.0,0.0,0.0,0.0,0.0,0.0,0.0,0.0,0.0,0.0,0.0,0.0,0.0,0.0,0.0,0.0,0.0,0.0,0.0,0.0,0.0,0.0,0.0,0.0,0.0,0.0,0.0,0.0,0.0,0.0,0.0,0.0,0.0,0.0,0.0,0.0,0.0,0.0,0.0,0.0,0.0,0.0,0.0,0.0,0.0,0.0,0.0,0.0,0.0,0.0,0.0,0.0,0.0,0.0,0.0,0.0,0.0,0.0,0.0,0.0,0.0,0.0,0.0,0.0,0.0,0.0,0.0,0.0,0.0,0.0,0.0,0.0,0.0,0.0,0.0,0.0,0.0,0.0,0.0,0.0,-2.5038,-2.5038,-2.5038,-2.5038,-2.4622,-2.3576,-2.3481,-2.2306,-1.9663,-1.8584,0.0,0.0,0.0,0.0,0.0,0.0,0.0,0.0,0.0,0.0,0.0,0.0,0.0,0.0,0.0,0.0,0.0,0.0,0.0,0.0,0.0,0.0,0.0,0.0,0.0,0.0,0.0,0.0,0.0,0.0,0.0,0.0,0.0,0.0,0.0,0.0,0.0,0.0,0.0,0.0,0.0,0.0,0.0,0.0,0.0,0.0,0.0,0.0,0.0,0.0,0.0,0.0,0.0,0.0,0.0,0.0,0.0,0.0,0.0,0.0,0.0,0.0,0.0,0.0,0.0,0.0,0.0,0.0,0.0,0.0,0.0,0.0,0.0,0.0,0.0,0.0,0.0,0.0,0.0,0.0,0.0,0.0,0.0,0.0,0.0,0.0,0.0,0.0,0.0,0.0,0.0,0.0,0.0,0.0,0.0,0.0,0.0,0.0,0.0,0.0,0.0,0.0,-2.4545,-2.5038,-2.5038,-2.4508,-2.3786,-2.2965,-2.2386,-2.1215,-1.9177,-1.7427,0.0,0.0,0.0,0.0,0.0,0.0,0.0,0.0,0.0,0.0,0.0,0.0,0.0,0.0,0.0,0.0,0.0,0.0,0.0,0.0,0.0,0.0,0.0,0.0,0.0,0.0,0.0,0.0,0.0,0.0,0.0,0.0,0.0,0.0,0.0,0.0,0.0,0.0,0.0,0.0,0.0,0.0,0.0,0.0,0.0,0.0,0.0,0.0,0.0,0.0,0.0,0.0,0.0,0.0,0.0,0.0,0.0,0.0,0.0,0.0,0.0,0.0,0.0,0.0,0.0,0.0,0.0,0.0,0.0,0.0,0.0,0.0,0.0,0.0,0.0,0.0,0.0,0.0,0.0,0.0,0.0,0.0,0.0,0.0,0.0,0.0,0.0,0.0,0.0,0.0,0.0,0.0,0.0,0.0,0.0,0.0,0.0,0.0,0.0,0.0,0.0,0.0,0.0,-2.4905,-2.5019,-2.3786,-2.2869,-2.2676,-2.1411,-2.0214,-1.9045,0.0,0.0,0.0,0.0,0.0,0.0,0.0,0.0,0.0,0.0,0.0,0.0,0.0,0.0,0.0,0.0,0.0,0.0,0.0,0.0,0.0,0.0,0.0,0.0,0.0,0.0,0.0,0.0,0.0,0.0,0.0,0.0,0.0,0.0,0.0,0.0,0.0,0.0,0.0,0.0,0.0,0.0,0.0,0.0,0.0,0.0,0.0,0.0,0.0,0.0,0.0,0.0,0.0,0.0,0.0,0.0,0.0,0.0,0.0,0.0,0.0,0.0,0.0,0.0,0.0,0.0,0.0,0.0,0.0,0.0,0.0,0.0,0.0,0.0,0.0,0.0,0.0,0.0,0.0,0.0,0.0,0.0,0.0,0.0,0.0,0.0,0.0,0.0,0.0,0.0,0.0,0.0,0.0,0.0,0.0,0.0,0.0,0.0,0.0,0.0,0.0,0.0,0.0,0.0,-2.4241,-2.4962,-2.3786,-2.2482,-2.1411,-2.0145,-1.9042,-1.8417,0.0,0.0,0.0,0.0,0.0,0.0,0.0,0.0,0.0,0.0,0.0,0.0,0.0,0.0]}]]]